Date StartTime U_cm/s V_cm/s W_cm/s Ustd_cm/s Vstd_cm/s Wstd_cm/s Uvar_(cm/s)^2 Vvar_(cm/s)^2 Wvar_(cm/s)^2 KE_(m/s)^2 TurbulentKE_(m/s)^2 HorizWindSpeed_cm/s FrictionSpeec_cm/s DragCoef SpeedOfSound_m/s SonicTemperature_C Pressure_mb 
05/11/2014  00:00:00     -199.667      252.963      -44.226      103.775      100.503       60.867    10769.262    10100.872     3704.774        6.519        1.229      322.269       67.657        0.044      335.274        5.797      863.345
05/11/2014  00:01:00     -174.728      197.732      -28.660      141.760      136.823       68.981    20095.794    18720.427     4758.406        5.700        2.179      263.871       63.081        0.057      335.288        5.818      863.382
05/11/2014  00:02:00     -114.666      275.270      -23.230      131.618      175.902       79.035    17323.308    30941.501     6246.508        7.198        2.726      298.198       71.730        0.058      335.289        5.821      863.404
05/11/2014  00:03:00     -160.600      329.046      -42.545       83.141      167.809       68.113     6912.379    28159.963     4639.349        8.778        1.986      366.147       79.866        0.048      335.279        5.803      863.420
05/11/2014  00:04:00     -204.256      318.659      -54.211      110.503      111.471       61.894    12210.844    12425.874     3830.819        8.733        1.423      378.502       66.659        0.031      335.233        5.727      863.452
05/11/2014  00:05:00     -127.129      280.161      -32.559      100.550      142.588       66.380    10110.390    20331.309     4406.360        6.527        1.742      307.656       63.645        0.043      335.241        5.741      863.463
05/11/2014  00:06:00      -81.492      164.429      -27.461      102.035      169.974       59.597    10411.176    28891.113     3551.823        3.863        2.143      183.515       59.251        0.104      335.264        5.779      863.441
05/11/2014  00:07:00     -124.110      154.121      -23.015       82.840      140.206       53.738     6862.541    19657.806     2887.746        3.454        1.470      197.880       59.500        0.090      335.232        5.726      863.445
05/11/2014  00:08:00     -161.300      253.262      -55.634       75.722      138.020       60.730     5733.825    19049.586     3688.084        6.086        1.424      300.265       66.577        0.049      335.213        5.695      863.456
05/11/2014  00:09:00     -198.612      239.203      -52.298      104.661      127.311       58.674    10953.962    16208.129     3442.678        6.500        1.530      310.910       63.592        0.042      335.187        5.652      863.452
05/11/2014  00:10:00     -138.149      205.024      -40.569      130.859       94.850       44.165    17124.159     8996.586     1950.544        4.541        1.404      247.225       40.717        0.027      335.209        5.687      863.460
05/11/2014  00:11:00     -183.155      191.755      -50.816       70.440       71.346       48.631     4961.788     5090.270     2364.985        4.266        0.621      265.171       36.424        0.019      335.175        5.630      863.459
05/11/2014  00:12:00     -165.488      183.672      -43.359       96.335      120.152       62.609     9280.362    14436.411     3919.879        4.531        1.382      247.228       56.764        0.053      335.158        5.604      863.461
05/11/2014  00:13:00     -188.140      206.371      -31.212       94.369       89.865       57.978     8905.527     8075.804     3361.460        4.965        1.017      279.259       40.787        0.021      335.164        5.612      863.469
05/11/2014  00:14:00     -127.640      223.076      -35.562       81.842      126.069       49.232     6698.097    15893.475     2423.835        4.616        1.251      257.011       63.286        0.061      335.169        5.623      863.481
05/11/2014  00:15:00     -141.178      147.472       -9.638       92.456      125.326       56.025     8548.178    15706.581     3138.841        3.458        1.370      204.155       45.788        0.050      335.149        5.590      863.493
05/11/2014  00:16:00     -181.106      196.850      -48.056      133.042      133.550       60.525    17700.217    17835.570     3663.234        5.652        1.960      267.486       77.255        0.083      335.171        5.625      863.521
05/11/2014  00:17:00     -209.192      198.580      -41.431      108.765       91.281       58.135    11829.839     8332.310     3379.732        5.422        1.177      288.436       61.401        0.045      335.174        5.630      863.548
05/11/2014  00:18:00     -149.721      170.047      -26.151      104.086       81.595       54.724    10833.831     6657.801     2994.705        3.625        1.024      226.566       48.216        0.045      335.164        5.613      863.555
05/11/2014  00:19:00     -159.680      157.745      -18.917      105.431      114.263       59.362    11115.625    13055.928     3523.838        3.921        1.385      224.457       64.852        0.083      335.200        5.673      863.565
05/11/2014  00:20:00     -123.894      151.971      -14.553       83.055      117.278       56.753     6898.089    13754.136     3220.905        3.126        1.194      196.074       41.067        0.044      335.193        5.662      863.558
05/11/2014  00:21:00     -170.734      226.720      -40.335       80.348       86.578       53.741     6455.817     7495.774     2888.077        4.951        0.842      283.817       49.646        0.031      335.157        5.601      863.547
05/11/2014  00:22:00     -100.244       93.144      -15.818       85.374       69.117       40.507     7288.639     4777.147     1640.838        1.634        0.685      136.838       42.353        0.096      335.162        5.612      863.565
05/11/2014  00:23:00      -80.654      251.035      -33.428      119.404       92.439       63.740    14257.351     8545.005     4062.738        4.875        1.343      263.674       60.883        0.053      335.159        5.604      863.571
05/11/2014  00:24:00      -95.473      283.599      -23.056       83.136       90.341       56.513     6911.619     8161.473     3193.711        5.417        0.913      299.239       52.815        0.031      335.119        5.540      863.617
05/11/2014  00:25:00      -61.610      365.049      -47.814       89.141      125.071       54.379     7946.088    15642.871     2957.080        8.294        1.327      370.212       43.593        0.014      335.181        5.642      863.647
05/11/2014  00:26:00      -86.385      217.011      -26.841       75.848      148.376       55.280     5752.967    22015.507     3055.910        4.304        1.541      233.573       66.972        0.082      335.153        5.598      863.668
05/11/2014  00:27:00      -77.907      144.292      -10.827       85.964      106.990       44.606     7389.872    11446.959     1989.739        2.391        1.041      163.980       57.534        0.123      335.156        5.602      863.708
05/11/2014  00:28:00     -187.198      151.325      -34.224      188.439       96.960       50.678    35509.162     9401.196     2568.243        5.329        2.374      240.712       68.022        0.080      335.240        5.739      863.732
05/11/2014  00:29:00      -78.447      165.881      -13.259       79.762      101.872       53.510     6361.899    10378.006     2863.340        2.672        0.980      183.494       48.931        0.071      335.163        5.614      863.721
05/11/2014  00:30:00     -101.747      203.498      -31.028       86.760       76.254       44.885     7527.287     5814.671     2014.683        3.404        0.768      227.517       51.240        0.051      335.195        5.664      863.719
05/11/2014  00:31:00      -63.899      249.323      -11.033       59.886      100.386       49.127     3586.334    10077.443     2413.494        4.122        0.804      257.381       45.594        0.031      335.145        5.582      863.705
05/11/2014  00:32:00      -54.569      162.534        0.559       84.661      133.379       67.328     7167.484    17789.836     4533.086        2.944        1.475      171.450       57.974        0.114      335.144        5.582      863.711
05/11/2014  00:33:00     -185.057      203.688      -41.803      105.617       99.566       50.327    11154.959     9913.437     2532.827        5.054        1.180      275.200       53.360        0.038      335.128        5.555      863.739
05/11/2014  00:34:00     -103.686      149.584      -27.909       62.531       89.568       40.897     3910.188     8022.424     1672.578        2.375        0.680      182.006       33.853        0.035      335.114        5.532      863.749
05/11/2014  00:35:00     -152.861      208.982      -25.378      118.361      143.822       72.186    14009.278    20684.805     5210.766        5.379        1.995      258.921       76.307        0.087      335.081        5.479      863.749
05/11/2014  00:36:00     -206.020      183.421      -42.201       88.112       90.372       63.569     7763.811     8167.031     4040.962        4.892        0.999      275.840       54.640        0.039      335.100        5.508      863.744
05/11/2014  00:37:00     -189.380      197.582      -43.329       99.723       84.874       51.892     9944.700     7203.545     2692.780        4.831        0.992      273.685       47.344        0.030      335.077        5.471      863.751
05/11/2014  00:38:00     -113.295      205.824      -33.757       61.437       93.410       43.968     3774.532     8725.421     1933.222        3.538        0.722      234.945       39.057        0.028      335.089        5.489      863.773
05/11/2014  00:39:00     -111.143      268.324      -41.643       84.445      112.875       52.859     7130.917    12740.817     2794.080        5.437        1.133      290.432       62.734        0.047      335.111        5.527      863.752
05/11/2014  00:40:00     -244.478      270.604      -37.039      134.993      142.857       78.320    18223.056    20408.242     6133.953        8.956        2.238      364.686       81.340        0.050      335.061        5.444      863.773
05/11/2014  00:41:00     -160.092      184.980      -23.292       99.130      100.719       65.039     9826.790    10144.385     4230.081        4.229        1.210      244.637       57.792        0.056      335.043        5.414      863.782
05/11/2014  00:42:00     -126.640      231.438      -19.759       89.170       96.686       51.578     7951.366     9348.204     2660.239        4.497        0.998      263.821       47.581        0.033      335.035        5.400      863.786
05/11/2014  00:43:00     -136.236      296.757      -35.609       87.044      121.783       63.545     7576.645    14831.020     4037.915        6.716        1.322      326.535       61.658        0.036      335.016        5.369      863.790
05/11/2014  00:44:00      -56.778      256.620      -31.610       84.418      100.639       51.254     7126.372    10128.193     2626.977        4.498        0.994      262.826       42.709        0.026      335.065        5.450      863.798
05/11/2014  00:45:00     -172.809      193.441      -48.539      135.163      103.107       51.344    18269.070    10631.123     2636.173        5.058        1.577      259.389       52.193        0.040      335.083        5.479      863.824
05/11/2014  00:46:00      -60.142      253.979      -27.813       75.696      102.457       53.427     5729.944    10497.513     2854.422        4.399        0.954      261.003       44.999        0.030      335.049        5.423      863.846
05/11/2014  00:47:00      -70.267      369.845      -34.548       74.784      134.716       51.668     5592.624    18148.313     2669.540        8.466        1.321      376.461       56.704        0.023      335.019        5.374      863.853
05/11/2014  00:48:00      -99.877      165.635       -7.546       62.042       81.224       48.434     3849.260     6597.264     2345.837        2.513        0.640      193.418       37.578        0.038      335.024        5.382      863.862
05/11/2014  00:49:00     -121.820      334.478      -35.431       68.858      138.616       52.980     4741.478    19214.360     2806.876        7.736        1.338      355.971       55.057        0.024      335.023        5.378      863.863
05/11/2014  00:50:00      -88.632      400.189      -43.690       75.832      118.905       56.025     5750.561    14138.308     3138.802        9.647        1.151      409.886       46.460        0.013      335.040        5.408      863.828
05/11/2014  00:51:00      -87.532      365.648      -45.950       69.537      116.183       42.041     4835.447    13498.391     1767.415        8.178        1.005      375.980       37.732        0.010      335.019        5.372      863.823
05/11/2014  00:52:00      -69.032      336.859      -41.348       71.835      124.242       38.139     5160.261    15436.128     1454.586        7.100        1.103      343.859       38.947        0.013      335.017        5.371      863.823
05/11/2014  00:53:00      -85.603      114.015      -20.593       63.507       78.556       42.863     4033.082     6171.021     1837.259        1.639        0.602      142.573       37.450        0.069      335.024        5.384      863.876
05/11/2014  00:54:00      -99.571      261.569      -27.272       83.772      112.056       51.773     7017.688    12556.579     2680.394        5.066        1.113      279.880       55.053        0.039      334.959        5.273      863.902
05/11/2014  00:55:00      -67.479      225.841      -18.078       67.527       86.586       42.347     4559.929     7497.097     1793.269        3.486        0.693      235.707       41.648        0.031      334.980        5.307      863.913
05/11/2014  00:56:00      -96.068      292.266      -32.424       84.259      145.395       54.289     7099.513    21139.753     2947.268        6.344        1.559      307.650       48.177        0.025      334.980        5.309      863.918
05/11/2014  00:57:00      -88.351      176.186      -25.553       60.265       98.592       41.156     3631.827     9720.402     1693.802        2.727        0.752      197.097       28.431        0.021      335.045        5.417      863.930
05/11/2014  00:58:00     -114.286      210.270      -31.033       66.594       93.804       38.028     4434.711     8799.256     1446.156        3.646        0.734      239.321       31.762        0.018      334.948        5.254      863.937
05/11/2014  00:59:00      -51.796      276.301      -40.622       73.383       76.642       41.738     5385.136     5873.938     1742.060        4.684        0.650      281.114       29.406        0.011      334.946        5.252      863.945
05/11/2014  01:00:00      -74.618      258.163      -40.118       69.944      100.571       44.657     4892.142    10114.612     1994.256        4.541        0.850      268.730       41.691        0.024      334.936        5.233      863.955
05/11/2014  01:01:00     -120.957      246.991      -33.402      119.846      178.649       69.415    14363.071    31915.292     4818.382        6.391        2.555      275.019       84.941        0.095      334.944        5.249      863.986
05/11/2014  01:02:00     -191.217      258.426      -54.354      130.547      131.217       57.130    17042.552    17217.942     3263.839        7.191        1.876      321.478       44.967        0.020      334.962        5.277      863.984
05/11/2014  01:03:00      -92.917      193.395      -25.132       95.193      103.869       53.615     9061.687    10788.754     2874.620        3.469        1.136      214.558       55.631        0.067      334.934        5.231      863.990
05/11/2014  01:04:00     -177.807      189.194      -47.032       93.515      110.543       44.622     8745.032    12219.684     1991.148        4.628        1.148      259.634       43.432        0.028      334.915        5.200      863.987
05/11/2014  01:05:00     -112.318      102.425      -22.567       68.183       82.629       42.192     4648.868     6827.632     1780.130        1.843        0.663      152.007       36.259        0.057      334.954        5.265      863.994
05/11/2014  01:06:00     -219.765      239.693      -51.271      118.138      160.744       65.741    13956.635    25838.570     4321.879        7.624        2.206      325.191       75.325        0.054      334.895        5.167      863.959
05/11/2014  01:07:00     -177.740      231.239      -35.899       95.332      182.628       58.733     9088.253    33352.870     3449.595        6.611        2.295      291.656       71.886        0.061      334.887        5.154      863.922
05/11/2014  01:08:00     -235.848      245.810      -56.511       83.022      120.684       53.165     6892.734    14564.684     2826.513        7.176        1.214      340.656       52.196        0.023      334.890        5.159      863.911
05/11/2014  01:09:00     -182.243      277.913      -36.098       99.892      151.338       78.482     9978.480    22903.092     6159.437        7.539        1.952      332.338       78.563        0.056      334.844        5.081      863.922
05/11/2014  01:10:00     -283.079      247.859      -60.154       91.850      119.222       65.910     8436.426    14214.001     4344.134        8.609        1.350      376.256       59.518        0.025      334.885        5.150      863.922
05/11/2014  01:11:00     -220.215      285.907      -50.693      136.644      106.515       67.425    18671.530    11345.522     4546.092        8.368        1.728      360.885       68.627        0.036      334.838        5.071      863.904
05/11/2014  01:12:00     -235.115      353.539      -66.239      125.790      129.422       69.740    15823.235    16750.002     4863.628       11.104        1.872      424.581       64.772        0.023      334.843        5.081      863.922
05/11/2014  01:13:00     -167.098      232.906      -34.979       87.173      128.229       59.892     7599.134    16442.567     3587.031        5.550        1.381      286.648       57.623        0.040      334.833        5.063      863.932
05/11/2014  01:14:00     -212.448      318.499      -55.041       92.746      141.792       62.968     8601.741    20104.917     3965.027        9.113        1.634      382.852       66.670        0.030      334.818        5.039      863.947
05/11/2014  01:15:00     -107.059      191.966      -25.149       78.726       76.736       45.100     6197.823     5888.410     2034.017        3.153        0.706      219.801       46.177        0.044      334.805        5.016      863.947
05/11/2014  01:16:00     -154.782      214.103      -30.935      112.605      102.567       61.435    12679.848    10519.954     3774.286        4.886        1.349      264.192       67.334        0.065      334.786        4.985      863.952
05/11/2014  01:17:00     -191.556      237.309      -47.689       74.794       92.936       48.585     5594.176     8637.072     2360.496        5.593        0.830      304.974       40.748        0.018      334.780        4.975      863.977
05/11/2014  01:18:00     -166.303      198.484      -31.206      102.276      110.588       60.513    10460.302    12229.707     3661.847        4.718        1.318      258.945       57.643        0.050      334.763        4.948      863.982
05/11/2014  01:19:00     -166.280      259.521      -28.725      110.456      139.746       74.170    12200.585    19528.874     5501.210        6.652        1.862      308.221       84.426        0.075      334.768        4.955      863.979
05/11/2014  01:20:00     -156.228      189.443      -32.471       95.780      105.887       55.258     9173.858    11211.972     3053.474        4.239        1.172      245.552       57.726        0.055      334.760        4.942      863.997
05/11/2014  01:21:00      -88.175      178.547      -31.371       57.681       61.928       36.475     3327.141     3835.133     1330.391        2.456        0.425      199.133       27.888        0.020      334.787        4.987      863.995
05/11/2014  01:22:00      -63.300      219.794      -29.830       65.664      120.930       50.128     4311.786    14623.980     2512.862        3.732        1.072      228.728       41.600        0.033      334.820        5.043      863.992
05/11/2014  01:23:00     -112.487      204.121      -24.676       59.961       76.548       44.281     3595.309     5859.585     1960.851        3.317        0.571      233.064       34.115        0.021      334.734        4.897      864.000
05/11/2014  01:24:00     -102.951      151.712      -30.042       63.771       65.122       40.322     4066.794     4240.936     1625.854        2.222        0.497      183.346       32.684        0.032      334.748        4.923      864.014
05/11/2014  01:25:00     -126.980      208.798      -21.992       94.413      118.961       65.055     8913.810    14151.784     4232.162        4.375        1.365      244.378       59.018        0.058      334.713        4.864      864.018
05/11/2014  01:26:00     -152.611      222.561      -33.008       85.355      111.391       64.638     7285.467    12407.905     4178.077        4.889        1.194      269.858       55.916        0.043      334.728        4.889      864.033
05/11/2014  01:27:00     -139.885      183.944      -23.636      105.101      104.581       59.976    11046.204    10937.157     3597.175        3.977        1.279      231.091       56.857        0.061      334.734        4.898      864.030
05/11/2014  01:28:00      -91.807      294.654      -24.220       92.614       89.550       58.389     8577.295     8019.122     3409.235        5.792        1.000      308.625       55.649        0.033      334.720        4.874      864.031
05/11/2014  01:29:00     -128.793      159.290      -20.314      102.152       92.018       56.813    10435.132     8467.300     3227.663        3.225        1.107      204.844       67.622        0.109      334.702        4.845      864.034
05/11/2014  01:30:00     -226.360      288.183      -48.784      101.969      135.475       63.608    10397.732    18353.347     4045.993        8.473        1.640      366.454       61.863        0.028      334.702        4.844      864.032
05/11/2014  01:31:00     -157.769      207.424      -35.971       84.048      110.909       54.231     7064.021    12300.756     2941.008        4.575        1.115      260.607       50.809        0.038      334.676        4.802      864.034
05/11/2014  01:32:00      -76.476      182.560      -12.043       71.516       91.905       57.136     5114.556     8446.611     3264.477        2.807        0.841      197.931       51.167        0.067      334.695        4.836      864.021
05/11/2014  01:33:00     -120.287      172.521      -29.170       81.682      114.168       52.027     6672.027    13034.247     2706.846        3.374        1.121      210.315       42.241        0.040      334.720        4.876      864.046
05/11/2014  01:34:00     -140.572      204.874      -30.925       79.386      104.493       57.082     6302.131    10918.846     3258.379        4.158        1.024      248.463       43.291        0.030      334.658        4.772      864.057
05/11/2014  01:35:00     -138.731      126.449      -25.655       88.764       70.932       48.496     7879.069     5031.288     2351.847        2.557        0.763      187.711       33.036        0.031      334.655        4.767      864.060
05/11/2014  01:36:00     -131.504      140.054      -13.770       99.023      105.257       55.812     9805.641    11079.032     3115.013        3.054        1.200      192.115       37.599        0.038      334.641        4.745      864.052
05/11/2014  01:37:00     -181.156      147.099      -34.874      110.635       74.556       62.390    12240.070     5558.649     3892.530        3.868        1.085      233.357       67.278        0.083      334.630        4.726      864.042
05/11/2014  01:38:00     -143.899      162.153      -21.488       73.151       99.422       50.429     5351.009     9884.639     2543.064        3.262        0.889      216.796       43.497        0.040      334.637        4.738      864.026
05/11/2014  01:39:00     -124.683      104.793       -5.129       99.820       92.243       57.254     9964.012     8508.793     3277.985        2.415        1.088      162.873       59.528        0.134      334.628        4.722      864.011
05/11/2014  01:40:00     -135.534       36.323      -19.931       76.558       83.032       42.941     5861.095     6894.275     1843.931        1.734        0.730      140.317       38.927        0.077      334.625        4.718      863.988
05/11/2014  01:41:00     -172.372      134.423      -39.255       75.631       72.361       36.538     5720.048     5236.092     1335.014        3.080        0.615      218.590       23.760        0.012      334.647        4.754      863.978
05/11/2014  01:42:00     -199.467      148.918      -46.382      109.543      107.936       54.701    11999.719    11650.224     2992.159        4.537        1.332      248.925       58.917        0.056      334.597        4.670      863.999
05/11/2014  01:43:00     -150.271      224.502      -38.257       69.685       88.530       44.533     4855.954     7837.563     1983.195        4.456        0.734      270.153       47.902        0.031      334.582        4.646      864.015
05/11/2014  01:44:00     -146.501      122.469      -25.832       63.388       81.647       45.597     4018.069     6666.248     2079.118        2.494        0.638      190.948       39.302        0.042      334.546        4.586      864.016
05/11/2014  01:45:00      -85.746       53.494        0.434       54.835       96.481       42.602     3006.888     9308.606     1814.959        1.217        0.707      101.064       47.651        0.222      334.563        4.617      864.006
05/11/2014  01:46:00     -162.228      119.209      -37.592      115.159       96.186       42.542    13261.569     9251.673     1809.785        3.313        1.216      201.317       60.471        0.090      334.554        4.601      864.018
05/11/2014  01:47:00     -127.024      145.133      -27.308       70.143       94.906       53.483     4920.109     9007.159     2860.388        2.736        0.839      192.870       54.537        0.080      334.509        4.525      864.054
05/11/2014  01:48:00      -55.393      131.617       -4.375       58.018      108.512       52.113     3366.108    11774.876     2715.770        1.913        0.893      142.798       43.130        0.091      334.543        4.581      864.045
05/11/2014  01:49:00     -182.237      154.868      -21.230      114.938      110.288       72.397    13210.815    12163.369     5241.395        4.412        1.531      239.153       65.593        0.075      334.492        4.498      864.043
05/11/2014  01:50:00     -154.611      193.590      -31.020       90.508       78.201       52.084     8191.639     6115.365     2712.719        3.968        0.851      247.753       52.862        0.046      334.464        4.450      864.065
05/11/2014  01:51:00     -152.555      131.359      -26.623       85.109      110.088       44.192     7243.458    12119.424     1952.925        3.127        1.066      201.316       46.199        0.053      334.499        4.507      864.106
05/11/2014  01:52:00     -161.463      189.942      -42.077       62.794      103.910       52.042     3943.048    10797.206     2708.378        4.068        0.872      249.295       57.319        0.053      334.474        4.467      864.129
05/11/2014  01:53:00     -163.035      191.645      -41.330       97.631      102.297       46.835     9531.800    10464.769     2193.471        4.360        1.110      251.611       55.468        0.049      334.453        4.434      864.154
05/11/2014  01:54:00     -166.742      193.704      -34.577       56.083       94.607       43.617     3145.303     8950.506     1902.422        4.026        0.700      255.586       38.921        0.023      334.438        4.406      864.144
05/11/2014  01:55:00     -140.788      150.638      -24.695       76.723       92.556       45.950     5886.416     8566.573     2111.417        2.984        0.828      206.187       41.331        0.040      334.419        4.376      864.135
05/11/2014  01:56:00     -126.684      133.967      -29.357       65.395       66.730       39.106     4276.561     4452.931     1529.290        2.256        0.513      184.380       34.181        0.034      334.423        4.384      864.138
05/11/2014  01:57:00     -171.192       22.226      -16.653       50.602       73.115       44.513     2560.578     5345.754     1981.441        1.998        0.494      172.628       31.778        0.034      334.447        4.424      864.103
05/11/2014  01:58:00     -104.255       26.735      -19.484       55.348       77.628       31.383     3063.395     6026.178      984.890        1.102        0.504      107.628       21.608        0.040      334.411        4.368      864.080
05/11/2014  01:59:00     -139.612       54.402      -26.467       71.815       65.832       38.828     5157.415     4333.844     1507.640        1.707        0.550      149.837       44.305        0.087      334.395        4.337      864.073
05/11/2014  02:00:00      -97.215       28.271      -16.846       39.188       51.732       25.522     1535.698     2676.214      651.396        0.770        0.243      101.243       10.145        0.010      334.442        4.418      864.092
05/11/2014  02:01:00      -99.474       72.855      -30.620       45.536       79.051       26.466     2073.499     6249.025      700.430        1.258        0.451      123.300       13.303        0.012      334.436        4.408      864.124
05/11/2014  02:02:00      -72.517      -31.290       -4.637       54.833       66.800       31.828     3006.639     4462.191     1013.022        0.737        0.424       78.980       26.305        0.111      334.447        4.425      864.127
05/11/2014  02:03:00     -109.873       25.384      -20.665       55.995       70.256       27.833     3135.439     4935.915      774.693        1.099        0.442      112.767       25.270        0.050      334.400        4.347      864.150
05/11/2014  02:04:00      -57.348       17.654       -4.625       47.462       23.656       24.057     2252.601      559.627      578.751        0.351        0.170       60.004       29.160        0.236      334.389        4.331      864.155
05/11/2014  02:05:00      -42.985       -7.490       -3.920       60.395       18.972       15.369     3647.534      359.919      236.203        0.308        0.212       43.633       11.210        0.066      334.384        4.322      864.180
05/11/2014  02:06:00      -86.776       22.943      -11.734       71.421       24.551       22.078     5100.956      602.758      487.422        0.719        0.310       89.757       29.745        0.110      334.364        4.288      864.184
05/11/2014  02:07:00      -21.436      124.839       -7.192       89.111       73.381       36.956     7940.750     5384.828     1365.776        1.539        0.735      126.666       31.523        0.062      334.349        4.262      864.194
05/11/2014  02:08:00      -84.781      142.783      -27.872       46.199       62.230       38.517     2134.377     3872.590     1483.582        1.792        0.375      166.057       35.151        0.045      334.329        4.227      864.208
05/11/2014  02:09:00      -93.574       44.162       -3.353       33.340       66.065       29.481     1111.537     4364.631      869.119        0.853        0.317      103.472       27.197        0.069      334.339        4.246      864.218
05/11/2014  02:10:00      -49.040      106.426        2.312       46.161       61.079       36.124     2130.839     3730.687     1304.976        1.045        0.358      117.181       37.177        0.101      334.292        4.168      864.240
05/11/2014  02:11:00      -54.140       36.486       -8.314       27.989       25.045       22.887      783.375      627.262      523.834        0.313        0.097       65.287       12.403        0.036      334.350        4.265      864.244
05/11/2014  02:12:00      -69.735      -30.925       -5.891       72.209       49.258       24.585     5214.087     2426.358      604.418        0.705        0.412       76.284       21.209        0.077      334.332        4.236      864.231
05/11/2014  02:13:00      -84.713       -2.630       -7.857       64.891       49.707       31.101     4210.851     2470.775      967.242        0.745        0.382       84.754       14.944        0.031      334.332        4.237      864.217
05/11/2014  02:14:00      -69.031       29.960       -9.079       36.637       28.203       24.654     1342.264      795.386      607.840        0.424        0.137       75.252        7.293        0.009      334.287        4.159      864.242
05/11/2014  02:15:00      -54.056       -7.965       -7.423       31.200       39.243       16.073      973.433     1540.041      258.335        0.291        0.139       54.640       17.777        0.106      334.332        4.238      864.265
05/11/2014  02:16:00      -26.010       -5.482       -3.344       28.393       22.942       17.510      806.177      526.314      306.607        0.118        0.082       26.581       20.324        0.585      334.284        4.154      864.286
05/11/2014  02:17:00      -87.810        1.407      -20.388       28.630       45.149       23.349      819.664     2038.430      545.182        0.577        0.170       87.821       18.631        0.045      334.366        4.291      864.281
05/11/2014  02:18:00     -156.528      -80.766       -4.728       67.162       53.946       37.183     4510.766     2910.122     1382.563        1.992        0.440      176.137       40.781        0.054      334.317        4.208      864.273
05/11/2014  02:19:00     -152.169      -61.016       -2.895       48.669       53.240       28.700     2368.675     2834.501      823.690        1.646        0.301      163.946       24.075        0.022      334.283        4.154      864.273
05/11/2014  02:20:00     -171.939      -28.858       -1.988       68.549       59.360       33.820     4698.976     3523.619     1143.817        1.988        0.468      174.344       31.597        0.033      334.248        4.093      864.281
05/11/2014  02:21:00      -84.824       22.518      -14.356       44.649       60.230       29.041     1993.541     3627.710      843.376        0.719        0.323       87.762        7.840        0.008      334.319        4.213      864.278
05/11/2014  02:22:00      -83.722       49.679      -17.616       33.939       48.941       21.050     1151.840     2395.214      443.113        0.689        0.200       97.352       22.349        0.053      334.246        4.092      864.301
05/11/2014  02:23:00      -73.031       24.442      -22.102       22.918       24.916       19.497      525.215      620.828      380.127        0.397        0.076       77.013       12.246        0.025      334.248        4.095      864.311
05/11/2014  02:24:00      -55.189       29.468      -15.404       37.177       31.428       24.478     1382.120      987.740      599.167        0.356        0.148       62.563       13.573        0.047      334.264        4.123      864.311
05/11/2014  02:25:00       -7.219       -5.188        7.080       26.708        8.799       13.833      713.307       77.427      191.344        0.056        0.049        8.889       16.435        3.418      334.239        4.080      864.300
05/11/2014  02:26:00      -18.669        0.922       -5.087       43.515       39.901       24.449     1893.582     1592.097      597.769        0.223        0.204       18.691       24.824        1.764      334.287        4.162      864.301
05/11/2014  02:27:00      -54.532      148.456      -34.474       68.607       53.500       45.932     4706.878     2862.274     2109.729        1.794        0.484      158.155       22.319        0.020      334.335        4.239      864.307
05/11/2014  02:28:00     -106.794       96.603       -9.578       92.227       61.153       42.523     8505.878     3739.715     1808.206        1.744        0.703      144.004       52.231        0.132      334.252        4.101      864.315
05/11/2014  02:29:00     -180.705       93.602      -32.477       83.835       80.956       48.890     7028.338     6553.821     2390.212        2.922        0.799      203.508       49.070        0.058      334.251        4.096      864.328
05/11/2014  02:30:00      -96.770       70.070      -29.285       43.258       61.847       34.083     1871.243     3825.102     1161.673        1.099        0.343      119.475       30.753        0.066      334.205        4.025      864.354
05/11/2014  02:31:00      -18.030       95.517       -5.353       53.519       83.190       34.695     2864.325     6920.519     1203.758        1.023        0.549       97.204       37.298        0.147      334.142        3.918      864.375
05/11/2014  02:32:00      -27.486       99.401       -0.825       41.650       65.306       33.715     1734.705     4264.870     1136.714        0.889        0.357      103.131       27.729        0.072      334.139        3.914      864.398
05/11/2014  02:33:00       -0.516       58.899       -6.864       20.492       44.809       19.603      419.910     2007.839      384.267        0.316        0.141       58.901       17.743        0.091      334.206        4.028      864.396
05/11/2014  02:34:00      -84.716      164.520      -21.700       53.162       61.982       34.799     2826.176     3841.806     1210.972        2.130        0.394      185.050       38.301        0.043      334.251        4.098      864.404
05/11/2014  02:35:00      -67.185      126.617      -25.690       63.637       29.341       27.952     4049.705      860.888      781.312        1.345        0.285      143.337       23.275        0.026      334.181        3.982      864.399
05/11/2014  02:36:00       24.712       20.617        7.120       36.776       21.969       18.007     1352.504      482.634      324.263        0.162        0.108       32.183       11.491        0.127      334.111        3.868      864.400
05/11/2014  02:37:00      -49.691      150.737      -25.187       69.537       70.017       37.170     4835.454     4902.442     1381.589        1.847        0.556      158.717       35.782        0.051      334.152        3.932      864.407
05/11/2014  02:38:00      -33.978      182.624      -19.509       63.092       80.236       39.229     3980.606     6437.827     1538.938        2.342        0.598      185.758       44.852        0.058      334.128        3.894      864.409
05/11/2014  02:39:00      -59.095      145.087      -20.671       62.331       63.027       35.741     3885.127     3972.408     1277.417        1.705        0.457      156.660       28.869        0.034      334.208        4.028      864.421
05/11/2014  02:40:00      -28.074      111.386      -12.183       41.188       40.646       21.281     1696.470     1652.114      452.878        0.857        0.190      114.869       19.318        0.028      334.182        3.985      864.434
05/11/2014  02:41:00       66.120       59.631       -2.706       36.769       34.624       35.820     1351.931     1198.808     1283.067        0.588        0.192       89.038       23.326        0.069      334.109        3.864      864.449
05/11/2014  02:42:00       41.229       76.480       -8.486       34.810       48.015       22.100     1211.722     2305.430      488.400        0.581        0.200       86.886       29.341        0.114      334.071        3.801      864.470
05/11/2014  02:43:00       51.793       49.249        4.765       37.778       40.217       27.260     1427.142     1617.368      743.114        0.446        0.189       71.470       24.273        0.115      334.062        3.786      864.489
05/11/2014  02:44:00       40.428       76.792       -1.386       34.454       45.648       28.795     1187.053     2083.761      829.150        0.582        0.205       86.784       25.859        0.089      334.033        3.739      864.513
05/11/2014  02:45:00       55.379       36.285        0.235       38.346       30.725       20.357     1470.411      944.051      414.399        0.361        0.141       66.207       18.870        0.081      334.053        3.774      864.511
05/11/2014  02:46:00       22.787       32.582       -0.806       23.848       19.829       14.446      568.726      393.177      208.696        0.138        0.059       39.760       10.816        0.074      334.053        3.771      864.510
05/11/2014  02:47:00        4.420       15.804       -5.705       11.836       14.602        6.600      140.092      213.229       43.563        0.035        0.020       16.410        6.991        0.181      334.038        3.748      864.500
05/11/2014  02:48:00        3.703        3.356        1.779       15.251       19.290       10.238      232.593      372.099      104.812        0.037        0.035        4.997        7.964        2.540      334.051        3.770      864.478
05/11/2014  02:49:00       -3.053       25.602        1.469       52.669       43.352       27.695     2773.990     1879.363      767.030        0.304        0.271       25.783       14.980        0.338      334.092        3.837      864.452
05/11/2014  02:50:00      -52.071       55.628      -11.068       32.702       28.025       20.679     1069.413      785.392      427.619        0.410        0.114       76.196       19.630        0.066      334.153        3.939      864.432
05/11/2014  02:51:00      -72.941       16.636       -6.353       45.124       19.669       26.482     2036.147      386.853      701.306        0.438        0.156       74.814       15.623        0.044      334.130        3.900      864.433
05/11/2014  02:52:00      -75.522       19.261       -7.258       43.125       25.137       19.935     1859.738      631.860      397.389        0.451        0.144       77.939       13.238        0.029      334.109        3.864      864.425
05/11/2014  02:53:00      -90.762       30.250       -9.740       37.257       35.418       18.343     1388.093     1254.447      336.464        0.611        0.149       95.670       13.324        0.019      334.130        3.900      864.432
05/11/2014  02:54:00      -74.786      -31.199        6.177       54.989       34.749       25.702     3023.749     1207.525      660.574        0.575        0.245       81.032       27.323        0.114      334.050        3.767      864.435
05/11/2014  02:55:00     -119.561      -59.311       -1.144       30.369       32.352       18.729      922.252     1046.629      350.758        1.007        0.116      133.464       12.106        0.008      334.095        3.841      864.441
05/11/2014  02:56:00      -49.801      -53.317       -2.901       46.582       40.686       25.868     2169.849     1655.379      669.158        0.491        0.225       72.958       20.054        0.076      334.119        3.881      864.449
05/11/2014  02:57:00      -40.233      -54.081        0.726       46.214       36.812       28.912     2135.744     1355.101      835.887        0.443        0.216       67.405       34.683        0.265      334.094        3.839      864.455
05/11/2014  02:58:00      -10.470      -19.265       18.682       36.463       22.883       22.234     1329.581      523.610      494.359        0.159        0.117       21.926       18.782        0.734      334.141        3.917      864.467
05/11/2014  02:59:00     -106.970      -53.775       -4.895       32.053       21.490       14.494     1027.395      461.814      210.069        0.803        0.085      119.726       14.159        0.014      334.083        3.824      864.472
05/11/2014  03:00:00      -25.494      -18.072       10.244       30.129       28.141       15.431      907.770      791.943      238.125        0.151        0.097       31.250       16.263        0.271      334.095        3.842      864.461
05/11/2014  03:01:00      -70.110      -53.389       -2.022       43.028       31.653       12.080     1851.448     1001.900      145.925        0.538        0.150       88.124       13.787        0.024      334.195        4.008      864.470
05/11/2014  03:02:00      -13.967      -46.144        8.063       28.029       24.728       22.647      785.629      611.494      512.907        0.215        0.096       48.211       16.761        0.121      334.193        4.006      864.457
05/11/2014  03:03:00      -25.998      -36.754       13.526       46.151       18.982       17.092     2129.951      360.312      292.145        0.250        0.139       45.019       17.887        0.158      334.175        3.972      864.447
05/11/2014  03:04:00     -101.255      -34.679       -8.389       25.534       28.116       14.303      652.000      790.524      204.580        0.659        0.082      107.029        5.388        0.003      334.029        3.733      864.444
05/11/2014  03:05:00      -92.793      -51.477       -2.920       29.297       45.492       20.942      858.317     2069.530      438.567        0.732        0.168      106.115       18.028        0.029      333.971        3.636      864.435
05/11/2014  03:06:00      -84.932      -62.384       -5.119       53.519       39.433       19.455     2864.308     1554.979      378.511        0.796        0.240      105.381       20.443        0.038      334.039        3.749      864.426
05/11/2014  03:07:00      -41.904      -55.864       14.226       49.160       40.574       28.302     2416.695     1646.228      801.025        0.497        0.243       69.833       27.510        0.155      333.948        3.598      864.426
05/11/2014  03:08:00        2.046      -29.458       28.074       41.275       31.871       26.118     1703.609     1015.755      682.154        0.253        0.170       29.528       18.738        0.403      334.108        3.862      864.400
05/11/2014  03:09:00      -82.444      -40.795        2.614       49.260       26.836       19.104     2426.523      720.175      364.964        0.599        0.176       91.985       25.630        0.078      333.985        3.660      864.392
05/11/2014  03:10:00      -56.318      -42.232        6.644       39.664       31.217       25.436     1573.239      974.478      646.969        0.410        0.160       70.394       27.207        0.149      333.844        3.424      864.373
05/11/2014  03:11:00      -82.954      -17.703        3.661       62.674       32.581       22.915     3927.971     1061.539      525.082        0.636        0.276       84.822       28.271        0.111      333.814        3.376      864.351
05/11/2014  03:12:00     -179.842      -98.878      -13.992       62.335       49.049       26.765     3885.622     2405.837      716.384        2.466        0.350      205.231       24.446        0.014      333.890        3.499      864.324
05/11/2014  03:13:00     -136.368      -83.915       -1.769       53.208       59.322       30.972     2831.059     3519.142      959.276        1.647        0.365      160.119       29.839        0.035      333.814        3.374      864.317
05/11/2014  03:14:00     -184.639      -47.298       -0.602       51.600       50.414       33.715     2662.519     2541.603     1136.711        2.133        0.317      190.600       31.197        0.027      333.763        3.288      864.338
05/11/2014  03:15:00     -125.020      -56.670        1.768       80.011       53.814       33.879     6401.787     2895.924     1147.806        1.464        0.522      137.264       37.625        0.075      333.830        3.401      864.338
05/11/2014  03:16:00     -117.955      -36.020        0.661       50.659       44.288       28.185     2566.372     1961.440      794.422        1.027        0.266      123.332       28.402        0.053      333.767        3.298      864.337
05/11/2014  03:17:00     -141.581      -43.728        1.206       49.216       45.797       24.516     2422.212     2097.388      601.019        1.354        0.256      148.180       22.324        0.023      333.708        3.198      864.347
05/11/2014  03:18:00     -148.449      -25.476      -16.633       51.953       37.700       24.086     2699.108     1421.293      580.150        1.383        0.235      150.619       28.057        0.035      333.708        3.200      864.365
05/11/2014  03:19:00     -108.398      -46.201       -4.185       44.431       35.987       19.830     1974.134     1295.034      393.225        0.878        0.183      117.833       22.424        0.036      333.712        3.206      864.377
05/11/2014  03:20:00      -86.666      -27.152       -9.741       34.270       33.286       20.458     1174.464     1107.984      418.549        0.552        0.135       90.819       11.867        0.017      333.689        3.169      864.394
05/11/2014  03:21:00     -105.559       -0.817      -11.752       34.920       31.328       19.096     1219.387      981.431      364.653        0.692        0.128      105.562       14.623        0.019      333.733        3.240      864.390
05/11/2014  03:22:00     -123.672      -19.782      -13.859       25.938       42.874       21.928      672.769     1838.175      480.828        0.943        0.150      125.244       10.957        0.008      333.761        3.288      864.366
05/11/2014  03:23:00     -111.487      -35.907       -4.694       50.359       40.182       29.095     2535.995     1614.621      846.491        0.937        0.250      117.127       29.424        0.063      333.725        3.230      864.346
05/11/2014  03:24:00      -90.716      -17.103       -5.986       52.401       59.690       26.968     2745.863     3562.895      727.289        0.780        0.352       92.314       26.239        0.081      333.829        3.401      864.328
05/11/2014  03:25:00      -96.754       -2.002       -2.743       35.851       37.144       21.698     1285.274     1379.681      470.806        0.625        0.157       96.775       14.499        0.022      333.847        3.431      864.338
05/11/2014  03:26:00      -50.763       -1.976       -6.919       40.972       27.883       19.542     1678.700      777.441      381.874        0.273        0.142       50.801       17.829        0.123      333.862        3.455      864.359
05/11/2014  03:27:00      -40.130       -9.675       -1.621       26.386       38.454       20.210      696.245     1478.734      408.442        0.214        0.129       41.280        9.447        0.052      333.940        3.587      864.372
05/11/2014  03:28:00      -58.981       25.765      -10.271       34.195       41.651       16.637     1169.325     1734.829      276.773        0.371        0.159       64.363       18.142        0.079      333.909        3.532      864.381
05/11/2014  03:29:00     -115.182      113.590      -22.323       51.515       49.067       30.597     2653.796     2407.613      936.184        1.633        0.300      161.770       31.153        0.037      334.035        3.741      864.396
05/11/2014  03:30:00      -83.917       70.214      -19.442       44.684       47.950       24.351     1996.696     2299.242      592.982        0.862        0.244      109.417       28.551        0.068      334.066        3.793      864.413
05/11/2014  03:31:00     -117.245       88.708      -23.039       35.139       31.183       20.533     1234.766      972.393      421.598        1.239        0.131      147.022       17.286        0.014      334.029        3.732      864.434
05/11/2014  03:32:00      -96.877       79.855      -17.900       38.845       35.099       28.347     1508.899     1231.955      803.549        0.981        0.177      125.547       22.337        0.032      334.074        3.808      864.457
05/11/2014  03:33:00     -110.930       85.653      -18.713       54.102       57.147       32.358     2926.978     3265.796     1047.039        1.361        0.362      140.150       34.227        0.060      334.100        3.848      864.461
05/11/2014  03:34:00      -64.247       46.195       -8.531       44.785       51.754       23.241     2005.661     2678.437      540.153        0.578        0.261       79.130       28.131        0.126      334.133        3.904      864.466
05/11/2014  03:35:00     -106.072       98.804      -30.274       46.967       57.603       26.557     2205.923     3318.138      705.271        1.408        0.311      144.961       31.931        0.049      334.178        3.979      864.469
05/11/2014  03:36:00      -52.027      130.850      -15.204       62.450       66.723       29.905     3900.008     4451.983      894.335        1.465        0.462      140.814       30.711        0.048      334.157        3.943      864.468
05/11/2014  03:37:00      -72.800       29.583       -6.099       40.831       30.919       30.410     1667.131      955.964      924.744        0.488        0.177       78.582       20.761        0.070      334.099        3.848      864.467
05/11/2014  03:38:00     -144.632      102.948      -28.811       74.670       63.425       39.716     5575.580     4022.688     1577.386        2.176        0.559      177.529       35.791        0.041      334.112        3.867      864.462
05/11/2014  03:39:00     -126.697      133.522      -37.073       49.907       62.037       37.050     2490.720     3848.532     1372.718        2.148        0.386      184.066       41.272        0.050      334.094        3.838      864.456
05/11/2014  03:40:00     -129.922      120.270      -22.290       48.906       59.471       45.555     2391.810     3536.826     2075.228        1.992        0.400      177.044       37.091        0.044      334.121        3.883      864.452
05/11/2014  03:41:00     -152.706      153.407      -33.834       59.206       66.325       38.007     3505.335     4398.999     1444.547        2.867        0.467      216.456       27.614        0.016      334.092        3.831      864.473
05/11/2014  03:42:00     -128.173      130.321      -22.628       60.852       67.310       42.432     3703.012     4530.644     1800.453        2.198        0.502      182.789       41.782        0.052      334.103        3.853      864.489
05/11/2014  03:43:00     -137.660      166.916      -39.194       40.780       61.444       34.527     1662.978     3775.364     1192.141        2.749        0.332      216.359       14.776        0.005      334.087        3.826      864.501
05/11/2014  03:44:00     -127.072       76.564      -13.393       64.718       50.727       37.603     4188.356     2573.264     1413.950        1.518        0.409      148.356       26.489        0.032      334.060        3.782      864.496
05/11/2014  03:45:00     -131.793      178.037      -37.159       68.747       67.640       44.751     4726.105     4575.125     2002.649        3.087        0.565      221.510       47.490        0.046      334.099        3.845      864.501
05/11/2014  03:46:00      -86.843      119.881      -14.685       44.750       55.890       32.503     2002.601     3123.694     1056.442        1.415        0.309      148.031       26.913        0.033      334.061        3.786      864.496
05/11/2014  03:47:00     -142.693      133.552      -34.606       58.376       87.000       41.813     3407.746     7569.005     1748.310        2.606        0.636      195.441       45.840        0.055      334.061        3.783      864.510
05/11/2014  03:48:00     -109.758      167.553      -29.932       41.799       62.960       32.701     1747.128     3963.970     1069.354        2.390        0.339      200.302       31.542        0.025      334.051        3.766      864.520
05/11/2014  03:49:00     -102.296       96.749       -9.575       64.024       58.813       35.592     4099.090     3459.018     1266.800        1.437        0.441      140.800       31.118        0.049      334.039        3.747      864.538
05/11/2014  03:50:00      -76.532      156.422       -9.720       62.621       66.916       42.991     3921.361     4477.720     1848.229        2.033        0.512      174.141       46.924        0.073      334.001        3.685      864.543
05/11/2014  03:51:00     -138.424      137.628      -38.694       37.420       56.588       24.399     1400.265     3202.150      595.315        2.240        0.260      195.199       22.958        0.014      334.053        3.770      864.555
05/11/2014  03:52:00      -90.082       92.250      -28.521       41.907       52.264       21.215     1756.220     2731.535      450.088        1.119        0.247      128.937       20.682        0.026      334.056        3.776      864.581
05/11/2014  03:53:00      -72.089       66.520      -11.317       35.294       39.484       28.983     1245.694     1558.968      840.037        0.670        0.182       98.090       24.390        0.062      334.091        3.834      864.590
05/11/2014  03:54:00      -64.851      126.345      -12.605       42.958       50.388       32.289     1845.412     2538.928     1042.607        1.288        0.271      142.016       30.052        0.045      334.038        3.746      864.584
05/11/2014  03:55:00      -53.304      118.778      -20.573       41.856       59.896       25.722     1751.939     3587.590      661.613        1.169        0.300      130.191       25.146        0.037      334.093        3.840      864.575
05/11/2014  03:56:00     -136.694      119.544      -32.652       43.124       81.437       40.134     1859.651     6631.909     1610.757        2.207        0.505      181.593       36.971        0.041      334.062        3.785      864.579
05/11/2014  03:57:00     -123.362      125.084      -34.501       58.689       45.763       33.931     3444.438     2094.274     1151.293        1.937        0.335      175.682       35.569        0.041      334.036        3.743      864.608
05/11/2014  03:58:00     -113.927       88.516      -24.926       50.258       44.856       27.497     2525.828     2012.028      756.076        1.336        0.265      144.272       21.947        0.023      334.029        3.732      864.628
05/11/2014  03:59:00     -135.905      168.422      -37.791       68.136       54.388       31.528     4642.470     2958.052      993.998        2.843        0.430      216.417       34.665        0.026      333.997        3.678      864.662
05/11/2014  04:00:00      -61.250      116.084      -14.440       56.548       55.104       34.064     3197.651     3036.401     1160.358        1.241        0.370      131.252       29.176        0.049      334.011        3.702      864.690
05/11/2014  04:01:00       -3.310      136.104      -20.442       28.729       40.565       23.153      825.357     1645.536      536.075        1.098        0.150      136.144       21.419        0.025      334.035        3.742      864.717
05/11/2014  04:02:00        4.995       79.831       -3.515       53.955       48.027       28.906     2911.098     2306.632      835.535        0.623        0.303       79.987       29.750        0.138      333.903        3.523      864.742
05/11/2014  04:03:00       63.756       54.608        2.095       46.780       26.770       22.045     2188.362      716.655      485.978        0.522        0.170       83.945       20.142        0.058      333.781        3.321      864.761
05/11/2014  04:04:00       83.322       45.152        2.212       39.166       20.529       22.716     1533.949      421.425      516.003        0.573        0.124       94.769       13.228        0.019      333.689        3.169      864.779
05/11/2014  04:05:00       39.208       54.304       16.366       31.120       35.306       28.410      968.469     1246.543      807.121        0.389        0.151       66.978       28.070        0.176      333.642        3.091      864.793
05/11/2014  04:06:00       63.638       40.973       20.724       37.660       20.574       23.332     1418.267      423.286      544.395        0.427        0.119       75.688       19.948        0.069      333.550        2.938      864.809
05/11/2014  04:07:00       83.917       64.288       28.246       28.150       19.836       31.115      792.417      393.475      968.162        0.706        0.108      105.712       19.156        0.033      333.519        2.886      864.801
05/11/2014  04:08:00       64.935       46.653       21.422       23.131       19.600       21.309      535.061      384.151      454.092        0.411        0.069       79.957       14.974        0.035      333.539        2.919      864.808
05/11/2014  04:09:00       62.139       22.215       13.938       22.326       15.377       16.772      498.460      236.438      281.297        0.278        0.051       65.991       12.836        0.038      333.527        2.899      864.822
05/11/2014  04:10:00       39.916       30.913       50.452       29.462       25.898       18.888      867.990      670.724      356.749        0.349        0.095       50.486       17.924        0.126      333.521        2.889      864.845
05/11/2014  04:11:00       46.794       63.920       55.202       27.260       22.093       19.670      743.094      488.115      386.911        0.547        0.081       79.218        7.574        0.009      333.619        3.051      864.873
05/11/2014  04:12:00       69.059       78.260       46.622       30.531       23.464       32.306      932.124      550.543     1043.662        0.780        0.126      104.373       25.446        0.059      333.578        2.985      864.907
05/11/2014  04:13:00       63.048       66.603       46.041       33.983       20.843       28.087     1154.845      434.444      788.878        0.645        0.119       91.712       20.889        0.052      333.595        3.012      864.933
05/11/2014  04:14:00       68.889       69.816       61.914       51.020       31.635       25.829     2603.042     1000.744      667.140        0.886        0.214       98.082       27.472        0.078      333.523        2.893      864.943
05/11/2014  04:15:00       26.238       74.865       86.031       35.791       36.440       21.860     1280.975     1327.866      477.868        0.839        0.154       79.330       21.549        0.074      333.505        2.861      864.959
05/11/2014  04:16:00       56.473       45.841       60.800       46.374       41.538       27.700     2150.560     1725.444      767.266        0.681        0.232       72.736       20.117        0.076      333.460        2.788      864.970
05/11/2014  04:17:00       53.033       35.268       32.946       44.208       38.246       32.217     1954.368     1462.753     1037.908        0.480        0.223       63.689       31.818        0.250      333.446        2.766      864.969
05/11/2014  04:18:00        2.593       38.703       59.597       21.667       31.066       17.100      469.453      965.097      292.411        0.339        0.086       38.790       14.794        0.145      333.489        2.836      864.964
05/11/2014  04:19:00        6.565       26.760       44.175       23.610       27.550       20.990      557.411      759.012      440.597        0.223        0.088       27.553       17.762        0.416      333.485        2.829      864.967
05/11/2014  04:20:00       -1.215       37.356       50.774       20.760       36.333       21.558      430.984     1320.064      464.730        0.309        0.111       37.375       20.189        0.292      333.447        2.767      864.980
05/11/2014  04:21:00       13.768       23.212       41.192       25.625       22.175       20.854      656.617      491.736      434.875        0.200        0.079       26.988       18.664        0.478      333.439        2.754      864.999
05/11/2014  04:22:00       12.517       30.826       38.944       22.537       18.807       16.173      507.899      353.720      261.558        0.187        0.056       33.271       10.699        0.103      333.471        2.806      865.008
05/11/2014  04:23:00        8.511       48.221       63.112       23.896       34.802       18.715      571.004     1211.178      350.234        0.426        0.107       48.967       17.743        0.131      333.480        2.821      865.018
05/11/2014  04:24:00       80.482       31.144       31.637       43.392       29.153       43.340     1882.880      849.891     1878.386        0.653        0.231       86.297       34.418        0.159      333.521        2.890      865.044
05/11/2014  04:25:00       17.444       35.093       50.099       18.545       30.108       19.175      343.906      906.482      367.669        0.283        0.081       39.189       20.870        0.284      333.507        2.867      865.054
05/11/2014  04:26:00       16.088       23.326       34.862       29.941       19.151       18.374      896.493      366.749      337.618        0.181        0.080       28.336       18.361        0.420      333.515        2.881      865.050
05/11/2014  04:27:00       46.162       25.243       38.677       27.011       29.845       20.773      729.571      890.716      431.520        0.316        0.103       52.613       15.131        0.083      333.538        2.918      865.047
05/11/2014  04:28:00       31.130       40.978       29.704       21.349       24.068       16.645      455.784      579.268      277.064        0.242        0.066       51.461        6.387        0.015      333.490        2.839      865.050
05/11/2014  04:29:00        6.289       20.527       22.181       11.548       26.828        7.621      133.358      719.754       58.079        0.093        0.046       21.469        3.100        0.021      333.552        2.941      865.059
05/11/2014  04:30:00       24.089       10.067       22.021       28.057       20.378       18.282      787.190      415.276      334.241        0.135        0.077       26.108       16.211        0.386      333.506        2.866      865.069
05/11/2014  04:31:00       28.623       38.184       32.442       24.314       20.215       15.231      591.182      408.636      231.992        0.228        0.062       47.721        9.130        0.037      333.540        2.920      865.071
05/11/2014  04:32:00       40.362       54.289       48.617       31.953       23.528       23.260     1020.966      553.547      541.005        0.453        0.106       67.649       18.646        0.076      333.515        2.881      865.067
05/11/2014  04:33:00       14.022       53.259       69.279       24.775       30.352       13.941      613.793      921.260      194.358        0.478        0.086       55.074       12.831        0.054      333.490        2.836      865.063
05/11/2014  04:34:00       30.621       59.028       55.203       22.412       21.236       15.103      502.304      450.954      228.099        0.433        0.059       66.498       12.331        0.034      333.506        2.865      865.053
05/11/2014  04:35:00        2.051       46.880       61.892       16.995       23.679       11.767      288.838      560.678      138.464        0.351        0.049       46.925       12.422        0.070      333.439        2.754      865.044
05/11/2014  04:36:00       -7.259       40.440       61.947       10.267       24.946       14.844      105.404      622.311      220.350        0.324        0.047       41.087       12.660        0.095      333.432        2.741      865.046
05/11/2014  04:37:00       13.946       60.948       78.140       39.451       36.061       32.686     1556.419     1300.398     1068.345        0.697        0.196       62.523       31.518        0.254      333.419        2.721      865.062
05/11/2014  04:38:00       44.106       65.881       70.803       39.534       27.160       25.401     1562.968      737.664      645.203        0.712        0.147       79.282       21.961        0.077      333.427        2.734      865.080
05/11/2014  04:39:00       41.840       79.209       75.100       44.886       28.966       34.028     2014.726      839.014     1157.900        0.884        0.201       89.581       30.415        0.115      333.445        2.764      865.102
05/11/2014  04:40:00       64.626       63.434       65.191       27.346       22.954       23.753      747.822      526.908      564.202        0.714        0.092       90.556        7.470        0.007      333.513        2.876      865.104
05/11/2014  04:41:00       48.828       65.565       59.077       26.475       22.215       22.065      700.935      493.499      486.873        0.593        0.084       81.749       11.868        0.021      333.513        2.877      865.119
05/11/2014  04:42:00       48.916       55.089       38.547       38.694       27.161       25.386     1497.211      737.713      644.435        0.490        0.144       73.672       15.368        0.044      333.506        2.863      865.130
05/11/2014  04:43:00       45.393       64.130       57.317       36.451       35.278       27.712     1328.711     1244.502      767.980        0.640        0.167       78.569       19.076        0.059      333.379        2.655      865.138
05/11/2014  04:44:00       10.239       68.083       81.824       23.357       29.054       12.780      545.534      844.108      163.337        0.649        0.078       68.848       12.802        0.035      333.516        2.881      865.126
05/11/2014  04:45:00       29.036       54.219       50.488       28.039       23.227       17.580      786.211      539.476      309.071        0.398        0.082       61.504        8.265        0.018      333.453        2.778      865.130
05/11/2014  04:46:00       51.840       41.972       23.594       16.206       15.094       20.030      262.623      227.844      401.221        0.295        0.045       66.701        9.701        0.021      333.286        2.502      865.150
05/11/2014  04:47:00       43.884       29.290       28.137       17.531       19.242       22.878      307.351      370.239      523.404        0.239        0.060       52.760       12.930        0.060      333.356        2.616      865.154
05/11/2014  04:48:00       15.891        7.283       22.821       16.817       18.938       10.287      282.797      358.642      105.824        0.079        0.037       17.480        4.435        0.064      333.389        2.671      865.146
05/11/2014  04:49:00      -17.234       -1.017        3.402       18.728       13.138        9.329      350.728      172.607       87.031        0.046        0.031       17.264       11.526        0.446      333.364        2.632      865.125
05/11/2014  04:50:00      -61.708        2.078       -6.594       17.993        8.794        8.883      323.756       77.326       78.905        0.217        0.024       61.743        9.137        0.022      333.306        2.535      865.116
05/11/2014  04:51:00      -59.496       -6.200       -4.578       18.890       13.990        8.584      356.819      195.734       73.693        0.211        0.031       59.818        6.492        0.012      333.347        2.601      865.115
05/11/2014  04:52:00      -26.484       -5.677       -8.722       10.942        9.446        4.765      119.732       89.231       22.709        0.052        0.012       27.085        5.575        0.042      333.438        2.752      865.126
05/11/2014  04:53:00      -61.880      -24.135       -7.898       22.919       23.047        8.784      525.259      531.177       77.156        0.280        0.057       66.420        5.933        0.008      333.458        2.786      865.152
05/11/2014  04:54:00      -60.469        6.292      -10.795       19.384       19.106       11.202      375.750      365.044      125.484        0.234        0.043       60.795        9.707        0.025      333.175        2.317      865.174
05/11/2014  04:55:00      -68.645       32.061      -12.469       22.702       17.251       12.094      515.391      297.591      146.261        0.343        0.048       75.763       11.065        0.021      333.339        2.587      865.189
05/11/2014  04:56:00      -77.033       17.674       -9.178       12.538       12.918       11.037      157.214      166.870      121.818        0.339        0.022       79.035        6.393        0.007      333.443        2.760      865.184
05/11/2014  04:57:00      -77.315        9.392       -8.953       14.156       14.893        8.677      200.382      221.795       75.283        0.332        0.025       77.884        5.191        0.004      333.413        2.709      865.187
05/11/2014  04:58:00      -78.714      -13.800       -9.179       16.471       15.939       10.796      271.290      254.057      116.547        0.356        0.032       79.915        6.925        0.008      333.350        2.607      865.183
05/11/2014  04:59:00      -91.023       -5.342      -11.295       20.949       21.205       12.257      438.875      449.670      150.227        0.474        0.052       91.180        7.439        0.007      333.325        2.566      865.182
05/11/2014  05:00:00      -93.277      -27.348       -6.556       24.379       17.530       13.773      594.350      307.316      189.706        0.529        0.055       97.204       11.703        0.014      333.263        2.462      865.182
05/11/2014  05:01:00      -91.957       -6.311      -10.471       29.392       21.692       15.053      863.883      470.551      226.588        0.508        0.078       92.173       12.350        0.018      333.205        2.367      865.192
05/11/2014  05:02:00     -135.619        0.743      -16.106       47.181       24.542       18.609     2226.053      602.303      346.280        1.091        0.159      135.621       20.265        0.022      333.085        2.169      865.206
05/11/2014  05:03:00     -112.558        2.430       -8.914       36.209       28.887       14.432     1311.093      834.434      208.270        0.755        0.118      112.585       12.804        0.013      333.180        2.326      865.215
05/11/2014  05:04:00      -98.724       -5.829       -6.610       28.087       22.294       16.159      788.882      497.006      261.111        0.569        0.077       98.896       12.200        0.015      333.105        2.201      865.223
05/11/2014  05:05:00     -104.738        7.511       -5.652       31.640       26.377       20.280     1001.089      695.734      411.281        0.658        0.105      105.007       11.539        0.012      333.078        2.157      865.231
05/11/2014  05:06:00     -128.451       12.817      -14.797       20.674       26.165       15.701      427.422      684.583      246.525        0.912        0.068      129.089       12.602        0.010      333.162        2.295      865.227
05/11/2014  05:07:00     -101.372       -9.953      -14.150       23.427       19.406       15.263      548.819      376.590      232.951        0.587        0.058      101.860       12.565        0.015      333.158        2.290      865.219
05/11/2014  05:08:00     -105.862      -17.258      -10.002       39.255       19.917       16.142     1540.918      396.679      260.578        0.690        0.110      107.260       18.703        0.030      333.057        2.125      865.225
05/11/2014  05:09:00      -91.032      -20.214       -7.975       24.919       21.987       11.485      620.960      483.431      131.900        0.500        0.062       93.249        9.131        0.010      333.030        2.078      865.227
05/11/2014  05:10:00      -85.781      -14.823       -3.225       34.089       33.786       19.782     1162.040     1141.501      391.343        0.514        0.135       87.052       16.957        0.038      333.031        2.082      865.229
05/11/2014  05:11:00     -122.076        2.814      -15.766       34.190       25.096       18.913     1168.934      629.785      357.684        0.866        0.108      122.108       17.428        0.020      332.925        1.905      865.226
05/11/2014  05:12:00     -141.977       -4.474      -16.584       28.235       19.864       15.702      797.192      394.592      246.561        1.095        0.072      142.047       13.419        0.009      332.887        1.841      865.224
05/11/2014  05:13:00     -141.917       17.506      -19.488       46.456       33.857       16.905     2158.183     1146.330      285.784        1.221        0.180      142.993       17.814        0.016      332.864        1.806      865.227
05/11/2014  05:14:00     -112.528      -19.637       -8.357       19.799       31.963       16.649      392.014     1021.616      277.205        0.740        0.085      114.228       11.184        0.010      332.896        1.858      865.240
05/11/2014  05:15:00     -140.808       11.785      -12.894       33.036       32.578       22.568     1091.402     1061.346      509.329        1.140        0.133      141.300       16.584        0.014      332.872        1.818      865.249
05/11/2014  05:16:00     -141.510       22.521      -13.554       28.823       27.254       17.518      830.745      742.802      306.866        1.130        0.094      143.290        8.703        0.004      332.890        1.849      865.257
05/11/2014  05:17:00     -171.002       35.488      -18.121       33.409       30.715       21.423     1116.177      943.441      458.937        1.667        0.126      174.645       16.921        0.009      332.823        1.736      865.257
05/11/2014  05:18:00     -181.658       40.777      -16.135       28.466       22.151       19.888      810.296      490.667      395.517        1.831        0.085      186.178        7.875        0.002      332.792        1.686      865.262
05/11/2014  05:19:00     -142.126       22.047      -10.314       30.127       33.469       22.201      907.662     1120.150      492.868        1.166        0.126      143.826       13.887        0.009      332.796        1.693      865.240
05/11/2014  05:20:00     -165.847        7.970      -18.161       27.366       30.495       19.312      748.904      929.955      372.970        1.497        0.103      166.038       16.299        0.010      332.792        1.686      865.226
05/11/2014  05:21:00     -127.523      -19.386      -21.062       28.402       36.163       25.235      806.663     1307.759      636.790        0.992        0.138      128.988        8.018        0.004      332.819        1.731      865.224
05/11/2014  05:22:00     -137.377      -18.554      -17.961       43.564       40.487       24.860     1897.786     1639.165      618.012        1.185        0.208      138.624       24.442        0.031      332.766        1.644      865.227
05/11/2014  05:23:00     -122.200      -11.099      -19.081       28.652       39.621       22.323      820.912     1569.850      498.335        0.915        0.144      122.703       11.926        0.009      332.790        1.683      865.235
05/11/2014  05:24:00     -100.931      -14.156      -11.188       27.524       18.814       18.932      757.572      353.974      358.407        0.599        0.073      101.918       12.762        0.016      332.804        1.704      865.250
05/11/2014  05:25:00      -81.923       -3.370      -16.478       23.930       34.463       19.959      572.643     1187.677      398.374        0.458        0.108       81.992        7.882        0.009      332.949        1.945      865.266
05/11/2014  05:26:00      -73.248      -27.914      -13.738       38.325       36.463       16.947     1468.810     1329.519      287.209        0.471        0.154       78.387       14.509        0.034      332.928        1.910      865.277
05/11/2014  05:27:00      -90.031        1.204       -3.554       31.099       28.442       23.608      967.171      808.962      557.333        0.523        0.117       90.039       22.835        0.064      332.937        1.924      865.290
05/11/2014  05:28:00      -92.119       -3.158       -7.142       24.961       18.722       15.557      623.034      350.524      242.016        0.488        0.061       92.173        8.026        0.008      332.963        1.968      865.291
05/11/2014  05:29:00      -92.044      -16.655      -12.631       29.015       21.093       17.006      841.887      444.907      289.194        0.524        0.079       93.538       13.665        0.021      332.771        1.652      865.288
05/11/2014  05:30:00     -126.756      -18.748      -14.451       26.828       20.153       15.989      719.766      406.142      255.653        0.900        0.069      128.135       10.963        0.007      332.780        1.665      865.278
05/11/2014  05:31:00     -145.397      -17.074      -15.247       21.956       25.686       21.055      482.052      659.746      443.293        1.162        0.079      146.396       14.276        0.010      332.599        1.365      865.255
05/11/2014  05:32:00     -134.662        0.112      -16.371       32.937       26.415       21.453     1084.854      697.757      460.221        1.032        0.112      134.662       20.852        0.024      332.543        1.274      865.242
05/11/2014  05:33:00     -149.729       30.202      -16.944       32.667       31.555       16.220     1067.123      995.687      263.076        1.297        0.116      152.745       11.546        0.006      332.620        1.399      865.240
05/11/2014  05:34:00     -165.026       15.404      -16.815       15.064       20.732       11.158      226.923      429.800      124.494        1.427        0.039      165.743        2.584        0.000      332.664        1.473      865.240
05/11/2014  05:35:00     -148.493       14.745      -15.863       24.221       23.845       16.352      586.641      568.566      267.373        1.197        0.071      149.223       13.490        0.008      332.627        1.412      865.244
05/11/2014  05:36:00     -142.972        6.204      -13.607       20.632       22.356       13.787      425.683      499.803      190.069        1.089        0.056      143.107       10.029        0.005      332.649        1.448      865.235
05/11/2014  05:37:00     -145.567      -16.068      -19.071       26.324       29.190       20.971      692.949      852.041      439.793        1.190        0.099      146.451       16.793        0.013      332.657        1.462      865.234
05/11/2014  05:38:00      -83.583      -27.592       -3.878       37.115       30.004       26.321     1377.559      900.261      692.786        0.537        0.149       88.019       18.531        0.044      332.589        1.350      865.233
05/11/2014  05:39:00     -136.677       -1.853      -16.088       31.678       31.285       23.541     1003.486      978.756      554.169        1.074        0.127      136.689       20.570        0.023      332.654        1.457      865.240
05/11/2014  05:40:00     -151.793        3.600      -11.714       23.516       26.296       23.530      553.021      691.471      553.653        1.249        0.090      151.836       16.438        0.012      332.695        1.526      865.243
05/11/2014  05:41:00     -121.395       -4.341      -18.662       31.458       30.908       19.114      989.582      955.332      365.334        0.871        0.116      121.473       14.498        0.014      332.744        1.606      865.243
05/11/2014  05:42:00     -150.336        5.926      -20.128       24.217       17.869       12.423      586.466      319.306      154.320        1.205        0.053      150.453        9.800        0.004      332.750        1.616      865.245
05/11/2014  05:43:00     -129.583       -5.124      -11.002       30.243       24.993       14.979      914.655      624.668      224.360        0.935        0.088      129.684       11.087        0.007      332.761        1.635      865.252
05/11/2014  05:44:00     -144.415      -12.986      -18.691       25.857       24.431       18.151      668.603      596.863      329.444        1.148        0.080      144.998       15.908        0.012      332.917        1.892      865.243
05/11/2014  05:45:00     -132.299       -5.523      -11.055       35.322       22.572       17.459     1247.666      509.504      304.811        0.986        0.103      132.415       17.561        0.018      332.902        1.867      865.224
05/11/2014  05:46:00     -152.024      -11.707      -22.791       20.191       19.226       13.835      407.696      369.635      191.399        1.237        0.048      152.475        6.058        0.002      332.849        1.780      865.206
05/11/2014  05:47:00     -165.019       -9.372      -19.725       21.710       23.313       21.975      471.310      543.489      482.902        1.460        0.075      165.285       16.250        0.010      332.852        1.784      865.206
05/11/2014  05:48:00     -152.815       -2.937      -18.810       36.044       25.638       20.512     1299.171      657.318      420.735        1.305        0.119      152.843       20.848        0.019      332.746        1.610      865.209
05/11/2014  05:49:00     -172.125      -27.138      -24.739       33.828       35.336       20.052     1144.356     1248.600      402.098        1.688        0.140      174.251       10.405        0.004      332.652        1.454      865.215
05/11/2014  05:50:00     -121.249      -41.528      -12.682       33.335       44.203       22.455     1111.232     1953.897      504.247        1.008        0.178      128.163       17.956        0.020      332.604        1.376      865.208
05/11/2014  05:51:00     -107.557      -38.507       -1.254       36.300       34.535       23.813     1317.676     1192.649      567.074        0.806        0.154      114.242       18.288        0.026      332.759        1.630      865.204
05/11/2014  05:52:00     -103.074      -14.879       -9.546       30.620       27.856       20.827      937.573      775.965      433.755        0.654        0.107      104.142       11.085        0.011      332.876        1.824      865.216
05/11/2014  05:53:00      -84.992       -5.392      -10.090       28.732       24.088       18.674      825.523      580.222      348.728        0.455        0.088       85.163       12.645        0.022      332.904        1.871      865.217
05/11/2014  05:54:00     -112.274       -2.656       -7.976       29.009       31.788       18.544      841.549     1010.489      343.870        0.744        0.110      112.305       14.523        0.017      332.953        1.950      865.208
05/11/2014  05:55:00     -109.401       -7.002       -9.050       26.023       33.207       20.681      677.175     1102.678      427.724        0.715        0.110      109.625       16.203        0.022      333.055        2.119      865.203
05/11/2014  05:56:00      -91.489      -18.006       -7.683       28.721       42.902       24.493      824.909     1840.591      599.888        0.601        0.163       93.244       11.582        0.015      333.062        2.132      865.205
05/11/2014  05:57:00      -66.317       18.891      -16.723       25.359       47.415       20.822      643.102     2248.220      433.561        0.418        0.166       68.955       18.919        0.075      333.139        2.258      865.215
05/11/2014  05:58:00      -76.687        6.406      -11.171       38.294       35.103       23.397     1466.466     1232.215      547.404        0.465        0.162       76.954       14.834        0.037      333.131        2.246      865.227
05/11/2014  05:59:00      -76.107        6.318       -9.872       37.700       36.849       23.280     1421.257     1357.861      541.953        0.462        0.166       76.369       17.117        0.050      333.064        2.135      865.228
05/11/2014  06:00:00     -108.557      105.414      -32.086       28.514       59.674       23.128      813.020     3560.997      534.891        1.442        0.245      151.317       17.092        0.013      333.253        2.446      865.233
05/11/2014  06:01:00      -71.561       57.288       -6.676       28.799       56.473       21.185      829.386     3189.153      448.811        0.646        0.223       91.667       14.584        0.025      333.242        2.427      865.237
05/11/2014  06:02:00     -106.825       81.982      -26.319       28.193       45.499       22.770      794.852     2070.200      518.485        1.110        0.169      134.658       21.779        0.026      333.249        2.440      865.251
05/11/2014  06:03:00     -109.294       88.942      -20.274       33.275       54.204       32.358     1107.225     2938.067     1047.025        1.268        0.255      140.911       28.274        0.040      333.356        2.618      865.245
05/11/2014  06:04:00      -94.504       93.467      -18.006       33.296       67.134       33.193     1108.605     4507.036     1101.801        1.235        0.336      132.918       33.593        0.064      333.353        2.612      865.228
05/11/2014  06:05:00     -117.890       97.179      -25.563       38.022       40.697       23.986     1445.635     1656.217      575.335        1.384        0.184      152.780       16.743        0.012      333.431        2.740      865.207
05/11/2014  06:06:00     -101.316       48.720      -20.295       33.892       34.194       26.488     1148.681     1169.232      701.614        0.803        0.151      112.421       20.174        0.032      333.391        2.675      865.203
05/11/2014  06:07:00     -107.013       45.528      -12.627       28.233       36.313       21.347      797.085     1318.632      455.684        0.813        0.129      116.295       11.235        0.009      333.397        2.684      865.208
05/11/2014  06:08:00     -108.615       26.670      -18.485       45.842       54.506       28.414     2101.463     2970.868      807.374        0.936        0.294      111.841       28.284        0.064      333.361        2.625      865.219
05/11/2014  06:09:00     -130.493       76.964      -22.497       45.983       45.852       28.203     2114.424     2102.446      795.429        1.423        0.251      151.498       16.751        0.012      333.357        2.618      865.230
05/11/2014  06:10:00      -73.116        8.993       -5.973       33.498       41.557       22.776     1122.118     1726.980      518.768        0.441        0.168       73.667       23.535        0.102      333.305        2.534      865.236
05/11/2014  06:11:00     -137.705       30.260      -15.172       44.084       51.981       28.434     1943.361     2701.998      808.512        1.278        0.273      140.991       21.676        0.024      333.394        2.679      865.220
05/11/2014  06:12:00     -122.436       85.556      -23.262       51.003       69.586       35.088     2601.343     4842.233     1231.133        1.576        0.434      149.366       33.847        0.051      333.478        2.818      865.213
05/11/2014  06:13:00      -51.953       72.192        4.863       39.257       64.498       34.628     1541.141     4160.003     1199.107        0.742        0.345       88.942       22.228        0.062      333.531        2.906      865.209
05/11/2014  06:14:00      -39.839       37.254       -2.455       28.446       44.008       18.476      809.160     1936.687      341.368        0.303        0.154       54.544       20.049        0.135      333.465        2.795      865.219
05/11/2014  06:15:00      -74.220       53.721      -10.776       35.593       39.521       24.547     1266.869     1561.875      602.546        0.597        0.172       91.622       21.699        0.056      333.477        2.815      865.232
05/11/2014  06:16:00     -100.224      101.749      -18.846       42.693       60.327       32.234     1822.656     3639.337     1039.009        1.363        0.325      142.821       29.888        0.044      333.567        2.967      865.244
05/11/2014  06:17:00     -102.743      115.437       -7.660       51.752       66.128       41.976     2678.275     4372.973     1761.981        1.638        0.441      154.538       38.285        0.061      333.590        3.004      865.242
05/11/2014  06:18:00     -106.641      110.203      -17.995       39.706       72.255       31.721     1576.537     5220.813     1006.248        1.582        0.390      153.352       33.637        0.048      333.569        2.968      865.239
05/11/2014  06:19:00      -80.692      138.400      -23.461       45.044       64.255       25.590     2029.005     4128.734      654.845        1.651        0.341      160.205       29.507        0.034      333.589        3.001      865.239
05/11/2014  06:20:00      -78.239       85.299      -26.323       27.320       31.750       15.425      746.399     1008.055      237.930        0.804        0.100      115.747       14.093        0.015      333.552        2.943      865.260
05/11/2014  06:21:00      -94.035      144.447      -29.308       43.939       42.444       27.889     1930.601     1801.477      777.796        1.754        0.225      172.358       24.456        0.020      333.586        2.997      865.286
05/11/2014  06:22:00      -88.714      145.349      -21.994       45.406       53.373       32.040     2061.688     2848.677     1026.583        1.771        0.297      170.284       32.316        0.036      333.600        3.020      865.314
05/11/2014  06:23:00      -98.371      150.831      -27.126       31.487       47.275       22.859      991.411     2234.912      522.526        1.846        0.187      180.075       15.256        0.007      333.635        3.078      865.327
05/11/2014  06:24:00      -82.374       85.916      -18.772       35.473       38.610       20.655     1258.350     1490.708      426.638        0.885        0.159      119.026       17.993        0.023      333.655        3.112      865.318
05/11/2014  06:25:00      -80.677       96.869      -19.713       44.129       43.652       31.968     1947.375     1905.494     1021.923        1.058        0.244      126.065       27.010        0.046      333.701        3.187      865.311
05/11/2014  06:26:00     -102.651      107.871      -20.499       51.907       57.208       27.466     2694.361     3272.716      754.366        1.466        0.336      148.907       22.904        0.024      333.757        3.280      865.287
05/11/2014  06:27:00      -66.645       94.672      -10.155       45.558       44.575       29.822     2075.549     1986.920      889.323        0.923        0.248      115.777       30.843        0.071      333.816        3.378      865.266
05/11/2014  06:28:00      -44.527       64.876       -1.312       31.079       58.040       26.263      965.877     3368.699      689.738        0.561        0.251       78.686       26.750        0.116      333.784        3.327      865.267
05/11/2014  06:29:00      -92.053      119.875      -20.699       46.684       59.069       26.104     2179.357     3489.091      681.441        1.481        0.317      151.142       20.534        0.018      333.769        3.298      865.281
05/11/2014  06:30:00      -87.951       98.562      -25.114       25.223       40.892       21.809      636.193     1672.186      475.632        1.043        0.139      132.098       13.638        0.011      333.805        3.359      865.294
05/11/2014  06:31:00     -102.953      154.438      -29.582       33.574       52.640       25.812     1127.221     2771.019      666.271        1.994        0.228      185.609       23.445        0.016      333.842        3.420      865.324
05/11/2014  06:32:00      -79.862      116.219      -17.866       37.920       44.980       27.022     1437.938     2023.232      730.205        1.220        0.210      141.013       20.866        0.022      333.820        3.385      865.349
05/11/2014  06:33:00      -48.391       93.573       -6.106       39.954       41.105       31.254     1596.320     1689.624      976.804        0.770        0.213      105.345       18.478        0.031      333.965        3.626      865.365
05/11/2014  06:34:00     -103.716       67.662      -17.688       34.156       38.712       21.061     1166.622     1498.654      443.582        0.938        0.155      123.835       20.943        0.029      333.928        3.565      865.388
05/11/2014  06:35:00      -70.659       87.464      -26.708       27.143       42.084       24.067      736.768     1771.053      579.238        0.822        0.154      112.439        9.703        0.007      333.934        3.575      865.391
05/11/2014  06:36:00      -70.080       81.351      -20.900       32.751       37.481       21.786     1072.641     1404.788      474.638        0.746        0.148      107.374       20.413        0.036      334.013        3.705      865.396
05/11/2014  06:37:00      -13.607       65.187      -14.873       31.271       32.439       23.471      977.884     1052.320      550.864        0.362        0.129       66.592       19.116        0.082      334.152        3.936      865.421
05/11/2014  06:38:00       -5.457       28.708        5.207       24.965       46.014       20.771      623.269     2117.262      431.453        0.203        0.159       29.222       17.004        0.339      334.195        4.008      865.437
05/11/2014  06:39:00       19.497       32.659        4.516       16.220       20.307       20.188      263.092      412.356      407.543        0.127        0.054       38.036       11.625        0.093      334.209        4.031      865.474
05/11/2014  06:40:00        2.184       12.385       36.178       17.795       36.922       19.402      316.676     1363.260      376.442        0.176        0.103       12.576        8.111        0.416      334.353        4.271      865.520
05/11/2014  06:41:00       34.935      -53.892       17.378       60.427       66.670       45.398     3651.400     4444.884     2061.005        0.729        0.508       64.225       37.133        0.334      334.248        4.095      865.569
05/11/2014  06:42:00       48.386      -38.460       33.406       60.686       80.708       72.588     3682.802     6513.850     5269.083        1.020        0.773       61.809       64.100        1.075      334.048        3.763      865.594
05/11/2014  06:43:00       72.618     -116.162       -1.285       60.698       73.588       47.722     3684.300     5415.263     2277.369        1.507        0.569      136.993       51.629        0.142      333.767        3.297      865.632
05/11/2014  06:44:00       40.147      -26.359       15.342       57.879       66.671       59.443     3349.972     4445.008     3533.444        0.693        0.566       48.027       48.257        1.010      333.887        3.497      865.648
05/11/2014  06:45:00       17.142       53.763       78.503       46.511       41.197       31.572     2163.261     1697.158      996.806        0.710        0.243       56.430       29.779        0.278      333.726        3.229      865.672
05/11/2014  06:46:00       41.264       10.000       61.546       61.598      108.513       48.084     3794.360    11775.130     2312.117        1.173        0.894       42.459       66.060        2.421      333.675        3.145      865.681
05/11/2014  06:47:00       90.065      -90.049        4.282       62.361       78.525       57.219     3888.914     6166.114     3273.994        1.478        0.666      127.360       56.995        0.200      333.694        3.177      865.700
05/11/2014  06:48:00       95.958     -140.405       -9.896       86.115       89.323       71.048     7415.816     7978.584     5047.837        2.473        1.022      170.064       65.538        0.149      333.644        3.090      865.721
05/11/2014  06:49:00      121.256     -146.232        2.448       82.699       96.366       57.642     6839.061     9286.499     3322.614        2.777        0.972      189.966       70.537        0.138      333.849        3.430      865.751
05/11/2014  06:50:00       75.952     -174.696      -18.931       67.209       85.675       52.488     4517.040     7340.197     2754.966        2.563        0.731      190.493       35.955        0.036      333.877        3.477      865.772
05/11/2014  06:51:00      133.360     -208.264      -44.086       83.767      101.281       54.925     7016.976    10257.847     3016.805        4.169        1.015      247.304       37.684        0.023      333.794        3.340      865.754
05/11/2014  06:52:00      117.147     -164.951      -11.710       78.050       91.002       62.606     6091.757     8281.275     3919.523        2.968        0.915      202.317       59.243        0.086      333.795        3.340      865.763
05/11/2014  06:53:00       82.561     -123.057       -7.647       77.487       90.917       64.864     6004.296     8265.878     4207.319        2.024        0.924      148.187       58.971        0.158      333.895        3.506      865.773
05/11/2014  06:54:00       -7.382       40.273      101.909       44.335       50.363       40.438     1965.596     2536.383     1635.266        0.910        0.307       40.944       28.665        0.490      334.034        3.739      865.763
05/11/2014  06:55:00      -11.369       20.371       83.434       33.682       53.134       26.590     1134.471     2823.239      707.013        0.608        0.233       23.328       23.875        1.047      334.009        3.698      865.760
05/11/2014  06:56:00       -0.636      -13.037       27.485       41.093       60.788       37.704     1688.608     3695.185     1421.599        0.386        0.340       13.052       34.631        7.040      333.871        3.471      865.757
05/11/2014  06:57:00        4.703        5.671       69.368       24.136       25.128       19.997      582.535      631.415      399.899        0.324        0.081        7.368       14.095        3.660      334.255        4.108      865.760
05/11/2014  06:58:00       15.462       13.035       54.447       35.460       38.526       35.612     1257.440     1484.252     1268.199        0.369        0.200       20.224       28.068        1.926      334.179        3.981      865.788
05/11/2014  06:59:00        1.524       -0.215       34.755       20.153       39.312       23.004      406.160     1545.460      529.162        0.185        0.124        1.539       21.800      200.750      334.250        4.101      865.817
05/11/2014  07:00:00       16.046      -22.586       32.899       45.638       42.211       38.413     2082.795     1781.758     1475.550        0.359        0.267       27.706       31.058        1.257      334.123        3.888      865.824
05/11/2014  07:01:00       38.516      -82.586       -4.153       45.196       62.983       46.987     2042.714     3966.844     2207.737        0.827        0.411       91.125       39.446        0.187      334.110        3.866      865.822
05/11/2014  07:02:00       34.408      -49.725       -1.002       49.252       56.722       42.327     2425.793     3217.437     1791.607        0.554        0.372       60.469       37.802        0.391      334.094        3.839      865.820
05/11/2014  07:03:00       25.402       -7.631       50.834       48.389       56.225       42.059     2341.495     3161.224     1768.963        0.528        0.364       26.524       41.115        2.403      334.165        3.958      865.814
05/11/2014  07:04:00       47.583       39.984       61.483       54.554       42.366       39.865     2976.172     1794.837     1589.213        0.700        0.318       62.152       39.687        0.408      334.097        3.845      865.814
05/11/2014  07:05:00       25.498        3.408       58.396       47.401       61.347       43.627     2246.880     3763.402     1903.313        0.599        0.396       25.725       48.555        3.563      334.242        4.086      865.823
05/11/2014  07:06:00       76.148      -66.883       18.707       55.021       56.053       46.059     3027.306     3141.943     2121.387        0.945        0.415      101.350       33.900        0.112      334.136        3.910      865.830
05/11/2014  07:07:00       68.082        5.370       50.327       80.287       70.497       51.744     6446.066     4969.876     2677.465        1.064        0.705       68.293       61.078        0.800      334.200        4.015      865.835
05/11/2014  07:08:00       43.633        1.496       41.931       61.558       61.850       49.869     3789.404     3825.422     2486.951        0.688        0.505       43.659       50.067        1.315      334.162        3.951      865.845
05/11/2014  07:09:00       58.965      -46.518       24.780       72.430       77.658       49.119     5246.169     6030.741     2412.684        0.997        0.684       75.105       54.184        0.520      334.243        4.088      865.826
05/11/2014  07:10:00       22.978      -17.202       38.501       41.001       51.689       36.518     1681.063     2671.738     1333.585        0.400        0.284       28.703       20.927        0.532      334.327        4.228      865.828
05/11/2014  07:11:00       35.458       -3.363       33.227       47.454       43.694       39.517     2251.835     1909.169     1561.561        0.405        0.286       35.617       34.660        0.947      334.421        4.382      865.822
05/11/2014  07:12:00        4.910       63.779       76.978       31.468       42.227       25.689      990.229     1783.106      659.948        0.672        0.172       63.968       23.598        0.136      334.255        4.108      865.822
05/11/2014  07:13:00       36.422       26.761       64.639       40.183       54.736       30.728     1614.641     2996.070      944.211        0.589        0.278       45.196       26.249        0.337      334.201        4.019      865.813
05/11/2014  07:14:00       67.777      -65.293       20.360       73.502       64.756       48.968     5402.503     4193.290     2397.841        1.063        0.600       94.111       58.264        0.383      334.350        4.265      865.796
05/11/2014  07:15:00       30.706        5.144       61.895       48.828       74.267       51.504     2384.166     5515.538     2652.660        0.767        0.528       31.134       60.582        3.786      334.397        4.343      865.789
05/11/2014  07:16:00       14.707       79.816       94.549       34.197       50.593       27.616     1169.438     2559.653      762.668        1.001        0.225       81.160       23.819        0.086      334.293        4.169      865.770
05/11/2014  07:17:00       18.921       77.139       89.534       45.122       55.972       39.789     2035.952     3132.853     1583.200        1.054        0.338       79.426       36.598        0.212      334.452        4.433      865.761
05/11/2014  07:18:00       17.688       62.623       98.288       58.294       55.081       41.690     3398.132     3033.957     1738.073        1.103        0.409       65.073       36.462        0.314      334.372        4.301      865.760
05/11/2014  07:19:00       50.954       10.202       39.340       64.716       72.388       47.695     4188.133     5240.090     2274.851        0.797        0.585       51.966       48.358        0.866      334.447        4.426      865.747
05/11/2014  07:20:00      108.730      -97.736        1.345       49.504       68.970       48.765     2450.609     4756.915     2378.044        1.548        0.479      146.200       27.783        0.036      334.404        4.352      865.727
05/11/2014  07:21:00       88.720      -81.951        2.555       67.889       69.240       51.296     4608.952     4794.184     2631.291        1.331        0.602      120.778       47.530        0.155      334.406        4.357      865.721
05/11/2014  07:22:00      142.617     -114.576      -40.916       85.455       89.664       53.831     7302.499     8039.664     2897.757        2.669        0.912      182.940       60.524        0.109      334.275        4.138      865.703
05/11/2014  07:23:00       76.804      -43.697        7.819       64.175       62.484       42.081     4118.382     3904.196     1770.820        0.883        0.490       88.364       49.461        0.313      334.376        4.309      865.715
05/11/2014  07:24:00       72.526      -21.940       28.982       65.720       59.540       44.914     4319.087     3545.056     2017.241        0.823        0.494       75.772       51.286        0.458      334.485        4.489      865.722
05/11/2014  07:25:00       29.595       37.375       58.913       40.017       37.688       37.099     1601.352     1420.370     1376.363        0.507        0.220       47.674       26.077        0.299      334.475        4.472      865.716
05/11/2014  07:26:00       -2.188       19.967       58.514       23.943       41.713       25.393      573.269     1739.985      644.817        0.339        0.148       20.086       24.803        1.525      334.930        5.228      865.705
05/11/2014  07:27:00       -9.312       18.374       38.289       36.180       39.665       29.212     1308.988     1573.324      853.357        0.281        0.187       20.599       24.185        1.378      334.624        4.721      865.696
05/11/2014  07:28:00        8.759       35.262       59.310       34.662       30.277       26.626     1201.449      916.719      708.944        0.383        0.141       36.333       16.679        0.211      334.765        4.954      865.681
05/11/2014  07:29:00       58.991       55.733       57.462       58.911       42.953       32.629     3470.556     1844.986     1064.639        0.813        0.319       81.155       24.819        0.094      334.513        4.536      865.679
05/11/2014  07:30:00       85.257      100.765       81.624       63.979       37.370       37.840     4093.365     1396.538     1431.856        1.550        0.346      131.994       33.610        0.065      334.213        4.037      865.680
05/11/2014  07:31:00       75.130       74.772       60.170       49.053       44.818       36.967     2406.207     2008.673     1366.574        1.032        0.289      105.997       27.960        0.070      334.349        4.261      865.695
05/11/2014  07:32:00       84.560       80.891       64.074       52.925       35.271       35.708     2801.017     1244.026     1275.060        1.156        0.266      117.020       21.331        0.033      334.425        4.388      865.701
05/11/2014  07:33:00       65.109       93.659       82.749       46.737       36.446       26.548     2184.331     1328.304      704.820        1.204        0.211      114.067       20.642        0.033      334.352        4.267      865.715
05/11/2014  07:34:00      -10.460       30.245       54.842       27.251       36.720       30.989      742.611     1348.323      960.307        0.354        0.153       32.002       27.624        0.745      334.772        4.965      865.717
05/11/2014  07:35:00      -10.951        7.264       48.514       24.852       32.871       24.772      617.643     1080.473      613.662        0.242        0.116       13.141       21.878        2.772      335.148        5.591      865.716
05/11/2014  07:36:00        7.907      -37.872       35.766       29.994       64.450       46.677      899.657     4153.814     2178.749        0.500        0.362       38.689       42.728        1.220      334.849        5.093      865.723
05/11/2014  07:37:00       18.963       46.687       67.695       36.957       47.063       33.286     1365.805     2214.971     1107.929        0.590        0.234       50.391       36.636        0.529      334.703        4.851      865.725
05/11/2014  07:38:00       34.003       26.782       56.017       46.620       64.890       42.291     2173.460     4210.699     1788.489        0.659        0.409       43.284       50.065        1.338      334.717        4.873      865.720
05/11/2014  07:39:00       63.465       75.364       88.997       65.884       46.713       50.683     4340.734     2182.090     2568.804        1.336        0.455       98.527       51.899        0.277      334.532        4.566      865.703
05/11/2014  07:40:00       94.292       66.124       35.019       30.179       23.313       24.328      910.759      543.512      591.844        0.827        0.102      115.166       15.214        0.017      334.349        4.265      865.692
05/11/2014  07:41:00       55.237       73.391       61.634       44.657       37.576       29.578     1994.242     1411.921      874.878        0.826        0.214       91.855       18.290        0.040      334.663        4.784      865.692
05/11/2014  07:42:00       75.723       67.549       31.137       37.553       23.867       29.028     1410.233      569.622      842.646        0.704        0.141      101.473        8.494        0.007      334.508        4.528      865.701
05/11/2014  07:43:00       79.480       73.068       36.292       46.201       30.267       43.364     2134.548      916.074     1880.457        0.895        0.247      107.963       20.255        0.035      334.620        4.713      865.693
05/11/2014  07:44:00       76.472       47.383       11.310       32.229       24.696       26.566     1038.715      609.879      705.769        0.529        0.118       89.962       14.367        0.026      334.389        4.330      865.691
05/11/2014  07:45:00       16.437       65.598       61.339       52.879       36.831       40.437     2796.226     1356.529     1635.117        0.706        0.289       67.626       26.726        0.156      334.970        5.294      865.689
05/11/2014  07:46:00       58.365       40.974        7.590       32.878       25.499       32.005     1080.932      650.186     1024.298        0.395        0.138       71.311       15.861        0.049      334.658        4.775      865.707
05/11/2014  07:47:00       61.540       29.293       -5.704       28.684       26.818       26.498      822.782      719.202      702.167        0.346        0.112       68.156       16.716        0.060      334.658        4.776      865.716
05/11/2014  07:48:00       28.876       42.476       25.786       22.440       21.749       23.415      503.575      473.036      548.253        0.241        0.076       51.362       15.213        0.088      334.855        5.104      865.735
05/11/2014  07:49:00       38.665       28.520       40.323       40.582       53.643       33.443     1646.885     2877.576     1118.465        0.479        0.282       48.045       27.850        0.336      335.158        5.607      865.749
05/11/2014  07:50:00       15.144      -19.298       39.896       28.253       59.612       33.520      798.248     3553.587     1123.596        0.383        0.274       24.531       20.808        0.720      335.257        5.771      865.764
05/11/2014  07:51:00       29.844      -52.667       32.770       32.053       48.095       31.179     1027.370     2313.166      972.145        0.452        0.216       60.534       19.661        0.105      335.292        5.830      865.788
05/11/2014  07:52:00       12.429       44.155       72.014       23.657       37.659       19.572      559.663     1418.185      383.062        0.483        0.118       45.871       17.560        0.147      335.283        5.815      865.812
05/11/2014  07:53:00       21.420      -68.725       -4.616       53.516       55.748       38.293     2864.005     3107.883     1466.363        0.632        0.372       71.986       37.570        0.272      335.151        5.594      865.829
05/11/2014  07:54:00       32.331      -43.824        6.526       42.812       40.764       39.013     1832.892     1661.663     1522.013        0.401        0.251       54.459       29.726        0.298      335.275        5.801      865.858
05/11/2014  07:55:00        3.627       34.746       64.667       35.771       33.712       32.431     1279.598     1136.518     1051.779        0.443        0.173       34.935       20.987        0.361      335.464        6.115      865.878
05/11/2014  07:56:00       -2.255       24.436       79.788       27.396       40.133       18.615      750.567     1610.645      346.530        0.484        0.135       24.539       12.787        0.272      335.621        6.377      865.895
05/11/2014  07:57:00      -24.708      -15.665       22.536       33.782       25.106       30.066     1141.243      630.302      903.952        0.202        0.134       29.256       24.362        0.693      335.239        5.741      865.913
05/11/2014  07:58:00      -18.507      -42.864        7.390       50.864       40.984       29.212     2587.139     1679.657      853.364        0.368        0.256       46.688       13.758        0.087      335.251        5.762      865.917
05/11/2014  07:59:00       15.189       39.595       82.384       42.100      105.936       58.800     1772.374    11222.417     3457.483        1.252        0.823       42.408       73.725        3.022      335.110        5.526      865.910
05/11/2014  08:00:00       62.978       20.863       51.337       56.591       51.148       38.091     3202.528     2616.158     1450.888        0.715        0.363       66.344       29.095        0.192      335.301        5.843      865.910
05/11/2014  08:01:00       39.179      -45.184       23.356       35.699       59.171       39.612     1274.419     3501.170     1569.078        0.523        0.317       59.804       35.690        0.356      335.173        5.631      865.895
05/11/2014  08:02:00       42.429      -16.986        1.758       32.886       43.185       31.464     1081.507     1864.966      989.999        0.301        0.197       45.703       25.770        0.318      335.409        6.024      865.881
05/11/2014  08:03:00       10.833     -100.827       -3.628       68.088       62.615       40.170     4635.972     3920.669     1613.659        1.023        0.509      101.407       40.063        0.156      335.376        5.967      865.862
05/11/2014  08:04:00       58.588      -99.626      -24.274       71.333       77.898       38.278     5088.346     6068.171     1465.196        1.328        0.631      115.576       43.428        0.141      334.926        5.219      865.853
05/11/2014  08:05:00      -88.230       20.748        4.038       60.736       34.841       20.819     3688.832     1213.878      433.432        0.678        0.267       90.637       13.777        0.023      334.911        5.196      865.818
05/11/2014  08:06:00       -8.486       -1.812       36.726       20.300       40.133       35.025      412.086     1610.649     1226.725        0.234        0.162        8.678       31.404       13.097      335.901        6.844      865.823
05/11/2014  08:07:00        2.619       35.416       92.975       50.022       79.879       39.555     2502.154     6380.719     1564.591        1.017        0.522       35.512       45.028        1.608      335.661        6.444      865.839
05/11/2014  08:08:00       -5.476      -51.111       23.223       45.194       63.552       42.834     2042.467     4038.802     1834.730        0.555        0.396       51.404       29.601        0.332      335.606        6.352      865.857
05/11/2014  08:09:00       24.346       -6.677       43.964       56.635       77.000       56.330     3207.528     5928.940     3173.084        0.744        0.615       25.245       59.227        5.504      335.724        6.550      865.860
05/11/2014  08:10:00        6.413      -28.446       36.751       25.194       55.972       34.878      634.718     3132.837     1216.481        0.359        0.249       29.160       29.956        1.055      335.852        6.761      865.866
05/11/2014  08:11:00       37.277      -11.533       62.928       47.409       50.792       31.581     2247.599     2579.829      997.384        0.565        0.291       39.020       31.150        0.637      335.843        6.746      865.872
05/11/2014  08:12:00       52.129      -93.128       18.675       56.036       60.776       35.889     3139.991     3693.704     1288.033        0.993        0.406      106.725       34.932        0.107      335.403        6.013      865.868
05/11/2014  08:13:00       74.972     -131.830      -20.518       59.379       68.552       44.416     3525.830     4699.405     1972.804        1.681        0.510      151.657       34.769        0.053      335.237        5.737      865.865
05/11/2014  08:14:00       13.824      -33.019       23.994       36.989       50.066       41.304     1368.210     2506.633     1706.000        0.372        0.279       35.796       39.194        1.199      335.637        6.405      865.871
05/11/2014  08:15:00       22.084       62.912      114.850       72.132       73.701       46.230     5203.011     5431.810     2137.229        1.520        0.639       66.675       49.603        0.553      335.409        6.023      865.883
05/11/2014  08:16:00       73.662       12.516       71.856       82.099       94.618       56.999     6740.324     8952.476     3248.837        1.484        0.947       74.718       66.007        0.780      335.366        5.952      865.905
05/11/2014  08:17:00       74.709       26.649       75.392       58.395       78.540       51.470     3409.920     6168.489     2649.160        1.210        0.611       79.320       57.115        0.518      335.457        6.104      865.918
05/11/2014  08:18:00       36.701       35.382       46.482       62.507       78.521       46.795     3907.142     6165.509     2189.779        0.851        0.613       50.979       40.322        0.626      335.526        6.219      865.936
05/11/2014  08:19:00       29.748       -2.100       24.363       62.558       57.421       50.409     3913.472     3297.126     2541.017        0.562        0.488       29.823       41.941        1.978      335.707        6.521      865.956
05/11/2014  08:20:00       20.315       31.011       32.145       32.196       36.312       26.513     1036.563     1318.546      702.922        0.273        0.153       37.073       18.384        0.246      335.733        6.564      865.960
05/11/2014  08:21:00       21.223       41.994       17.206       49.404       41.773       28.509     2440.751     1744.964      812.740        0.375        0.250       47.053       24.401        0.269      335.749        6.590      865.966
05/11/2014  08:22:00       70.643       62.592       43.124       44.276       39.844       41.696     1960.394     1587.547     1738.550        0.803        0.264       94.383       26.425        0.078      335.706        6.518      865.955
05/11/2014  08:23:00       86.029      -42.356       19.311       77.642      101.880       51.055     6028.228    10379.589     2606.593        1.429        0.951       95.891       52.180        0.296      335.491        6.160      865.947
05/11/2014  08:24:00       96.871     -101.241       17.107       70.630       65.475       62.593     4988.527     4287.040     3917.921        1.656        0.660      140.120       50.805        0.131      335.666        6.450      865.947
05/11/2014  08:25:00       93.268     -111.389       -8.205       68.473      100.673       67.492     4688.608    10135.153     4555.224        2.027        0.969      145.280       65.793        0.205      335.479        6.139      865.948
05/11/2014  08:26:00       29.686       11.696       45.630       47.514       68.983       47.159     2257.600     4758.630     2223.952        0.617        0.462       31.907       46.270        2.103      335.859        6.774      865.957
05/11/2014  08:27:00       65.195      120.377      118.393       94.044       71.474       48.444     8844.298     5108.524     2346.783        2.453        0.815      136.898       44.848        0.107      335.395        6.000      865.960
05/11/2014  08:28:00       46.056       60.361       74.589       52.553       52.674       45.176     2761.785     2774.573     2040.842        0.945        0.379       75.925       27.438        0.131      335.390        5.992      865.988
05/11/2014  08:29:00       90.686       67.062       51.854       36.988       43.116       40.665     1368.135     1858.951     1653.666        1.014        0.244      112.788       32.073        0.081      335.285        5.817      865.997
05/11/2014  08:30:00       36.015       33.144        9.340       20.613       13.281       21.134      424.908      176.373      446.637        0.177        0.052       48.945        7.789        0.025      334.955        5.268      866.009
05/11/2014  08:31:00       36.563       46.451       18.013       38.253       26.559       27.615     1463.268      705.391      762.580        0.337        0.147       59.115       19.353        0.107      335.393        5.998      866.004
05/11/2014  08:32:00       34.950      -73.222      -10.078       49.647       75.456       32.285     2464.821     5693.671     1042.327        0.794        0.460       81.135       32.118        0.157      335.484        6.149      865.995
05/11/2014  08:33:00        6.860        1.587       47.596       55.457       41.301       40.963     3075.451     1705.777     1677.960        0.439        0.323        7.041       27.039       14.746      335.862        6.778      866.004
05/11/2014  08:34:00       -2.168      -27.577       45.581       31.971       59.970       30.105     1022.152     3596.432      906.322        0.418        0.276       27.662       33.208        1.441      335.976        6.969      866.001
05/11/2014  08:35:00      -17.175      -11.075       49.735       36.366       42.495       28.043     1322.518     1805.841      786.385        0.340        0.196       20.436       27.191        1.770      336.032        7.063      866.002
05/11/2014  08:36:00      -17.452      -36.125       35.059       42.942       46.294       36.064     1843.995     2143.179     1300.611        0.406        0.264       40.120       17.875        0.198      335.679        6.473      866.009
05/11/2014  08:37:00        1.320      -37.877      -10.176       39.682       47.466       36.437     1574.696     2252.978     1327.686        0.335        0.258       37.900       29.210        0.594      335.690        6.492      866.030
05/11/2014  08:38:00      -49.301      -11.786        4.738       37.695       30.904       16.837     1420.941      955.077      283.483        0.263        0.133       50.690       18.880        0.139      335.804        6.683      866.041
05/11/2014  08:39:00      -69.874       38.027       -9.041       24.474       19.245       23.802      598.961      370.388      566.521        0.397        0.077       79.552       18.465        0.054      335.221        5.711      866.055
05/11/2014  08:40:00      -31.011       16.940       23.779       25.347       20.918       23.162      642.450      437.574      536.484        0.171        0.081       35.336       14.901        0.178      335.968        6.956      866.069
05/11/2014  08:41:00        9.244       65.175       75.829       40.400       41.340       24.101     1632.142     1708.971      580.838        0.700        0.196       65.827       21.426        0.106      336.055        7.102      866.072
05/11/2014  08:42:00      137.297      115.965       -4.764       56.050       52.208       41.021     3141.644     2725.705     1682.712        1.993        0.378      179.717       27.497        0.023      335.219        5.707      866.083
05/11/2014  08:43:00      139.578      126.850      -10.653       34.571       35.248       35.456     1195.173     1242.450     1257.156        1.969        0.185      188.608       22.046        0.014      335.002        5.347      866.101
05/11/2014  08:44:00       58.324       82.947       13.197       65.792       47.375       53.816     4328.613     2244.385     2896.149        0.996        0.473      101.399       24.798        0.060      335.384        5.982      866.074
05/11/2014  08:45:00       84.085       83.013       -0.715       67.037       62.028       51.244     4494.019     3847.477     2625.925        1.246        0.548      118.158       34.298        0.084      335.387        5.986      866.076
05/11/2014  08:46:00       73.681      109.672      -14.956       38.025       46.134       29.591     1445.898     2128.365      875.646        1.106        0.222      132.124       26.417        0.040      335.291        5.829      866.093
05/11/2014  08:47:00       68.136       71.185       20.449       39.330       55.409       37.794     1546.827     3070.190     1428.373        0.809        0.302       98.539       28.543        0.084      335.390        5.993      866.074
05/11/2014  08:48:00       12.405       82.041       -3.039       44.064       77.688       29.241     1941.671     6035.487      855.011        0.786        0.442       82.973       26.911        0.105      335.382        5.979      866.079
05/11/2014  08:49:00        9.277      100.845       -4.898       39.381       68.678       30.568     1550.825     4716.711      934.427        0.874        0.360      101.271       31.136        0.095      335.466        6.119      866.083
05/11/2014  08:50:00      110.487      107.353      -12.524       40.505       43.375       33.948     1640.675     1881.359     1152.498        1.428        0.234      154.052       25.662        0.028      335.184        5.650      866.092
05/11/2014  08:51:00      108.919       31.066      -28.205       41.929       44.044       38.722     1758.034     1939.865     1499.402        0.941        0.260      113.263       32.186        0.081      335.019        5.376      866.103
05/11/2014  08:52:00       24.691      -12.881       -5.186       18.587       34.629       21.636      345.488     1199.159      468.138        0.141        0.101       27.849       14.248        0.262      335.321        5.877      866.116
05/11/2014  08:53:00       12.634       63.916       -8.897       52.104       86.142       32.344     2714.789     7420.485     1046.131        0.775        0.559       65.153       34.726        0.284      335.532        6.230      866.118
05/11/2014  08:54:00       -9.399       66.547        3.663       30.693       42.613       30.954      942.068     1815.891      958.180        0.412        0.186       67.207       18.784        0.078      335.788        6.657      866.122
05/11/2014  08:55:00      -88.722       14.790      -18.814       53.327       34.541       22.124     2843.733     1193.107      489.479        0.648        0.226       89.946       21.053        0.055      335.282        5.812      866.120
05/11/2014  08:56:00      -40.540       42.384        2.377       53.107       43.537       35.803     2820.312     1895.471     1281.840        0.472        0.300       58.650       37.338        0.405      335.872        6.798      866.105
05/11/2014  08:57:00       -8.419       60.118        6.108       27.994       47.007       33.952      783.686     2209.680     1152.746        0.393        0.207       60.705       26.706        0.194      335.907        6.855      866.101
05/11/2014  08:58:00      -18.031      -37.488      -23.833       28.815       53.607       26.666      830.314     2873.678      711.071        0.336        0.221       41.599        9.559        0.053      335.238        5.739      866.098
05/11/2014  08:59:00       -2.714      -25.390      -16.907       31.196       45.326       24.726      973.160     2054.467      611.368        0.229        0.182       25.535       27.738        1.180      335.300        5.840      866.091
05/11/2014  09:00:00        1.275      -32.097       10.781       31.019       23.230       27.746      962.154      539.637      769.860        0.171        0.114       32.122       26.461        0.679      335.723        6.547      866.074
05/11/2014  09:01:00      -62.048        9.780       -4.764       39.983       64.178       24.706     1598.636     4118.873      610.409        0.515        0.316       62.814       20.284        0.104      335.525        6.217      866.087
05/11/2014  09:02:00        0.545       30.214       15.776       30.669       71.418       34.032      940.606     5100.484     1158.156        0.418        0.360       30.219       21.113        0.488      336.375        7.636      866.096
05/11/2014  09:03:00      -40.067      -87.513       14.474       35.837       62.581       23.446     1284.290     3916.427      549.700        0.761        0.288       96.249       21.486        0.050      335.635        6.400      866.097
05/11/2014  09:04:00      -95.769      -75.389       -2.368       42.214       52.606       28.143     1782.006     2767.345      792.005        1.010        0.267      121.882       30.122        0.061      335.466        6.119      866.091
05/11/2014  09:05:00      -37.544      -42.001       21.979       42.173       71.872       35.473     1778.562     5165.583     1258.333        0.593        0.410       56.335       22.996        0.167      336.149        7.258      866.095
05/11/2014  09:06:00       49.863      -70.752       22.581       76.770       94.044       50.905     5893.676     8844.221     2591.289        1.266        0.866       86.558       59.318        0.470      336.087        7.153      866.104
05/11/2014  09:07:00       -9.027       41.763       67.087       37.539       41.778       25.213     1409.150     1745.393      635.675        0.506        0.190       42.728       26.193        0.376      336.537        7.907      866.109
05/11/2014  09:08:00      -38.718        9.610       -0.998       40.442       36.871       25.698     1635.569     1359.444      660.388        0.262        0.183       39.893       23.182        0.338      336.116        7.203      866.095
05/11/2014  09:09:00      -49.116        3.012        7.342       47.849       33.040       41.219     2289.543     1091.670     1699.040        0.378        0.254       49.208       32.577        0.438      336.371        7.629      866.064
05/11/2014  09:10:00        3.816       -1.198       38.016       51.503       36.146       40.060     2652.533     1306.530     1604.806        0.351        0.278        4.000       26.186       42.857      336.701        8.180      866.046
05/11/2014  09:11:00       20.512       40.333      102.659       56.215       76.091       48.331     3160.089     5789.832     2335.918        1.193        0.564       45.250       43.440        0.922      336.647        8.089      866.045
05/11/2014  09:12:00      101.556       61.808       63.673      113.046       79.819       69.337    12779.432     6371.132     4807.684        2.107        1.198      118.886       45.813        0.149      336.279        7.472      866.046
05/11/2014  09:13:00      162.645      133.017      105.994       86.985       82.397       80.027     7566.414     6789.271     6404.380        3.807        1.038      210.112       58.142        0.077      335.765        6.613      866.061
05/11/2014  09:14:00      146.956      133.728      104.279       99.853       74.543       73.173     9970.692     5556.643     5354.259        3.561        1.044      198.694       48.903        0.061      335.993        6.994      866.068
05/11/2014  09:15:00       17.040       17.245       62.323       41.924       70.274       39.713     1757.634     4938.454     1577.149        0.637        0.414       24.244       31.946        1.736      336.805        8.353      866.088
05/11/2014  09:16:00       55.116      -45.693       24.514       43.759       79.235       45.172     1914.833     6278.224     2040.546        0.798        0.512       71.594       40.133        0.314      336.654        8.101      866.098
05/11/2014  09:17:00        0.902       -7.074       50.228       24.806       38.729       23.293      615.337     1499.912      542.548        0.262        0.133        7.131       20.575        8.325      336.916        8.539      866.099
05/11/2014  09:18:00        3.918        8.905       15.605       45.393       36.310       29.376     2060.480     1318.434      862.922        0.229        0.212        9.728       15.045        2.392      336.425        7.718      866.079
05/11/2014  09:19:00       70.717       60.517        1.418       56.802       40.301       31.634     3226.438     1624.209     1000.692        0.726        0.293       93.076       25.083        0.073      336.201        7.345      866.061
05/11/2014  09:20:00        0.640      145.418      -12.951       42.944       93.938       34.325     1844.205     8824.266     1178.192        1.658        0.592      145.420       32.065        0.049      336.123        7.213      866.053
05/11/2014  09:21:00       -2.241      269.503      -20.121       24.044       47.226       19.654      578.102     2230.338      386.261        3.812        0.160      269.512       15.098        0.003      335.479        6.134      866.039
05/11/2014  09:22:00       -1.600       59.215       29.947       43.475       81.890       42.987     1890.102     6705.956     1847.890        0.742        0.522       59.237       39.865        0.453      336.693        8.167      866.040
05/11/2014  09:23:00     -107.533       21.720       -6.703       34.313       43.194       24.176     1177.367     1865.738      584.492        0.785        0.181      109.705       17.357        0.025      335.526        6.217      866.039
05/11/2014  09:24:00       12.490      -78.180       -6.153       52.488       52.955       33.271     2755.041     2804.238     1106.960        0.648        0.333       79.171       18.676        0.056      335.501        6.177      866.040
05/11/2014  09:25:00      -14.225      -36.619       -2.342       28.878       36.988       25.416      833.957     1368.083      645.949        0.220        0.142       39.284       19.200        0.239      336.026        7.052      866.050
05/11/2014  09:26:00      -48.083      -64.407       -4.844       36.571       42.359       28.012     1337.405     1794.313      784.658        0.520        0.196       80.376       23.247        0.084      335.915        6.869      866.052
05/11/2014  09:27:00      -11.817        8.097       23.314       23.990       45.526       31.394      575.533     2072.646      985.607        0.219        0.182       14.325       26.668        3.466      337.016        8.706      866.062
05/11/2014  09:28:00       32.983       38.185       40.049       64.589       48.735       47.914     4171.799     2375.118     2295.769        0.649        0.442       50.458       30.376        0.362      336.736        8.238      866.067
05/11/2014  09:29:00       59.026      -68.023       21.115       86.976      106.999       65.960     7564.805    11448.848     4350.750        1.596        1.168       90.062       72.991        0.657      336.473        7.799      866.057
05/11/2014  09:30:00       60.848      148.574      175.710      110.557      157.392      112.590    12222.796    24772.143    12676.438        5.315        2.484      160.551      130.244        0.658      336.218        7.369      866.037
05/11/2014  09:31:00       82.613      111.682      142.491      106.608      112.680       84.618    11365.180    12696.819     7160.223        3.541        1.561      138.916       77.358        0.310      336.173        7.295      866.039
05/11/2014  09:32:00      133.040      -21.871        7.943       80.977       83.679       60.139     6557.226     7002.095     3616.652        1.771        0.859      134.826       50.142        0.138      336.270        7.458      866.040
05/11/2014  09:33:00       40.823       49.369       73.122       53.556       96.350       51.997     2868.290     9283.235     2703.728        1.215        0.743       64.061       55.957        0.763      336.461        7.779      866.040
05/11/2014  09:34:00       45.936        4.813       77.412       62.550      141.473       70.278     3912.512    20014.664     4938.992        1.849        1.443       46.187       84.129        3.318      336.627        8.053      866.036
05/11/2014  09:35:00      182.221     -163.061      -19.773       87.461      162.536      103.707     7649.466    26418.085    10755.237        5.249        2.241      244.527      123.536        0.255      336.216        7.365      866.038
05/11/2014  09:36:00      175.937      -71.748       17.770       94.418      174.643       90.882     8914.682    30500.004     8259.569        4.204        2.384      190.004      110.369        0.337      336.195        7.331      866.039
05/11/2014  09:37:00       63.945        1.431       27.398       61.225       79.428       34.047     3748.475     6308.877     1159.220        0.803        0.561       63.961       19.044        0.089      336.608        8.024      866.053
05/11/2014  09:38:00       24.458       35.855       68.146       58.823       95.638       56.841     3460.196     9146.685     3230.901        1.118        0.792       43.403       48.860        1.267      336.892        8.497      866.024
05/11/2014  09:39:00       35.207      119.011      126.835       62.551       74.534       50.858     3912.633     5555.310     2586.541        2.177        0.603      124.110       49.193        0.157      336.489        7.823      866.027
05/11/2014  09:40:00       37.495       27.142       62.612       43.148       65.931       38.141     1861.767     4346.928     1454.737        0.686        0.383       46.288       37.058        0.641      336.396        7.671      866.030
05/11/2014  09:41:00       82.765      -28.673       23.545       57.882       80.811       55.622     3350.303     6530.385     3093.861        1.060        0.649       87.591       58.796        0.451      336.714        8.201      866.029
05/11/2014  09:42:00       58.779        5.803       54.709       75.634       97.316       65.359     5720.431     9470.390     4271.788        1.297        0.973       59.065       77.690        1.730      336.719        8.209      866.028
05/11/2014  09:43:00      174.802     -262.712      -38.791      103.839      118.505       61.768    10782.462    14043.378     3815.295        6.485        1.432      315.552       47.876        0.023      336.234        7.396      865.998
05/11/2014  09:44:00       79.324       42.756       57.572      109.824      150.855      101.143    12061.380    22757.213    10229.821        2.823        2.252       90.113      102.358        1.290      336.922        8.546      865.994
05/11/2014  09:45:00       96.233       76.542       71.392      104.953       88.627       58.874    11015.167     7854.758     3466.167        2.127        1.117      122.961       48.251        0.154      336.552        7.930      866.023
05/11/2014  09:46:00      163.406      160.490      176.998      116.909       99.523       81.645    13667.638     9904.913     6665.900        5.701        1.512      229.038       68.830        0.090      336.138        7.235      866.037
05/11/2014  09:47:00      132.029       82.351      122.478      108.737      110.218       76.835    11823.768    12147.912     5903.581        3.454        1.494      155.607       73.671        0.224      336.239        7.405      866.021
05/11/2014  09:48:00       92.552       58.733       97.381      137.295      108.627       93.453    18849.820    11799.899     8733.444        3.043        1.969      109.615       92.600        0.714      336.439        7.740      866.036
05/11/2014  09:49:00       32.043      -26.733       50.136       59.001       61.510       52.174     3481.149     3783.431     2722.107        0.712        0.499       41.730       40.305        0.933      336.552        7.930      866.040
05/11/2014  09:50:00       98.840       73.665       78.223       69.503       69.318       49.919     4830.666     4804.927     2491.946        1.672        0.606      123.271       43.191        0.123      336.459        7.774      866.011
05/11/2014  09:51:00        3.306       39.220       93.672       45.204       50.780       35.940     2043.443     2578.596     1291.685        0.812        0.296       39.359       33.001        0.703      336.785        8.321      865.989
05/11/2014  09:52:00       43.087       -1.560       39.050       51.667       49.372       42.155     2669.507     2437.605     1777.005        0.513        0.344       43.115       32.822        0.580      337.073        8.801      865.972
05/11/2014  09:53:00       44.185       35.435      123.339       97.480      161.737      100.961     9502.269    26158.769    10193.025        3.213        2.293       56.639      120.698        4.541      336.725        8.218      865.939
05/11/2014  09:54:00      112.781      -36.005        8.649       75.714       86.746       56.685     5732.594     7524.954     3213.240        1.528        0.824      118.389       50.920        0.185      336.388        7.656      865.963
05/11/2014  09:55:00      -88.437      104.980        6.060       82.868       63.617       48.201     6867.117     4047.149     2323.319        1.606        0.662      137.266       43.263        0.099      336.283        7.478      865.946
05/11/2014  09:56:00      -54.862       80.277       -6.664       66.231       62.277       41.484     4386.600     3878.467     1720.892        0.974        0.499       97.232       45.784        0.222      336.522        7.879      865.926
05/11/2014  09:57:00       32.722       64.951       52.042       39.273       53.708       38.338     1542.351     2884.499     1469.798        0.695        0.295       72.728       28.834        0.157      337.196        9.008      865.941
05/11/2014  09:58:00      139.512       29.217       70.325       83.615       94.865       71.876     6991.485     8999.334     5166.126        2.321        1.058      142.539       67.781        0.226      336.669        8.125      865.944
05/11/2014  09:59:00      136.919     -108.807        2.584      119.506      125.317       66.316    14281.656    15704.422     4397.821        3.248        1.719      174.888       87.497        0.250      336.887        8.489      865.951
05/11/2014  10:00:00      262.811     -257.695      -57.197       94.588      119.424       66.653     8946.958    14262.171     4442.600        8.319        1.383      368.071       47.599        0.017      336.476        7.801      865.917
05/11/2014  10:01:00      276.326     -324.506      -39.275      120.548      152.027      100.343    14531.930    23112.337    10068.667       11.545        2.386      426.216      101.742        0.057      336.270        7.456      865.926
05/11/2014  10:02:00      100.615     -150.311        0.452       86.307       98.103       47.746     7448.902     9624.201     2279.641        2.603        0.968      180.878       56.415        0.097      336.244        7.415      866.020
05/11/2014  10:03:00       -0.966       39.400       71.174       40.165       51.847       51.999     1613.255     2688.072     2703.888        0.681        0.350       39.412       38.883        0.973      337.052        8.767      866.005
05/11/2014  10:04:00       33.522       -6.770       57.646       59.295       76.833       64.297     3515.868     5903.341     4134.101        0.902        0.678       34.199       66.029        3.728      336.937        8.574      865.992
05/11/2014  10:05:00       66.959     -147.293      -27.676       78.158       97.305       54.542     6108.633     9468.266     2974.797        2.274        0.928      161.798       56.742        0.123      336.774        8.301      865.981
05/11/2014  10:06:00       76.005     -115.554      -17.573       69.142      107.190       46.539     4780.671    11489.666     2165.843        1.893        0.922      138.310       59.013        0.182      336.537        7.905      866.010
05/11/2014  10:07:00       85.998      -26.389       31.908       50.284       86.442       55.209     2528.510     7472.256     3048.012        1.108        0.652       89.956       48.019        0.285      336.337        7.571      866.013
05/11/2014  10:08:00       48.708       13.874       63.212       50.260       47.254       43.635     2526.103     2232.923     1903.981        0.661        0.333       50.646       32.365        0.408      336.677        8.140      865.993
05/11/2014  10:09:00       36.599       30.017       55.556       60.938       78.583       56.643     3713.479     6175.219     3208.447        0.921        0.655       47.334       43.525        0.846      336.919        8.545      865.979
05/11/2014  10:10:00       -6.232      109.686       20.453       35.833       65.675       44.545     1284.039     4313.140     1984.286        1.003        0.379      109.863       38.602        0.123      336.810        8.363      865.983
05/11/2014  10:11:00      -58.928       76.058        7.945       65.795       46.873       39.109     4329.022     2197.096     1529.508        0.869        0.403       96.215       33.678        0.123      336.963        8.616      866.003
05/11/2014  10:12:00     -148.495      -47.408       -9.045       63.901       58.376       40.156     4083.320     3407.722     1612.483        1.674        0.455      155.879       38.875        0.062      336.234        7.398      866.011
05/11/2014  10:13:00     -212.088     -118.629      -19.798       66.430       44.931       35.990     4412.995     2018.771     1295.274        3.358        0.386      243.011       27.118        0.012      336.166        7.281      866.011
05/11/2014  10:14:00     -119.494      -29.356       -6.689      100.726       61.034       40.395    10145.648     3725.097     1631.775        1.534        0.775      123.047       48.993        0.159      336.328        7.555      866.025
05/11/2014  10:15:00      -59.470      -71.563        1.576       57.831       58.963       31.454     3344.396     3476.625      989.328        0.823        0.391       93.048       29.282        0.099      336.417        7.705      866.056
05/11/2014  10:16:00      -17.205      -64.756      -12.193       52.709       54.972       34.566     2778.234     3021.923     1194.815        0.582        0.350       67.003       21.616        0.104      336.749        8.260      866.037
05/11/2014  10:17:00        3.995      -70.913       30.075       74.886       65.677       52.295     5607.867     4313.446     2734.723        0.930        0.633       71.026       27.710        0.152      337.294        9.171      866.025
05/11/2014  10:18:00       -8.145      -14.523        7.032       47.691       26.731       32.657     2274.385      714.543     1066.449        0.219        0.203       16.651       28.361        2.901      337.491        9.502      866.036
05/11/2014  10:19:00       60.876     -152.446      -20.216       89.364      125.466       60.923     7985.888    15741.627     3711.610        2.739        1.372      164.151       67.053        0.167      336.982        8.647      866.046
05/11/2014  10:20:00      -20.690     -130.388       -4.337      113.528       47.392       41.915    12888.514     2245.965     1756.900        1.717        0.845      132.020       31.865        0.058      336.644        8.083      866.063
05/11/2014  10:21:00     -109.889      -34.150      -15.178       54.054       69.788       44.265     2921.803     4870.368     1959.413        1.161        0.488      115.073       27.705        0.058      336.586        7.988      866.011
05/11/2014  10:22:00     -115.120      -39.546      -14.266       66.908       47.523       29.393     4476.669     2258.477      863.971        1.131        0.380      121.723       20.329        0.028      336.407        7.687      866.000
05/11/2014  10:23:00      -29.630      -85.558      -11.249       50.297       45.464       21.469     2529.821     2066.981      460.905        0.669        0.253       90.543       15.103        0.028      336.569        7.959      865.986
05/11/2014  10:24:00      -35.903     -116.378        5.089       33.810       72.115       31.075     1143.136     5200.614      965.634        1.108        0.365      121.790       30.612        0.063      336.816        8.373      865.996
05/11/2014  10:25:00      137.716     -139.559       -3.269      166.697      198.139      116.082    27787.810    39258.905    13475.122        5.947        4.026      196.068      136.532        0.485      337.252        9.100      865.943
05/11/2014  10:26:00      182.781     -125.966       -0.167      111.258      138.841       59.796    12378.353    19276.925     3575.585        4.225        1.762      221.983       84.123        0.144      336.756        8.270      865.950
05/11/2014  10:27:00      127.955      -87.827       24.147       93.681      150.900       96.085     8776.136    22770.695     9232.338        3.272        2.039      155.197      105.993        0.466      337.510        9.531      865.948
05/11/2014  10:28:00      -43.104      -43.901       68.181       59.821       56.041       68.070     3578.605     3140.647     4633.541        0.989        0.568       61.525       37.418        0.370      337.838       10.083      865.992
05/11/2014  10:29:00        5.880       -0.603       61.433      100.819      107.076       49.378    10164.405    11465.321     2438.213        1.393        1.203        5.911       51.642       76.332      337.802       10.022      866.006
05/11/2014  10:30:00       80.316      -89.430       12.055       96.443      135.718       95.923     9301.287    18419.413     9201.224        2.575        1.846      120.201       94.342        0.616      337.473        9.468      866.012
05/11/2014  10:31:00      129.995      -88.099       31.752      100.962      124.442       84.597    10193.331    15485.768     7156.720        2.925        1.642      157.036       89.974        0.328      337.140        8.911      866.002
05/11/2014  10:32:00       52.754       53.228       86.735       87.870       82.429       63.069     7721.151     6794.466     3977.699        1.581        0.925       74.941       63.208        0.711      337.250        9.098      865.990
05/11/2014  10:33:00       22.000      -42.766       23.841       55.969       81.248       54.454     3132.535     6601.276     2965.196        0.779        0.635       48.093       53.112        1.220      337.524        9.556      866.039
05/11/2014  10:34:00       28.251     -134.386       -0.505       87.594       95.466       66.101     7672.703     9113.753     4369.363        2.000        1.058      137.324       60.234        0.192      337.570        9.633      866.049
05/11/2014  10:35:00       45.490     -149.378      -10.687       77.089       73.472       59.054     5942.642     5398.174     3487.397        1.966        0.741      156.151       46.501        0.089      337.250        9.095      866.063
05/11/2014  10:36:00       35.270     -165.199       15.665       69.962      129.385       68.368     4894.691    16740.374     4674.164        2.754        1.315      168.922       56.099        0.110      337.116        8.873      866.065
05/11/2014  10:37:00       73.777     -225.905       -8.621       87.215      105.011       60.023     7606.431    11027.305     3602.769        3.939        1.112      237.647       38.338        0.026      337.006        8.686      866.068
05/11/2014  10:38:00       88.028     -244.358      -34.554       68.527      129.762       43.609     4695.986    16838.164     1901.777        4.604        1.172      259.730       42.130        0.026      336.570        7.959      866.118
05/11/2014  10:39:00       15.353       74.149       61.628       53.277       79.401       69.016     2838.483     6304.594     4763.253        1.172        0.695       75.722       54.790        0.524      337.116        8.874      866.099
05/11/2014  10:40:00       60.056      -13.542       36.873       62.445      105.737       54.636     3899.365    11180.295     2985.087        1.160        0.903       61.564       63.337        1.058      337.084        8.821      866.113
05/11/2014  10:41:00       74.359      -10.548       24.793       46.943       31.379       43.450     2203.644      984.638     1887.868        0.566        0.254       75.104       25.209        0.113      336.803        8.350      866.122
05/11/2014  10:42:00       46.659       51.826       51.911       38.442       45.033       40.608     1477.767     2027.971     1649.006        0.636        0.258       69.736       27.923        0.160      337.042        8.749      866.104
05/11/2014  10:43:00       32.516      -20.733       43.552       79.639       73.565       39.200     6342.427     5411.746     1536.679        0.833        0.665       38.564       46.487        1.453      337.638        9.747      866.091
05/11/2014  10:44:00      -26.338       15.611       97.520       35.563       68.733       60.715     1264.700     4724.214     3686.315        1.006        0.484       30.617       56.986        3.464      338.347       10.937      866.091
05/11/2014  10:45:00       25.852       82.778      126.210       67.289       71.469       57.524     4527.825     5107.784     3308.962        1.819        0.647       86.721       51.138        0.348      337.446        9.426      866.110
05/11/2014  10:46:00      -11.216      -17.873       60.694       55.879       80.613       54.139     3122.485     6498.413     2930.986        0.834        0.628       21.101       53.108        6.335      337.668        9.798      866.100
05/11/2014  10:47:00       63.049       46.867       72.432       96.182       71.972       60.123     9250.888     5179.944     3614.784        1.473        0.902       78.560       43.001        0.300      337.656        9.779      866.119
05/11/2014  10:48:00        6.635       29.135       74.896       33.043       72.487       40.415     1091.872     5254.373     1633.388        0.724        0.399       29.881       44.405        2.208      337.720        9.884      866.104
05/11/2014  10:49:00      135.962      113.786       72.101      112.391       90.042       72.933    12631.648     8107.520     5319.170        3.134        1.303      177.293       59.333        0.112      337.120        8.878      866.087
05/11/2014  10:50:00      109.359     -204.490        6.735      106.597      220.993       77.690    11362.918    48837.849     6035.689        6.002        3.312      231.896       86.178        0.138      337.323        9.218      866.084
05/11/2014  10:51:00      215.203     -154.262       20.399      103.224      122.061       78.181    10655.182    14898.791     6112.222        5.109        1.583      264.781       76.210        0.083      337.100        8.843      866.111
05/11/2014  10:52:00      133.573      -15.921       55.191      115.763      100.931       81.251    13401.049    10186.967     6601.672        2.566        1.509      134.518       52.283        0.151      337.607        9.695      866.102
05/11/2014  10:53:00      102.261      109.326      145.559      108.015      101.145       73.777    11667.289    10230.287     5442.983        3.546        1.367      149.698       68.514        0.209      337.515        9.539      866.120
05/11/2014  10:54:00       87.297       29.135       69.769       76.900       93.060       72.071     5913.540     8660.213     5194.294        1.655        0.988       92.031       68.137        0.548      337.585        9.658      866.092
05/11/2014  10:55:00      140.363     -186.446        9.896       97.255      167.515       83.087     9458.557    28061.351     6903.471        4.948        2.221      233.375       93.201        0.159      337.568        9.628      866.097
05/11/2014  10:56:00      105.989      -52.343       64.594       89.306      122.114       84.035     7975.503    14911.804     7061.943        2.404        1.497      118.210       83.503        0.499      337.771        9.969      866.091
05/11/2014  10:57:00       63.923       76.323      131.561       89.119      111.521       53.857     7942.207    12436.850     2900.544        2.524        1.164       99.556       33.689        0.115      337.891       10.169      866.129
05/11/2014  10:58:00       68.079      116.391       97.105       70.542       61.291       51.902     4976.137     3756.613     2693.774        1.952        0.571      134.839       36.901        0.075      337.888       10.164      866.133
05/11/2014  10:59:00      117.327       79.647       48.040       92.652       50.147       58.101     8584.352     2514.693     3375.735        1.844        0.724      141.807       53.248        0.141      337.313        9.202      866.118
05/11/2014  11:00:00       48.500       10.568       34.040      104.273       76.651       46.831    10872.946     5875.424     2193.173        1.128        0.947       49.638       41.320        0.693      337.814       10.043      866.086
05/11/2014  11:01:00      -13.652      -23.844       15.391       57.122       40.254       33.421     3262.874     1620.406     1116.954        0.349        0.300       27.476       17.238        0.394      338.447       11.104      866.064
05/11/2014  11:02:00       34.414      -52.229       34.147       79.366      134.413       89.019     6298.911    18066.842     7924.342        1.868        1.615       62.548       98.838        2.497      337.821       10.052      866.055
05/11/2014  11:03:00      -32.792      -37.958       31.043       42.034      108.951       67.921     1766.843    11870.254     4613.237        1.086        0.913       50.161       69.495        1.919      337.743        9.923      866.044
05/11/2014  11:04:00        5.006      -77.998       13.782       98.771      113.113       76.040     9755.774    12794.655     5782.036        1.731        1.417       78.159       30.125        0.149      337.675        9.808      866.037
05/11/2014  11:05:00      -44.075      -83.011        7.529       83.673       84.705       52.455     7001.164     7174.949     2751.549        1.291        0.846       93.986       29.160        0.096      337.582        9.653      866.046
05/11/2014  11:06:00       32.957     -145.784       -7.763      116.473       69.323       50.060    13565.916     4805.743     2505.966        2.163        1.044      149.463       47.318        0.100      337.521        9.548      866.047
05/11/2014  11:07:00       49.699     -185.940      -16.624       78.117       95.355       55.706     6102.285     9092.615     3103.109        2.781        0.915      192.467       60.032        0.097      337.820       10.048      866.055
05/11/2014  11:08:00      173.665     -154.031      -12.180      111.770      166.924      102.491    12492.594    27863.788    10504.499        5.244        2.543      232.132      110.160        0.225      337.431        9.398      866.049
05/11/2014  11:09:00      112.764      -81.075       33.920       79.964      123.783       85.248     6394.184    15322.121     7267.166        2.471        1.449      138.884       92.782        0.446      337.607        9.695      866.090
05/11/2014  11:10:00      121.873     -219.089      -21.825       90.050       65.829       42.675     8108.977     4333.513     1821.130        3.879        0.713      250.705       36.801        0.022      337.324        9.220      866.086
05/11/2014  11:11:00      150.645     -117.810       27.436       96.975      107.747       71.748     9404.230    11609.460     5147.836        3.174        1.308      191.241       72.326        0.143      337.477        9.476      866.059
05/11/2014  11:12:00      123.040       96.141       94.796      112.397       75.028       76.019    12633.076     5629.137     5778.887        2.870        1.202      156.147       68.901        0.195      337.862       10.123      866.046
05/11/2014  11:13:00      174.261       99.996       85.418      101.912       70.199       78.530    10385.981     4927.914     6167.021        3.457        1.074      200.914       74.066        0.136      337.357        9.274      866.041
05/11/2014  11:14:00       80.768       78.584       60.967       50.239       44.504       33.790     2523.907     1980.573     1141.757        1.103        0.282      112.690       20.325        0.033      337.556        9.609      866.051
05/11/2014  11:15:00       64.247       99.719       94.929       72.248       71.516       79.959     5219.790     5114.599     6393.367        1.990        0.836      118.624       61.251        0.267      337.565        9.625      866.024
05/11/2014  11:16:00      124.683      112.237       99.614       85.364       58.267       72.375     7286.932     3395.076     5238.197        2.699        0.796      167.759       56.037        0.112      337.406        9.357      866.019
05/11/2014  11:17:00      192.823      164.981      114.408      124.276       82.340       81.932    15444.492     6779.902     6712.794        5.321        1.447      253.770       79.083        0.097      337.274        9.134      866.006
05/11/2014  11:18:00      105.308       98.361       62.771       80.252       49.612       67.136     6440.359     2461.301     4507.280        1.905        0.670      144.100       57.428        0.159      337.304        9.187      865.992
05/11/2014  11:19:00       85.030       56.523       31.402       84.121       78.334       56.303     7076.423     6136.230     3170.056        1.389        0.819      102.102       45.081        0.195      337.926       10.230      865.976
05/11/2014  11:20:00      134.995      -46.534       51.000       80.229      154.333       85.425     6436.613    23818.679     7297.483        3.026        1.878      142.790      100.510        0.495      337.575        9.638      865.993
05/11/2014  11:21:00       56.291        2.702       70.205       69.049      134.396       66.004     4767.811    18062.167     4356.510        1.764        1.359       56.355       88.757        2.480      337.955       10.278      865.993
05/11/2014  11:22:00       78.890     -184.038      -44.058       31.402       30.975       24.049      986.090      959.431      578.374        2.228        0.126      200.234       14.328        0.005      337.261        9.115      866.017
05/11/2014  11:23:00       33.897        6.037       48.712       38.688       46.321       39.503     1496.734     2145.605     1560.522        0.438        0.260       34.430       33.896        0.969      337.738        9.914      866.018
05/11/2014  11:24:00      -13.781      -69.745       11.407       46.313       74.367       37.873     2144.933     5530.399     1434.336        0.715        0.455       71.094       38.928        0.300      337.801       10.022      866.009
05/11/2014  11:25:00      -79.062     -113.419      -18.568       51.414       39.365       30.431     2643.379     1549.583      926.024        1.229        0.256      138.256       20.358        0.022      337.123        8.884      866.016
05/11/2014  11:26:00      -69.029      -28.071      -11.986       29.908       21.035       19.033      894.465      442.479      362.255        0.370        0.085       74.518        2.586        0.001      337.259        9.112      865.979
05/11/2014  11:27:00     -111.537       14.854       -9.397       27.028       23.624       16.337      730.526      558.094      266.893        0.715        0.078      112.522       16.190        0.021      337.316        9.207      865.942
05/11/2014  11:28:00      -30.718        2.204       15.417       42.220       27.496       27.199     1782.564      756.057      739.799        0.223        0.164       30.797       27.195        0.780      338.256       10.783      865.935
05/11/2014  11:29:00       -8.799      -71.804       -4.490       61.707       64.439       42.743     3807.792     4152.417     1826.993        0.752        0.489       72.341       44.323        0.375      338.198       10.686      865.917
05/11/2014  11:30:00       72.154     -188.410      -15.476      103.102       84.605       76.039    10629.937     7157.980     5781.881        3.225        1.178      201.753       64.836        0.103      337.906       10.193      865.904
05/11/2014  11:31:00       58.910      -22.033       53.045       64.518      121.914       58.488     4162.530    14863.137     3420.890        1.460        1.122       62.896       69.868        1.234      337.995       10.345      865.902
05/11/2014  11:32:00      -38.684       21.733        7.696       38.691       45.853       30.134     1496.994     2102.515      908.046        0.327        0.225       44.371       21.496        0.235      338.738       11.595      865.891
05/11/2014  11:33:00      -36.554      -26.432       12.099       41.263       49.180       32.433     1702.666     2418.721     1051.922        0.368        0.259       45.109       22.539        0.250      338.785       11.672      865.879
05/11/2014  11:34:00        5.628      -49.097       27.189       67.806       74.569       45.390     4597.695     5560.466     2060.249        0.770        0.611       49.419       44.623        0.815      338.911       11.885      865.857
05/11/2014  11:35:00       67.576     -200.107       11.437      104.542      141.269       75.365    10929.063    19956.928     5679.925        4.065        1.828      211.209       63.417        0.090      338.413       11.045      865.831
05/11/2014  11:36:00      131.171       54.440      124.117      117.159      125.013       86.856    13726.199    15628.173     7543.897        3.623        1.845      142.020      103.706        0.533      338.029       10.401      865.832
05/11/2014  11:37:00       38.612        3.094       57.296       57.081       67.348       56.631     3258.278     4535.739     3207.037        0.789        0.550       38.736       49.362        1.624      338.469       11.141      865.820
05/11/2014  11:38:00       52.564       83.145      129.418       85.659      100.147       77.829     7337.431    10029.418     6057.380        2.492        1.171       98.367       74.037        0.566      338.405       11.033      865.794
05/11/2014  11:39:00       56.980       31.240       97.833      107.500      143.051       75.956    11556.336    20463.648     5769.264        2.578        1.889       64.982       87.728        1.823      338.374       10.981      865.783
05/11/2014  11:40:00       58.301      -21.938       80.411       89.612      156.949       86.502     8030.291    24632.885     7482.622        2.524        2.007       62.292       90.999        2.134      338.559       11.291      865.795
05/11/2014  11:41:00       44.246      -82.115       36.903       74.711       90.212       62.966     5581.686     8138.280     3964.750        1.387        0.884       93.277       57.565        0.381      338.313       10.881      865.797
05/11/2014  11:42:00      140.005      100.060       89.881       99.093       92.548       84.383     9819.451     8565.223     7120.530        3.159        1.275      172.086       66.203        0.148      338.281       10.824      865.811
05/11/2014  11:43:00      101.918       95.112       66.191       74.823       52.492       46.509     5598.410     2755.417     2163.065        1.716        0.526      139.404       27.280        0.038      338.449       11.109      865.802
05/11/2014  11:44:00       54.814       48.293       42.482       46.360       52.980       51.422     2149.269     2806.841     2644.173        0.737        0.380       73.054       26.520        0.132      338.160       10.622      865.798
05/11/2014  11:45:00       36.676       47.851        9.777       43.986       51.296       37.816     1934.760     2631.303     1430.021        0.486        0.300       60.290       27.721        0.211      338.037       10.416      865.789
05/11/2014  11:46:00       36.716       32.139       10.776       66.432       36.229       28.193     4413.254     1312.515      794.822        0.451        0.326       48.795       29.386        0.363      338.173       10.644      865.784
05/11/2014  11:47:00      135.361       81.532       24.626       71.368       43.885       58.549     5093.421     1925.873     3427.940        1.801        0.522      158.020       26.869        0.029      338.084       10.494      865.756
05/11/2014  11:48:00      190.301      198.105      172.264      121.467      100.514       87.859    14754.322    10103.155     7719.160        6.885        1.629      274.700       52.255        0.036      338.187       10.665      865.712
05/11/2014  11:49:00       62.825       80.127      126.846       80.274      116.560       82.466     6443.923    13586.160     6800.695        2.664        1.342      101.820       78.622        0.596      338.430       11.074      865.717
05/11/2014  11:50:00       62.692      -62.809       25.201       82.226      120.127       59.558     6761.125    14430.423     3547.182        1.662        1.237       88.743       69.903        0.620      338.655       11.454      865.723
05/11/2014  11:51:00      131.073     -228.960      -10.665      107.988      142.039       76.946    11661.422    20175.070     5920.704        5.373        1.888      263.823       69.761        0.070      338.030       10.402      865.706
05/11/2014  11:52:00       91.543     -181.697      -34.247       81.257      116.028       32.199     6602.667    13462.500     1036.776        3.183        1.055      203.455       17.538        0.007      337.657        9.777      865.748
05/11/2014  11:53:00      -38.225       13.048       -2.249       36.228       35.146       31.073     1312.447     1235.270      965.559        0.257        0.176       40.391       15.425        0.146      338.176       10.650      865.732
05/11/2014  11:54:00      -82.777      -85.033       -9.271       64.362       72.357       35.681     4142.473     5235.539     1273.146        1.241        0.533      118.670       32.300        0.074      338.057       10.450      865.712
05/11/2014  11:55:00      -49.701      -55.335       24.812       69.840       67.985       39.412     4877.616     4622.012     1553.270        0.860        0.553       74.378       52.025        0.489      338.401       11.030      865.695
05/11/2014  11:56:00       38.189       32.507       40.980       89.588       58.395       48.327     8026.000     3409.941     2335.496        0.898        0.689       50.150       42.670        0.724      338.711       11.550      865.678
05/11/2014  11:57:00      119.781       67.477       75.207       98.130       96.936       63.797     9629.489     9396.600     4069.998        2.382        1.155      137.480       68.279        0.247      338.383       10.996      865.655
05/11/2014  11:58:00       48.864       23.437       84.564       65.167      130.244       79.668     4246.737    16963.581     6347.053        1.882        1.378       54.194       97.410        3.231      338.425       11.068      865.648
05/11/2014  11:59:00       51.909      -28.178       47.296       67.417       74.266       59.889     4544.993     5515.490     3586.647        0.968        0.682       59.063       37.412        0.401      338.896       11.859      865.650
05/11/2014  12:00:00       19.722      -39.203       42.635       59.108       54.809       46.493     3493.721     3004.035     2161.621        0.620        0.433       43.885       37.783        0.741      338.882       11.837      865.633
05/11/2014  12:01:00      -31.215     -106.438      -17.184       84.539       58.634       44.285     7146.779     3437.996     1961.141        1.257        0.627      110.921       43.251        0.152      338.676       11.489      865.615
05/11/2014  12:02:00      -41.870      -85.051        0.619       51.767       68.981       37.802     2679.842     4758.339     1428.978        0.893        0.443       94.798       41.106        0.188      338.129       10.572      865.605
05/11/2014  12:03:00        6.548       16.364       13.508       38.346       39.319       35.304     1470.383     1546.002     1246.382        0.238        0.213       17.625       17.081        0.939      338.847       11.777      865.581
05/11/2014  12:04:00       63.561     -128.068      -21.235       55.843      118.682       44.101     3118.409    14085.367     1944.886        2.002        0.957      142.973       11.739        0.007      338.021       10.390      865.579
05/11/2014  12:05:00      162.693      115.455       45.357       60.190       51.266       66.438     3622.884     2628.177     4413.984        2.626        0.533      199.496       38.895        0.038      337.772        9.970      865.539
05/11/2014  12:06:00       91.504       48.625       24.867       51.275       33.136       44.109     2629.134     1097.982     1945.561        0.851        0.284      103.621       36.460        0.124      337.940       10.254      865.528
05/11/2014  12:07:00       19.423        3.392       20.281       21.584       23.016       28.949      465.879      529.716      838.026        0.132        0.092       19.717        9.040        0.210      338.695       11.523      865.491
05/11/2014  12:08:00      -53.695      -85.936        9.072       53.891       58.899       29.011     2904.274     3469.058      841.630        0.878        0.361      101.332       33.687        0.111      338.918       11.897      865.487
05/11/2014  12:09:00       58.539     -126.640        2.009      124.648      123.782       66.856    15537.132    15321.999     4469.729        2.739        1.766      139.515       69.787        0.250      339.016       12.061      865.470
05/11/2014  12:10:00       91.357      -86.797       35.707      113.547      131.489       96.476    12892.916    17289.365     9307.671        2.831        1.974      126.015      103.791        0.678      338.685       11.504      865.453
05/11/2014  12:11:00       21.563      101.667      181.949       71.996      103.615       57.512     5183.423    10736.153     3307.595        3.156        0.961      103.928       60.188        0.335      338.776       11.657      865.457
05/11/2014  12:12:00       21.887      133.092      161.582       58.401      108.034       76.718     3410.651    11671.435     5885.579        3.263        1.048      134.880       84.270        0.390      338.267       10.801      865.476
05/11/2014  12:13:00       19.921      -34.627       77.524       74.256      115.645       72.740     5513.913    13373.783     5291.101        1.589        1.209       39.948       72.544        3.298      338.682       11.499      865.463
05/11/2014  12:14:00       28.667      -51.846       29.935       84.925      103.328       70.777     7212.241    10676.581     5009.322        1.365        1.145       59.244       72.793        1.510      338.717       11.559      865.479
05/11/2014  12:15:00       30.389       17.487       41.113       47.848       82.893       61.692     2289.388     6871.321     3805.861        0.794        0.648       35.061       48.196        1.890      338.586       11.338      865.491
05/11/2014  12:16:00       72.158      -80.176       -8.258       80.457       96.260       63.539     6473.359     9266.017     4037.231        1.574        0.989      107.866       63.055        0.342      338.521       11.226      865.482
05/11/2014  12:17:00       18.103       -5.897       47.578       32.840       40.230       43.286     1078.492     1618.481     1873.641        0.360        0.229       19.039       33.041        3.012      339.069       12.152      865.477
05/11/2014  12:18:00      -11.067       -2.992       -5.860       95.290       94.816       43.202     9080.114     8990.046     1866.376        1.005        0.997       11.464       34.136        8.866      338.665       11.471      865.457
05/11/2014  12:19:00      -61.102       69.521       -0.582       53.615       74.176       44.381     2874.547     5502.131     1969.680        0.945        0.517       92.556       33.319        0.130      338.626       11.405      865.441
05/11/2014  12:20:00       40.977       91.078       70.710       62.081       76.764       80.153     3854.101     5892.769     6424.436        1.557        0.809       99.871       61.542        0.380      339.093       12.191      865.448
05/11/2014  12:21:00      225.294      122.773       67.423      130.138       85.993       80.591    16935.781     7394.800     6494.855        5.059        1.541      256.574       72.641        0.080      338.075       10.478      865.445
05/11/2014  12:22:00      161.090      114.425       59.428       76.413       68.952       63.413     5839.013     4754.339     4021.181        2.859        0.731      197.593       54.011        0.075      338.041       10.419      865.449
05/11/2014  12:23:00       51.750       65.274       31.464       61.588       50.909       42.344     3793.097     2591.699     1793.008        0.805        0.409       83.299       22.711        0.074      339.092       12.189      865.426
05/11/2014  12:24:00      209.629      102.258       39.143       80.426       73.896       70.231     6468.390     5460.688     4932.329        3.639        0.843      233.240       33.430        0.021      338.484       11.164      865.408
05/11/2014  12:25:00       84.922       75.308       61.797       62.206       58.370       48.610     3869.615     3407.028     2362.912        1.317        0.482      113.503       32.964        0.084      338.684       11.503      865.405
05/11/2014  12:26:00       76.870      116.720      123.937       71.405       58.395       56.756     5098.745     3409.962     3221.220        2.331        0.586      139.759       54.588        0.153      338.449       11.108      865.391
05/11/2014  12:27:00       55.763       32.483       43.141       62.943       48.897       42.933     3961.819     2390.908     1843.237        0.711        0.410       64.534       45.681        0.501      338.834       11.756      865.366
05/11/2014  12:28:00       98.829       24.576       29.108       86.244       87.467       38.297     7438.079     7650.519     1466.642        1.388        0.828      101.839       28.142        0.076      338.821       11.733      865.339
05/11/2014  12:29:00      220.038       87.928       47.070      119.687       69.523       66.265    14325.080     4833.405     4391.103        4.095        1.177      236.956       64.360        0.074      338.385       10.997      865.314
05/11/2014  12:30:00       86.893       89.879       75.165       64.224       74.930       55.285     4124.765     5614.431     3056.453        1.703        0.640      125.015       45.884        0.135      338.521       11.227      865.313
05/11/2014  12:31:00       -0.018       -1.982       49.615       46.268       67.280       38.756     2140.768     4526.570     1502.031        0.532        0.408        1.982       24.487      152.646      338.959       11.964      865.288
05/11/2014  12:32:00       28.053       75.190       -1.606       48.613       47.153       32.753     2363.272     2223.378     1072.778        0.605        0.283       80.252       26.696        0.111      338.912       11.887      865.265
05/11/2014  12:33:00      -13.325      123.351       -0.544       52.449       65.411       38.363     2750.918     4278.622     1471.717        1.195        0.425      124.069       39.591        0.102      338.828       11.746      865.249
05/11/2014  12:34:00     -105.347       45.473      -19.168       27.851       27.627       22.083      775.662      763.260      487.669        0.778        0.101      114.742        8.790        0.006      338.295       10.850      865.223
05/11/2014  12:35:00      -72.986      -14.460       -8.990       57.742       48.575       24.871     3334.191     2359.569      618.578        0.596        0.316       74.404       18.595        0.062      338.261       10.793      865.204
05/11/2014  12:36:00     -164.125      -96.458        5.667      115.707       86.477       48.735    13388.024     7478.314     2375.106        2.975        1.162      190.371       52.586        0.076      338.673       11.483      865.168
05/11/2014  12:37:00     -189.208      -84.991        4.463       90.472       63.376       47.665     8185.208     4016.551     2271.912        2.876        0.724      207.421       42.759        0.042      338.479       11.156      865.166
05/11/2014  12:38:00     -189.177      -89.936        3.695       79.228       64.633       41.081     6277.026     4177.429     1687.655        2.801        0.607      209.467       41.414        0.039      338.562       11.296      865.166
05/11/2014  12:39:00     -176.619      -31.596       -5.058      107.723      124.047       49.156    11604.281    15387.765     2416.293        3.081        1.470      179.423       47.331        0.070      338.706       11.538      865.144
05/11/2014  12:40:00     -152.107       37.571      -17.112       69.867       51.557       34.061     4881.435     2658.125     1160.160        1.677        0.435      156.678       36.263        0.054      338.684       11.502      865.145
05/11/2014  12:41:00     -164.574      -60.177       -4.126       96.209       69.112       41.469     9256.153     4776.465     1719.693        2.323        0.788      175.231       43.580        0.062      338.824       11.739      865.117
05/11/2014  12:42:00     -182.253      -65.327      -11.886       96.728       64.398       42.705     9356.399     4147.129     1823.754        2.647        0.766      193.607       33.803        0.030      338.505       11.202      865.117
05/11/2014  12:43:00      -47.622     -189.965        0.113       64.105       76.089       35.339     4109.495     5789.587     1248.823        2.475        0.557      195.844       31.085        0.025      338.376       10.982      865.132
05/11/2014  12:44:00       61.294      -77.373       -3.635       51.691       84.419       43.362     2671.978     7126.533     1880.230        1.072        0.584       98.709       28.739        0.085      338.918       11.897      865.122
05/11/2014  12:45:00        5.889      -18.412       37.996       38.320       81.356       36.015     1468.434     6618.849     1297.113        0.560        0.469       19.331       30.217        2.443      339.462       12.812      865.129
05/11/2014  12:46:00      -15.723     -147.602       -7.002       50.807       53.661       37.976     2581.381     2879.452     1442.176        1.449        0.345      148.437       20.755        0.020      339.415       12.732      865.105
05/11/2014  12:47:00      -14.938      -93.257       -0.769       71.631       64.823       49.226     5130.950     4202.084     2423.211        1.034        0.588       94.446       29.510        0.098      339.603       13.049      865.089
05/11/2014  12:48:00       91.609       59.184       80.646      126.728       94.549       77.778    16059.866     8939.429     6049.446        2.472        1.552      109.064       57.678        0.280      339.606       13.054      865.073
05/11/2014  12:49:00      107.302      127.174       87.714       94.891       77.344       97.107     9004.270     5982.141     9429.724        2.989        1.221      166.394       49.222        0.088      339.134       12.257      865.058
05/11/2014  12:50:00      160.680       54.613       70.081      139.459       92.572       67.411    19448.679     8569.497     4544.258        3.313        1.628      169.708       60.732        0.128      339.371       12.657      865.030
05/11/2014  12:51:00      224.218     -259.176      -11.824      170.859      231.882      120.286    29192.816    53769.221    14468.760       10.749        4.872      342.704      145.971        0.181      338.962       11.967      864.983
05/11/2014  12:52:00      148.808     -160.410        7.417      134.542      152.673       94.778    18101.490    23308.999     8982.798        4.915        2.520      218.804      101.019        0.213      339.008       12.045      865.014
05/11/2014  12:53:00      233.949     -297.947      -46.475      105.876      110.553       61.026    11209.635    12221.996     3724.126        8.640        1.358      378.820       46.719        0.015      338.851       11.780      865.005
05/11/2014  12:54:00      302.114     -408.358      -62.581      122.361      177.731       75.197    14972.104    31588.183     5654.657       15.707        2.611      507.966       62.861        0.015      338.786       11.671      864.948
05/11/2014  12:55:00      190.536     -290.305      -26.766      121.548      137.544       66.887    14773.868    18918.257     4473.937        7.972        1.908      347.248       71.821        0.043      338.505       11.199      865.004
05/11/2014  12:56:00       73.159      -26.743      110.226      134.240      242.205      148.988    18020.336    58663.476    22197.419        5.853        4.944       77.894      182.884        5.512      339.220       12.401      864.982
05/11/2014  12:57:00      106.595      -56.791       57.357       99.151      177.547       94.890     9830.835    31523.074     9004.115        3.411        2.518      120.779      122.211        1.024      339.022       12.069      865.003
05/11/2014  12:58:00      152.309     -211.403      -34.451       95.542      100.375       60.644     9128.227    10075.204     3677.713        4.597        1.144      260.556       55.757        0.046      338.794       11.685      864.981
05/11/2014  12:59:00      187.616     -170.963      -15.708      108.906      120.317       72.304    11860.625    14476.098     5227.824        4.811        1.578      253.827       80.022        0.099      338.793       11.684      864.983
05/11/2014  13:00:00       78.334     -101.653       22.041       61.630      135.563       45.494     3798.245    18377.238     2069.731        2.060        1.212      128.334       63.642        0.246      338.895       11.857      865.003
05/11/2014  13:01:00      -76.651      -46.129        3.533       61.782       52.452       36.364     3817.009     2751.258     1322.359        0.795        0.395       89.461       33.272        0.138      339.303       12.544      864.969
05/11/2014  13:02:00      -87.467      -40.540       -5.059       63.851       55.399       34.787     4076.887     3069.002     1210.156        0.884        0.418       96.405       31.371        0.106      339.093       12.191      864.944
05/11/2014  13:03:00        3.390       34.550       48.367       48.631       53.191       50.393     2365.012     2829.282     2539.500        0.564        0.387       34.716       37.209        1.149      339.528       12.924      864.940
05/11/2014  13:04:00       46.138     -144.179      -12.114       82.734       99.390       74.887     6844.866     9878.447     5608.063        2.269        1.117      151.381       57.969        0.147      339.529       12.923      864.917
05/11/2014  13:05:00       98.400     -169.524       -9.743      117.976      151.444       77.304    13918.426    22935.202     5975.837        4.066        2.141      196.012       94.623        0.233      339.452       12.796      864.903
05/11/2014  13:06:00       93.301      -96.741       54.441      117.527      136.274      113.052    13812.691    18570.495    12780.695        3.309        2.258      134.402      101.986        0.576      339.371       12.658      864.864
05/11/2014  13:07:00       51.444        3.914      115.846       85.497      103.919       75.959     7309.707    10799.121     5769.823        1.998        1.194       51.592       62.483        1.467      339.511       12.894      864.863
05/11/2014  13:08:00       41.005      -39.662       78.283       60.603      141.600       97.893     3672.673    20050.673     9583.028        2.134        1.665       57.049      110.249        3.735      339.236       12.430      864.894
05/11/2014  13:09:00       88.605      -33.194       43.473       82.646      101.706       69.516     6830.292    10344.051     4832.418        1.642        1.100       94.619       77.829        0.677      339.109       12.216      864.922
05/11/2014  13:10:00       24.334      -44.313       21.085       39.481       83.200       55.098     1558.764     6922.205     3035.757        0.726        0.576       50.554       58.427        1.336      338.681       11.498      864.941
05/11/2014  13:11:00     -136.542      -39.527      -22.437       44.033       36.397       26.565     1938.940     1324.762      705.689        1.234        0.198      142.148       19.913        0.020      338.525       11.234      864.915
05/11/2014  13:12:00     -120.636       26.271       -2.767       26.633       30.777       19.508      709.296      947.198      380.579        0.864        0.102      123.464        9.720        0.006      338.618       11.391      864.889
05/11/2014  13:13:00      -58.587       18.126       13.257       41.046       43.089       33.492     1684.783     1856.669     1121.694        0.430        0.233       61.327       31.908        0.271      339.310       12.556      864.864
05/11/2014  13:14:00      -39.873       -1.568       13.395       64.052       47.581       32.611     4102.705     2263.944     1063.476        0.460        0.372       39.904       39.141        0.962      339.653       13.136      864.840
05/11/2014  13:15:00      -25.745      -27.335        9.088       39.894       38.140       27.865     1591.549     1454.624      776.436        0.266        0.191       37.550       10.945        0.085      339.563       12.981      864.834
05/11/2014  13:16:00      -36.798      -90.661       22.479       66.569       74.174       48.111     4431.395     5501.762     2314.628        1.116        0.612       97.844       51.394        0.276      339.741       13.282      864.823
05/11/2014  13:17:00        8.125        9.368       60.706       41.448       55.156       47.000     1717.903     3042.192     2209.029        0.540        0.348       12.401       31.390        6.407      339.795       13.373      864.822
05/11/2014  13:18:00      114.546       33.378       80.831      126.421       92.841       63.392    15982.308     8619.495     4018.569        2.469        1.431      119.310       64.516        0.292      339.505       12.882      864.801
05/11/2014  13:19:00       -3.043       86.768      148.639       65.592       94.591       64.422     4302.345     8947.458     4150.227        2.351        0.870       86.821       59.621        0.472      339.680       13.178      864.772
05/11/2014  13:20:00       -7.876       65.096       98.730       43.032       65.119       73.786     1851.734     4240.508     5444.364        1.279        0.577       65.571       56.415        0.740      339.495       12.869      864.802
05/11/2014  13:21:00       73.676       14.974       32.593       86.741       65.776       46.109     7524.082     4326.494     2126.033        1.034        0.699       75.182       21.093        0.079      339.255       12.463      864.812
05/11/2014  13:22:00       26.839      -24.461        7.999       44.366       66.141       42.797     1968.367     4374.573     1831.583        0.478        0.409       36.314       32.673        0.810      339.704       13.220      864.807
05/11/2014  13:23:00       51.462       20.745       81.813       64.245       82.089       67.582     4127.389     6738.640     4567.357        1.260        0.772       55.486       51.919        0.876      339.865       13.492      864.772
05/11/2014  13:24:00       97.421      130.883      106.345      103.579      116.574       93.058    10728.625    13589.571     8659.835        3.545        1.649      163.160       81.130        0.247      339.176       12.329      864.776
05/11/2014  13:25:00       39.005        9.106       51.020       53.560      111.185       91.061     2868.683    12362.083     8292.135        1.386        1.176       40.054       91.549        5.224      339.289       12.519      864.764
05/11/2014  13:26:00       51.576       68.478       99.419       65.996       76.605       59.116     4355.537     5868.383     3494.652        1.547        0.686       85.728       61.305        0.511      339.511       12.894      864.763
05/11/2014  13:27:00        8.268       26.257       80.967       41.419       61.200       36.590     1715.569     3745.427     1338.856        0.706        0.340       27.528       38.483        1.954      340.095       13.879      864.773
05/11/2014  13:28:00       74.088      -70.201       15.424       80.946       92.457       50.997     6552.175     8548.246     2600.721        1.417        0.885      102.065       52.855        0.268      339.903       13.553      864.769
05/11/2014  13:29:00       99.386     -147.485      -13.765       79.279       86.321       61.395     6285.100     7451.243     3769.373        2.466        0.875      177.847       54.287        0.093      339.845       13.456      864.736
05/11/2014  13:30:00       89.547      -90.547       49.294      138.360      215.953       98.137    19143.576    46635.675     9630.805        4.701        3.771      127.348      115.453        0.822      339.910       13.566      864.696
05/11/2014  13:31:00      199.027      117.716       89.182      182.614      133.501      128.680    33347.863    17822.554    16558.429        6.456        3.386      231.233      107.700        0.217      339.733       13.266      864.723
05/11/2014  13:32:00      132.836       51.096       73.941      119.243      111.645       76.649    14218.951    12464.683     5875.070        2.913        1.628      142.324       70.871        0.248      339.580       13.009      864.760
05/11/2014  13:33:00      100.706      -43.167       44.385       84.283      106.590       63.371     7103.635    11361.462     4015.842        1.822        1.124      109.568       70.360        0.412      339.511       12.893      864.755
05/11/2014  13:34:00      113.688      -13.777       73.885      108.870      121.669       81.390    11852.631    14803.262     6624.374        2.592        1.664      114.520       75.826        0.438      339.510       12.890      864.772
05/11/2014  13:35:00       93.152      105.322       78.220       56.379       45.732       57.105     3178.601     2091.436     3261.034        1.721        0.427      140.605       43.117        0.094      339.154       12.293      864.763
05/11/2014  13:36:00       56.921       20.300       55.914       70.836       89.372       48.366     5017.695     7987.320     2339.318        1.106        0.767       60.432       49.916        0.682      339.540       12.943      864.723
05/11/2014  13:37:00       32.442     -154.113      -20.504       74.182       66.799       37.767     5502.921     4462.131     1426.359        1.831        0.570      157.491       34.432        0.048      339.882       13.519      864.702
05/11/2014  13:38:00       44.161     -100.443        4.223       68.154       73.499       57.633     4645.004     5402.123     3321.516        1.271        0.668      109.723       50.611        0.213      339.732       13.268      864.679
05/11/2014  13:39:00       25.508        5.846       56.367       65.708       44.866       31.392     4317.559     2012.968      985.456        0.559        0.366       26.169       27.980        1.143      339.683       13.185      864.656
05/11/2014  13:40:00       86.547        5.683       50.533       59.473       48.004       39.388     3537.022     2304.374     1551.415        0.873        0.370       86.733       36.501        0.177      339.411       12.725      864.631
05/11/2014  13:41:00       63.685      -49.842       31.450       54.357       77.867       49.796     2954.716     6063.264     2479.603        0.951        0.575       80.870       52.047        0.414      339.634       13.102      864.603
05/11/2014  13:42:00       21.389       36.966       51.287       47.365       64.123       49.424     2243.406     4111.710     2442.699        0.662        0.440       42.708       26.863        0.396      339.969       13.666      864.586
05/11/2014  13:43:00        6.533      -72.815       25.115       50.604      108.543       60.985     2560.804    11781.677     3719.187        1.201        0.903       73.108       55.188        0.570      340.347       14.304      864.568
05/11/2014  13:44:00       51.738       40.811      124.195       94.445      119.951       77.882     8919.926    14388.148     6065.542        2.456        1.469       65.896       91.215        1.916      339.964       13.658      864.545
05/11/2014  13:45:00       99.843       66.403      114.662       87.890      117.942       77.152     7724.623    13910.224     5952.456        2.755        1.379      119.908       87.890        0.537      339.573       12.997      864.544
05/11/2014  13:46:00       42.220       28.373       40.748       54.603       56.412       41.420     2981.494     3182.363     1715.644        0.606        0.394       50.868       40.744        0.642      339.668       13.160      864.538
05/11/2014  13:47:00      -27.388     -188.453      -12.944       80.406       91.330       42.677     6465.146     8341.239     1821.355        2.653        0.831      190.433       13.922        0.005      339.804       13.387      864.528
05/11/2014  13:48:00     -117.958     -111.510      -23.491       45.371      121.411       32.980     2058.518    14740.543     1087.655        2.239        0.894      162.323        9.658        0.004      339.361       12.640      864.497
05/11/2014  13:49:00      -31.440       12.092       23.557       74.046       43.602       38.685     5482.787     1901.177     1496.567        0.528        0.444       33.685       43.644        1.679      340.336       14.285      864.505
05/11/2014  13:50:00       67.768      -18.278       19.422       86.407       72.792       34.853     7466.221     5298.679     1214.739        0.964        0.699       70.190       37.974        0.293      340.312       14.246      864.515
05/11/2014  13:51:00       30.818       23.162       34.225       95.346       57.757       47.892     9090.816     3335.842     2293.666        0.869        0.736       38.552       37.247        0.933      340.493       14.550      864.495
05/11/2014  13:52:00       45.580       25.909       44.863       79.950       76.158       47.064     6391.951     5800.058     2214.986        0.958        0.720       52.429       27.761        0.280      340.488       14.543      864.513
05/11/2014  13:53:00       66.723       39.574       33.598       72.174       43.538       35.915     5209.105     1895.599     1289.861        0.777        0.420       77.576       35.712        0.212      340.027       13.765      864.522
05/11/2014  13:54:00       73.063       53.590       24.643       58.977       51.652       44.988     3478.309     2667.921     2023.920        0.849        0.409       90.610       30.450        0.113      339.939       13.618      864.532
05/11/2014  13:55:00      -10.388       76.988       -8.629       51.116       61.717       40.256     2612.871     3808.954     1620.547        0.707        0.402       77.686       32.998        0.180      339.771       13.334      864.526
05/11/2014  13:56:00       40.938       47.672       -3.873       61.955       52.740       37.655     3838.361     2781.490     1417.922        0.600        0.402       62.837       31.374        0.249      339.568       12.991      864.510
05/11/2014  13:57:00       19.650       15.568       18.555       52.187       69.076       34.447     2723.494     4771.539     1186.580        0.483        0.434       25.069       29.342        1.370      340.201       14.059      864.495
05/11/2014  13:58:00      -27.887      -33.982       -4.128       31.308       45.831       32.440      980.182     2100.492     1052.330        0.304        0.207       43.959       19.787        0.203      340.564       14.673      864.476
05/11/2014  13:59:00      121.123       48.924       21.345       82.479       68.514       55.926     6802.799     4694.169     3127.731        1.607        0.731      130.630       29.674        0.052      339.909       13.564      864.448
05/11/2014  14:00:00       88.456       90.004       73.459       75.468       55.492       60.341     5695.392     3079.313     3640.978        1.687        0.621      126.195       50.138        0.158      339.932       13.604      864.428
05/11/2014  14:01:00       62.598      -57.213       57.029       79.828      121.629       63.302     6372.479    14793.573     4007.195        1.780        1.259       84.805       61.857        0.532      340.455       14.486      864.404
05/11/2014  14:02:00       88.354     -150.782       -3.127      120.536      126.236       64.093    14528.811    15935.503     4107.973        3.255        1.729      174.761       67.316        0.148      340.316       14.251      864.387
05/11/2014  14:03:00      215.478     -194.287       46.720      145.358      221.360      108.616    21129.048    49000.038    11797.431        8.413        4.096      290.134      128.072        0.195      339.971       13.666      864.345
05/11/2014  14:04:00      181.810       17.872      123.290      179.271      199.763      124.339    32138.247    39905.330    15460.161        6.802        4.375      182.686      153.201        0.703      340.148       13.966      864.355
05/11/2014  14:05:00      113.427      -11.282       86.677      111.285      125.026       75.109    12384.376    15631.388     5641.293        2.707        1.683      113.987       84.639        0.551      339.948       13.630      864.404
05/11/2014  14:06:00      112.112     -171.698       -1.186       83.204       99.714       65.738     6922.962     9942.807     4321.441        3.161        1.059      205.059       69.456        0.115      339.987       13.696      864.364
05/11/2014  14:07:00      129.052       47.058       69.096      105.480      144.332       72.364    11125.946    20831.591     5236.517        3.041        1.860      137.364       85.122        0.384      340.074       13.841      864.363
05/11/2014  14:08:00      153.376       73.184       60.732       86.512       67.946       69.721     7484.347     4616.660     4861.057        2.476        0.848      169.942       51.158        0.091      340.062       13.822      864.376
05/11/2014  14:09:00       77.835      -24.078       47.236       84.609      150.908       90.564     7158.753    22773.336     8201.863        2.349        1.907       81.474      103.577        1.616      340.163       13.993      864.368
05/11/2014  14:10:00       62.684      -38.908       43.337       59.918      119.694       69.996     3590.216    14326.662     4899.376        1.506        1.141       73.778       78.660        1.137      340.249       14.139      864.350
05/11/2014  14:11:00       92.637      -28.385       79.149      103.982      132.247      101.739    10812.163    17489.279    10350.757        2.714        1.933       96.888       89.002        0.844      340.355       14.318      864.336
05/11/2014  14:12:00      110.776      -33.466       90.400      127.033      173.374      112.828    16137.447    30058.680    12730.122        4.023        2.946      115.721      138.967        1.442      340.099       13.884      864.338
05/11/2014  14:13:00      120.565      -43.362       52.994       96.624      169.584      114.957     9336.221    28758.892    13215.164        3.526        2.566      128.126      132.270        1.066      340.044       13.790      864.338
05/11/2014  14:14:00      143.718       86.813      109.311      109.398       92.199       66.449    11967.830     8500.712     4415.470        3.251        1.244      167.902       65.541        0.152      339.930       13.598      864.343
05/11/2014  14:15:00      134.575       42.834       89.548       81.131      121.173       86.911     6582.314    14682.876     7553.589        2.839        1.441      141.227       96.236        0.464      339.563       12.980      864.373
05/11/2014  14:16:00       46.899        9.136       73.016       56.081      116.867       68.813     3145.052    13657.954     4735.253        1.457        1.077       47.781       65.489        1.879      339.866       13.493      864.358
05/11/2014  14:17:00       88.029       77.095        4.205       82.024       67.097       67.025     6727.964     4501.944     4492.398        1.471        0.786      117.016       42.381        0.131      339.561       12.979      864.393
05/11/2014  14:18:00       25.398      -47.199       47.589       51.296       87.418       54.524     2631.322     7641.851     2972.852        0.919        0.662       53.598       61.942        1.336      339.770       13.330      864.378
05/11/2014  14:19:00       56.483       27.569       42.459       55.932       39.827       45.277     3128.383     1586.218     2050.004        0.626        0.338       62.852       28.076        0.200      339.717       13.242      864.373
05/11/2014  14:20:00       44.643       27.145       33.227       28.623       26.269       17.971      819.303      690.055      322.956        0.283        0.092       52.248       11.193        0.046      339.728       13.261      864.370
05/11/2014  14:21:00       10.496       46.216       -2.797       67.814       52.591       44.495     4598.688     2765.844     1979.797        0.580        0.467       47.392       48.985        1.068      339.597       13.040      864.361
05/11/2014  14:22:00       77.773       90.138        5.528       88.766       46.286       36.861     7879.320     2142.365     1358.767        1.279        0.569      119.053       24.344        0.042      339.793       13.369      864.333
05/11/2014  14:23:00     -102.059      189.435      -39.181       63.302       78.689       40.426     4007.179     6191.922     1634.273        2.983        0.592      215.178       38.124        0.031      339.860       13.480      864.299
05/11/2014  14:24:00       78.608       90.192       13.991      162.522       53.511       51.881    26413.506     2863.379     2691.655        2.323        1.598      119.641       31.420        0.069      340.476       14.521      864.293
05/11/2014  14:25:00      100.659       73.988       39.331      117.629       80.584       63.891    13836.573     6493.843     4082.083        2.078        1.221      124.926       20.918        0.028      340.739       14.967      864.320
05/11/2014  14:26:00       87.525      -73.176       13.590       85.356       76.153       55.081     7285.665     5799.328     3033.890        1.466        0.806      114.084       48.294        0.179      340.143       13.958      864.333
05/11/2014  14:27:00       62.580       62.161       72.053       61.325       98.275       62.236     3760.799     9657.878     3873.263        1.513        0.865       88.206       59.450        0.454      340.532       14.617      864.337
05/11/2014  14:28:00      161.210      106.551       78.588      130.997      103.417       80.085    17160.198    10695.130     6413.589        3.889        1.713      193.240       63.783        0.109      340.568       14.675      864.340
05/11/2014  14:29:00       55.146       40.889       15.443       88.878       65.208       49.861     7899.259     4252.105     2486.122        0.979        0.732       68.651       28.918        0.177      340.248       14.138      864.363
05/11/2014  14:30:00       27.769       79.950       -2.729       48.002       62.888       41.055     2304.234     3954.930     1685.515        0.756        0.397       84.635       35.161        0.173      340.253       14.147      864.336
05/11/2014  14:31:00       35.443       64.178       -8.642       53.195       76.127       40.073     2829.703     5795.352     1605.821        0.784        0.512       73.315       36.676        0.250      340.070       13.838      864.308
05/11/2014  14:32:00      108.010      178.910      -13.197       98.035      101.222       55.211     9610.875    10245.805     3048.305        3.337        1.145      208.985       54.670        0.068      340.272       14.174      864.279
05/11/2014  14:33:00      235.738      134.153        8.931       63.549       52.582       58.898     4038.419     2764.838     3468.979        4.196        0.514      271.237       24.759        0.008      339.994       13.704      864.285
05/11/2014  14:34:00       98.031       88.476       -7.391       40.904       33.679       25.588     1673.171     1134.274      654.722        1.048        0.173      132.053       18.327        0.019      339.739       13.280      864.280
05/11/2014  14:35:00       78.441       72.660        4.074       58.944       55.824       46.030     3474.371     3116.306     2118.786        1.008        0.435      106.922       37.282        0.122      339.988       13.697      864.256
05/11/2014  14:36:00       44.023      -19.975      -17.438       84.432      149.376       32.596     7128.727    22313.259     1062.500        1.657        1.525       48.342       48.623        1.012      340.333       14.281      864.240
05/11/2014  14:37:00      101.820      -78.530       18.924       79.760      103.381       65.283     6361.723    10687.615     4261.830        1.910        1.066      128.586       82.733        0.414      340.266       14.168      864.222
05/11/2014  14:38:00       74.589      -86.008       11.984       64.004       63.163       50.280     4096.537     3989.577     2528.086        1.186        0.531      113.846       48.229        0.179      340.228       14.103      864.194
05/11/2014  14:39:00       68.490      -94.750        0.063       34.982       58.939       36.078     1223.756     3473.775     1301.626        0.983        0.300      116.912       39.122        0.112      340.205       14.064      864.152
05/11/2014  14:40:00       27.292      -35.840       27.392       42.912       52.402       44.100     1841.413     2745.954     1944.789        0.465        0.327       45.049       31.420        0.486      340.760       15.004      864.114
05/11/2014  14:41:00        9.127       20.928       92.969       78.806       60.308       49.908     6210.417     3637.078     2490.836        1.075        0.617       22.832       51.170        5.023      341.002       15.412      864.111
05/11/2014  14:42:00       73.305       73.447      162.841      141.636      136.414       99.302    20060.754    18608.848     9860.957        4.290        2.427      103.769      101.819        0.963      340.765       15.009      864.088
05/11/2014  14:43:00      249.937     -219.189       21.414      157.881      234.855      159.430    24926.429    55156.817    25417.784       10.821        5.275      332.434      187.304        0.317      340.191       14.037      864.033
05/11/2014  14:44:00      173.214     -183.095      -15.267       97.819      160.305       85.174     9568.627    25697.800     7254.603        5.313        2.126      252.045       93.098        0.136      340.469       14.509      864.055
05/11/2014  14:45:00      113.483       98.060      118.263      101.820      132.150      101.390    10367.281    17463.549    10279.948        3.729        1.906      149.981       99.123        0.437      340.360       14.324      864.083
05/11/2014  14:46:00       62.714      -56.076       25.444       86.482      101.742       55.969     7479.210    10351.353     3132.491        1.434        1.048       84.128       62.468        0.551      340.727       14.946      864.076
05/11/2014  14:47:00      164.812     -118.086       58.723      133.658      190.266      102.235    17864.424    36201.276    10452.091        5.452        3.226      202.749      119.615        0.348      340.859       15.169      864.038
05/11/2014  14:48:00       98.521       32.836      127.446       89.286      146.523       90.881     7972.067    21469.136     8259.417        3.236        1.885      103.849      103.583        0.995      340.623       14.769      864.067
05/11/2014  14:49:00      113.283       15.804       35.632       95.058      151.844       63.189     9036.117    23056.587     3992.792        2.521        1.804      114.380       73.287        0.411      340.439       14.457      864.068
05/11/2014  14:50:00      195.741     -157.915       22.426      111.129      190.915      101.876    12349.634    36448.690    10378.779        6.145        2.959      251.499      126.380        0.253      340.495       14.552      864.050
05/11/2014  14:51:00      243.805     -288.097      -23.035      119.857      153.021       82.655    14365.770    23415.320     6831.829        9.378        2.231      377.413       93.001        0.061      340.281       14.189      864.032
05/11/2014  14:52:00      201.226     -167.520       -4.175      104.224      120.275       74.369    10862.727    14466.148     5530.749        4.971        1.543      261.829       72.966        0.078      340.327       14.268      864.049
05/11/2014  14:53:00       79.862       -3.513       59.524      124.397      162.744       94.175    15474.526    26485.561     8868.929        3.037        2.541       79.939      109.601        1.880      340.727       14.945      864.029
05/11/2014  14:54:00      134.497      -97.922       54.650      118.780      192.221       93.929    14108.736    36948.780     8822.749        4.526        2.994      166.368      129.828        0.609      340.649       14.812      864.002
05/11/2014  14:55:00      111.003     -190.880        3.596       86.307      129.165       56.492     7448.837    16683.723     3191.363        3.804        1.366      220.810       71.929        0.106      340.293       14.211      864.004
05/11/2014  14:56:00       66.803      -54.892       28.423       78.628      112.564       69.941     6182.334    12670.746     4891.702        1.601        1.187       86.462       76.902        0.791      340.782       15.039      863.988
05/11/2014  14:57:00       62.728      -53.773       46.112       73.484      138.499       69.001     5399.839    19181.883     4761.084        1.914        1.467       82.622       72.270        0.765      340.806       15.080      863.956
05/11/2014  14:58:00       85.399      -86.078       -1.781       69.215      109.094       50.597     4790.784    11901.403     2560.098        1.698        0.963      121.254       47.626        0.154      340.365       14.335      863.958
05/11/2014  14:59:00       -1.420       36.285       68.520       40.587       65.359       37.595     1647.321     4271.811     1413.408        0.667        0.367       36.312       37.761        1.081      340.892       15.228      863.915
05/11/2014  15:00:00       47.220       55.292       87.113       85.745       82.221       46.943     7352.126     6760.234     2203.645        1.459        0.816       72.711       44.515        0.375      340.923       15.279      863.919
05/11/2014  15:01:00      284.049      141.790       91.373      144.526      112.431       94.041    20887.794    12640.678     8843.652        7.575        2.119      317.472       74.577        0.055      340.509       14.574      863.879
05/11/2014  15:02:00      201.769      103.394       61.984       92.925      101.929       73.340     8635.045    10389.565     5378.726        3.982        1.220      226.718       56.492        0.062      340.605       14.738      863.866
05/11/2014  15:03:00      152.776       49.077       50.924      129.175       97.145       60.718    16686.241     9437.218     3686.635        2.907        1.491      160.465       48.770        0.092      340.997       15.402      863.866
05/11/2014  15:04:00      127.869      -49.245       33.724      109.983      105.268       73.631    12096.262    11081.254     5421.593        2.425        1.430      137.024       62.634        0.209      340.903       15.246      863.864
05/11/2014  15:05:00       92.710       -8.653       60.095      102.143      157.312       89.303    10433.242    24747.018     7975.004        2.771        2.158       93.113       92.759        0.992      340.671       14.851      863.891
05/11/2014  15:06:00      106.706       49.018       91.817      120.661      132.816       83.495    14559.040    17640.195     6971.377        3.069        1.959      117.426       91.222        0.603      340.726       14.945      863.919
05/11/2014  15:07:00       22.829       10.256       60.226       40.865       70.620       45.146     1669.912     4987.141     2038.204        0.647        0.435       25.027       28.948        1.338      340.826       15.114      863.929
05/11/2014  15:08:00      213.028      159.276       19.321      103.854       76.492       60.020    10785.669     5851.034     3602.374        4.568        1.012      265.988       51.022        0.037      340.813       15.091      863.953
05/11/2014  15:09:00      183.651       96.993       22.785       88.076       60.871       41.325     7757.302     3705.272     1707.744        2.841        0.659      207.691       27.666        0.018      340.496       14.554      863.963
05/11/2014  15:10:00      109.170       80.233       50.651       92.956       82.079       52.713     8640.784     6736.899     2778.647        1.954        0.908      135.482       38.057        0.079      341.055       15.500      863.937
05/11/2014  15:11:00      207.586      133.529       33.997      123.098       94.508       65.433    15153.085     8931.850     4281.499        4.522        1.418      246.824       45.536        0.034      340.439       14.456      863.893
05/11/2014  15:12:00      196.233      144.734       58.611       83.457       76.097       64.742     6964.994     5790.787     4191.543        3.992        0.847      243.834       24.724        0.010      340.494       14.550      863.852
05/11/2014  15:13:00      283.052      155.584       77.987      168.860      103.112      106.570    28513.707    10632.177    11357.196        8.044        2.525      322.993       88.077        0.074      340.453       14.481      863.794
05/11/2014  15:14:00      106.438       89.415       84.730      117.719       76.858       73.744    13857.727     5907.136     5438.243        2.585        1.260      139.011       58.561        0.177      340.700       14.900      863.814
05/11/2014  15:15:00      100.841      156.880      144.737       90.375       75.598       81.944     8167.578     5715.058     6714.848        3.816        1.030      186.494       56.875        0.093      340.504       14.568      863.811
05/11/2014  15:16:00      131.849     -101.239       12.128       67.364      123.159       53.360     4537.959    15168.069     2847.332        2.516        1.128      166.234       67.749        0.166      340.440       14.459      863.799
05/11/2014  15:17:00       76.125     -162.568       -2.133       78.919       98.059       62.313     6228.192     9615.487     3882.932        2.597        0.986      179.509       49.042        0.075      340.776       15.027      863.772
05/11/2014  15:18:00       32.750      -85.482       20.264       60.524       84.396       54.539     3663.173     7122.719     2974.555        1.127        0.688       91.541       43.018        0.221      340.949       15.323      863.764
05/11/2014  15:19:00       -6.753     -111.424        2.636      106.788      132.153       60.089    11403.731    17464.449     3610.631        2.247        1.624      111.628       74.100        0.441      341.149       15.661      863.766
05/11/2014  15:20:00       77.444      -68.083       -2.582       71.002       95.304       31.825     5041.316     9082.789     1012.816        1.289        0.757      103.116       39.999        0.150      340.459       14.493      863.799
05/11/2014  15:21:00       16.016       -8.327       32.960       38.561       36.599       34.420     1486.943     1339.495     1184.741        0.271        0.201       18.051       28.235        2.447      340.881       15.208      863.775
05/11/2014  15:22:00       69.752        0.855       54.315       72.895       88.601       68.104     5313.731     7850.101     4638.190        1.281        0.890       69.757       68.252        0.957      341.043       15.481      863.790
05/11/2014  15:23:00       62.649       71.311       12.286       64.645       87.653       47.189     4178.991     7683.081     2226.795        1.162        0.704       94.922       40.597        0.183      340.744       14.976      863.800
05/11/2014  15:24:00       96.900       72.490       31.027       68.360       61.482       46.442     4673.141     3780.016     2156.878        1.311        0.531      121.014       35.589        0.086      341.180       15.712      863.747
05/11/2014  15:25:00      134.913       90.244      107.792      124.467      103.824       89.356    15492.125    10779.473     7984.556        3.610        1.713      162.313       83.554        0.265      341.171       15.695      863.712
05/11/2014  15:26:00      131.216      130.249      104.220      108.875       92.384       97.015    11853.796     8534.726     9411.838        3.742        1.490      184.885       79.942        0.187      340.915       15.262      863.706
05/11/2014  15:27:00      106.049      180.902       -0.173      122.445       98.731       63.435    14992.860     9747.748     4023.970        3.636        1.438      209.695       53.979        0.066      341.216       15.773      863.745
05/11/2014  15:28:00       63.541      307.563      -35.227       69.420      121.440       69.854     4819.128    14747.571     4879.619        6.215        1.222      314.058       71.535        0.052      340.758       14.997      863.763
05/11/2014  15:29:00       41.520      145.635      -24.847       55.293       95.448       56.945     3057.344     9110.319     3242.698        1.948        0.771      151.438       50.301        0.110      340.839       15.134      863.779
05/11/2014  15:30:00      -34.015      200.445      -27.825       50.837       96.734       41.161     2584.411     9357.459     1694.195        2.787        0.682      203.311       43.353        0.045      340.824       15.108      863.793
05/11/2014  15:31:00      148.590      159.370       11.037      127.395       86.114       60.580    16229.368     7415.566     3669.947        3.745        1.366      217.894       42.816        0.039      340.731       14.951      863.795
05/11/2014  15:32:00      174.806      109.754       36.972       75.798       66.430       49.942     5745.385     4412.879     2494.220        2.831        0.633      206.405       34.986        0.029      340.524       14.600      863.752
05/11/2014  15:33:00      142.907      112.317       49.340       65.527       44.126       45.781     4293.799     1947.067     2095.890        2.190        0.417      181.762       29.675        0.027      340.802       15.072      863.719
05/11/2014  15:34:00      127.422       96.070       38.998       91.633       66.189       57.501     8396.629     4381.023     3306.334        2.153        0.804      159.580       40.469        0.064      340.853       15.159      863.736
05/11/2014  15:35:00      272.687      155.000       42.129      101.428       87.934       73.513    10287.711     7732.438     5404.177        6.179        1.171      313.661       26.725        0.007      340.820       15.100      863.742
05/11/2014  15:36:00      191.339      133.026       39.717      101.297       75.457       85.419    10261.180     5693.735     7296.477        3.956        1.163      233.037       74.100        0.101      340.765       15.006      863.753
05/11/2014  15:37:00      205.365      132.775       48.779      103.714       80.735       77.115    10756.638     6518.147     5946.660        4.270        1.161      244.548       56.017        0.052      340.944       15.312      863.728
05/11/2014  15:38:00      212.502      110.192        9.045       96.548       84.166       66.572     9321.439     7084.000     4431.869        3.910        1.042      239.372       51.266        0.046      340.591       14.714      863.768
05/11/2014  15:39:00       75.898      -56.924       -6.148       63.879      110.718       55.240     4080.500    12258.555     3051.488        1.421        0.970       94.873       52.174        0.302      340.647       14.811      863.727
05/11/2014  15:40:00       58.705      101.358       22.540       92.044       57.481       52.760     8472.083     3304.080     2783.667        1.439        0.728      117.131       34.480        0.087      341.060       15.510      863.721
05/11/2014  15:41:00      114.274       80.319       43.540      127.978       67.858       53.264    16378.452     4604.642     2837.061        2.261        1.191      139.677       28.888        0.043      341.409       16.100      863.730
05/11/2014  15:42:00       90.423       80.965        0.964       78.695       70.500       51.368     6192.950     4970.301     2638.703        1.426        0.690      121.374       21.041        0.030      341.050       15.493      863.715
05/11/2014  15:43:00       95.795       50.170       54.846       99.234       71.731       59.773     9847.465     5145.308     3572.816        1.663        0.928      108.137       46.285        0.183      340.992       15.395      863.676
05/11/2014  15:44:00      159.656       85.828       50.929      124.991       82.976       62.965    15622.651     6884.980     3964.577        3.096        1.324      181.264       65.438        0.130      341.159       15.676      863.651
05/11/2014  15:45:00      162.927      128.757       29.652       88.985       73.736       55.880     7918.324     5436.932     3122.570        3.024        0.824      207.662       20.742        0.010      340.605       14.737      863.633
05/11/2014  15:46:00       62.522       32.010       50.601       81.361       66.132       37.210     6619.553     4373.470     1384.557        0.993        0.619       70.240       28.740        0.167      341.197       15.741      863.618
05/11/2014  15:47:00       62.598        9.258       19.071       63.107       96.095       50.415     3982.494     9234.199     2541.671        1.006        0.788       63.279       25.888        0.167      341.358       16.014      863.608
05/11/2014  15:48:00       42.568       54.296       62.663       56.202       68.234       45.833     3158.626     4655.905     2100.698        0.930        0.496       68.993       42.367        0.377      341.260       15.849      863.615
05/11/2014  15:49:00       31.550       -4.662       50.899       51.023       78.006       42.500     2603.349     6084.937     1806.278        0.705        0.525       31.892       34.763        1.188      341.074       15.533      863.596
05/11/2014  15:50:00      113.116      116.115      100.401      102.432       96.463       74.794    10492.254     9305.083     5594.146        3.087        1.270      162.105       67.202        0.172      340.913       15.261      863.589
05/11/2014  15:51:00      129.443      126.967       21.808       73.131       77.297       68.391     5348.125     5974.821     4677.274        2.467        0.800      181.318       52.694        0.084      341.054       15.498      863.618
05/11/2014  15:52:00       85.331       93.014       19.834       91.699       58.352       58.559     8408.758     3404.990     3429.141        1.578        0.762      126.226       38.801        0.094      341.217       15.776      863.626
05/11/2014  15:53:00       -2.270      108.549       -7.982       60.619       60.001       37.190     3674.630     3600.074     1383.113        1.025        0.433      108.572       33.715        0.096      341.364       16.026      863.643
05/11/2014  15:54:00      -51.456      169.950      -16.336       39.250       72.810       34.748     1540.569     5301.280     1207.442        1.992        0.402      177.569       35.785        0.041      341.189       15.729      863.645
05/11/2014  15:55:00      -75.633       72.332        7.179       58.285       68.448       54.997     3397.171     4685.159     3024.681        1.105        0.555      104.653       42.865        0.168      341.412       16.106      863.659
05/11/2014  15:56:00      -64.017      126.583      -26.793       42.997       77.089       30.108     1848.764     5942.680      906.475        1.477        0.435      141.850       28.594        0.041      341.046       15.487      863.672
05/11/2014  15:57:00      -14.208       -6.515        1.089       33.587       34.827       26.919     1128.056     1212.927      724.626        0.165        0.153       15.631       21.761        1.938      341.180       15.715      863.648
05/11/2014  15:58:00       41.283        7.291       20.550       31.882       30.953       26.624     1016.457      958.097      708.827        0.243        0.134       41.922       25.342        0.365      341.020       15.443      863.624
05/11/2014  15:59:00       15.190       -5.055       39.093       24.275       27.219       20.659      589.285      740.889      426.796        0.177        0.088       16.009        6.786        0.180      340.967       15.354      863.618
05/11/2014  16:00:00       10.767      -25.174       13.158       36.959       30.582       20.919     1366.003      935.237      437.603        0.183        0.137       27.379       20.195        0.544      340.919       15.273      863.605
05/11/2014  16:01:00     -103.283      -47.259       -8.313       42.849       68.819       24.149     1836.025     4736.093      583.181        1.006        0.358      113.582       11.930        0.011      341.086       15.556      863.569
05/11/2014  16:02:00        0.703       70.271       20.103       94.014       44.830       37.945     8838.586     2009.771     1439.820        0.881        0.614       70.274       39.892        0.322      341.410       16.102      863.530
05/11/2014  16:03:00       27.007       69.259       -8.662       46.807       68.207       36.843     2190.882     4652.199     1357.394        0.690        0.410       74.338       34.333        0.213      341.460       16.188      863.529
05/11/2014  16:04:00       56.327       51.472       31.533       47.004       46.832       42.046     2209.354     2193.193     1767.831        0.649        0.309       76.302       23.403        0.094      341.247       15.827      863.528
05/11/2014  16:05:00       13.466       13.952       31.081       54.176       57.151       40.434     2935.000     3266.279     1634.871        0.459        0.392       19.390       30.711        2.508      341.346       15.996      863.506
05/11/2014  16:06:00       47.236       82.500       89.948       80.151       67.737       58.158     6424.189     4588.335     3382.375        1.576        0.720       95.066       42.246        0.197      341.241       15.816      863.506
05/11/2014  16:07:00      132.027       86.809       62.433       95.179       56.545       62.400     9059.030     3197.356     3893.744        2.250        0.808      158.009       63.733        0.163      341.084       15.549      863.513
05/11/2014  16:08:00       52.968      114.807      -11.630       44.574       91.508       44.209     1986.848     8373.645     1954.437        1.422        0.616      126.437       49.095        0.151      341.226       15.792      863.543
05/11/2014  16:09:00       89.693      121.327       20.733      100.142      102.866       67.084    10028.476    10581.469     4500.320        2.415        1.256      150.881       58.719        0.151      341.230       15.797      863.557
05/11/2014  16:10:00       67.900      165.977      -20.770       67.038       87.646       57.591     4494.145     7681.904     3316.672        2.404        0.775      179.329       56.465        0.099      340.978       15.369      863.575
05/11/2014  16:11:00       16.792      156.139      -21.927       62.695       70.977       44.586     3930.713     5037.725     1987.903        1.805        0.548      157.040       39.347        0.063      341.093       15.566      863.565
05/11/2014  16:12:00      -46.828      229.863      -16.126       93.746      126.549       67.468     8788.279    16014.572     4551.887        4.232        1.468      234.584       72.674        0.096      341.525       16.295      863.557
05/11/2014  16:13:00     -125.829      157.557      -31.790       74.391       91.296       42.479     5533.961     8334.936     1804.443        2.867        0.784      201.636       47.994        0.057      341.257       15.842      863.563
05/11/2014  16:14:00     -145.048      126.934      -28.375       60.328       73.523       48.013     3639.485     5405.654     2305.250        2.465        0.568      192.746       42.904        0.050      341.201       15.747      863.554
05/11/2014  16:15:00     -108.762      135.589      -31.531       59.938       77.407       29.952     3592.573     5991.769      897.127        2.084        0.524      173.820       27.758        0.026      341.053       15.498      863.543
05/11/2014  16:16:00      -76.879       32.326       -6.764       90.178       47.028       36.826     8132.090     2211.624     1356.130        0.935        0.585       83.399       39.275        0.222      341.278       15.879      863.515
05/11/2014  16:17:00     -165.499       -4.933       -2.672       86.621       44.831       37.162     7503.237     2009.804     1381.046        1.916        0.545      165.573       34.315        0.043      341.179       15.710      863.505
05/11/2014  16:18:00       42.359       30.994       27.097       27.982       38.184       27.203      783.010     1457.990      740.030        0.323        0.149       52.487       13.771        0.069      341.502       16.257      863.516
05/11/2014  16:19:00      103.627       79.918       39.578       53.806       63.486       64.266     2895.064     4030.426     4130.124        1.487        0.553      130.864       30.746        0.055      341.439       16.152      863.495
05/11/2014  16:20:00      124.295       72.876       31.072       94.539       77.115       73.574     8937.664     5946.690     5413.195        2.101        1.015      144.084       46.635        0.105      341.444       16.159      863.490
05/11/2014  16:21:00      130.062       53.254      120.284      106.766      118.160       79.187    11399.071    13961.717     6270.597        3.292        1.582      140.542       82.033        0.341      341.293       15.903      863.449
05/11/2014  16:22:00       99.281      146.540      118.777      140.725       90.749       82.239    19803.512     8235.327     6763.237        4.011        1.740      177.005       59.942        0.115      341.408       16.098      863.428
05/11/2014  16:23:00      150.362      122.193       77.658      104.444       78.569       68.538    10908.465     6173.046     4697.525        3.267        1.089      193.752       44.364        0.052      341.453       16.174      863.473
05/11/2014  16:24:00      171.323      131.032       47.203      102.779       78.742       69.756    10563.584     6200.262     4865.952        3.519        1.081      215.687       24.973        0.013      341.323       15.953      863.475
05/11/2014  16:25:00      144.108       61.231       64.464      156.323      121.599       92.002    24436.858    14786.353     8464.385        3.817        2.384      156.577       91.504        0.342      341.599       16.422      863.454
05/11/2014  16:26:00       11.769      359.692      -20.364      116.083      177.874       83.655    13475.165    31639.109     6998.099        9.101        2.606      359.884       97.277        0.073      341.482       16.222      863.517
05/11/2014  16:27:00       11.861      146.665        0.204       74.202      105.584       62.112     5505.960    11147.955     3857.928        2.108        1.026      147.144       58.223        0.157      341.669       16.540      863.523
05/11/2014  16:28:00       19.972      360.680      -43.926       83.053      115.437       53.961     6897.782    13325.699     2911.758        7.777        1.157      361.233       49.790        0.019      341.293       15.902      863.539
05/11/2014  16:29:00        9.293      228.657      -26.212       62.369       97.927       53.325     3889.924     9589.668     2843.514        3.469        0.816      228.846       56.738        0.061      341.431       16.136      863.550
05/11/2014  16:30:00       29.502      182.433        0.391       74.184      101.083       58.613     5503.224    10217.845     3435.451        2.665        0.958      184.803       58.622        0.101      341.359       16.015      863.543
05/11/2014  16:31:00      180.249       94.857       15.365       57.488       42.958       42.490     3304.911     1845.422     1805.375        2.434        0.348      203.685       13.127        0.004      341.077       15.537      863.512
05/11/2014  16:32:00       74.150      198.552      -19.260      119.236      125.808       50.099    14217.206    15827.574     2509.935        3.892        1.628      211.946       64.810        0.094      341.325       15.957      863.508
05/11/2014  16:33:00      -76.537      389.897      -50.318       61.738       75.648       39.476     3811.596     5722.607     1558.340        8.575        0.555      397.338       34.938        0.008      341.219       15.777      863.542
05/11/2014  16:34:00      -69.754      217.308      -28.789       72.890       70.529       44.112     5312.904     4974.294     1945.903        3.257        0.612      228.229       41.893        0.034      341.415       16.109      863.537
05/11/2014  16:35:00      -76.881       64.649      -11.215       99.406       79.003       36.658     9881.628     6241.418     1343.805        1.384        0.873      100.450       28.226        0.079      341.420       16.120      863.502
05/11/2014  16:36:00      -75.164      291.194      -24.077      115.234      155.854       53.842    13278.913    24290.581     2898.982        6.574        2.023      300.738       63.002        0.044      341.294       15.905      863.484
05/11/2014  16:37:00     -237.559      206.262      -59.873       91.292       98.464       57.574     8334.159     9695.198     3314.755        6.195        1.067      314.608       57.123        0.033      341.286       15.891      863.517
05/11/2014  16:38:00      -71.153      160.850      -22.632       57.718       46.583       40.928     3331.407     2169.948     1675.108        1.931        0.359      175.885       41.387        0.055      341.164       15.685      863.496
05/11/2014  16:39:00      -66.147       84.029       -9.840       55.947       96.036       37.254     3130.084     9222.958     1387.846        1.263        0.687      106.941       35.357        0.109      341.330       15.968      863.477
05/11/2014  16:40:00     -221.189      -18.091      -27.238      118.364       71.747       50.200    14009.984     5147.669     2519.995        3.583        1.084      221.928       39.050        0.031      341.689       16.573      863.406
05/11/2014  16:41:00     -249.498       96.347      -20.711      117.655      163.581       82.922    13842.731    26758.819     6876.042        5.971        2.374      267.455       74.099        0.077      341.985       17.074      863.361
05/11/2014  16:42:00      -79.257      226.625      -26.748      102.572      168.250       67.736    10520.935    28307.963     4588.122        5.088        2.171      240.085       59.274        0.061      341.725       16.636      863.417
05/11/2014  16:43:00       -3.962      164.087        4.641      112.444      120.916       65.338    12643.665    14620.708     4269.074        2.924        1.577      164.135       74.440        0.206      341.715       16.617      863.464
05/11/2014  16:44:00      -11.697      325.028      -24.622       99.642      142.970       65.051     9928.547    20440.287     4231.579        7.049        1.730      325.238       73.718        0.051      341.523       16.292      863.473
05/11/2014  16:45:00      -61.052      287.606      -32.407      103.519      163.987       53.425    10716.256    26891.752     2854.271        6.397        2.023      294.015       62.095        0.045      341.625       16.464      863.471
05/11/2014  16:46:00     -119.007      243.961      -27.318      127.272      136.940       63.191    16198.128    18752.495     3993.142        5.668        1.947      271.440       71.515        0.069      341.645       16.498      863.490
05/11/2014  16:47:00      -82.322      228.481      -18.068       97.097      113.812       58.365     9427.753    12953.262     3406.477        4.254        1.289      242.859       52.840        0.047      341.369       16.032      863.481
05/11/2014  16:48:00        5.001      165.082      -20.147       94.139      130.268       62.520     8862.240    16969.866     3908.715        2.871        1.487      165.158       62.361        0.143      341.454       16.176      863.437
05/11/2014  16:49:00        0.963      132.087        1.044       47.659       69.984       40.121     2271.345     4897.798     1609.668        1.311        0.439      132.090       39.405        0.089      341.591       16.410      863.427
05/11/2014  16:50:00       72.179      117.297        3.305       66.836       61.906       58.034     4467.060     3832.366     3367.921        1.532        0.583      137.726       41.662        0.092      341.663       16.531      863.435
05/11/2014  16:51:00       31.321      132.685      -21.967       63.371       68.801       39.527     4015.841     4733.534     1562.374        1.469        0.516      136.331       27.172        0.040      341.735       16.654      863.414
05/11/2014  16:52:00       51.094      196.074      -15.099       79.530      158.122       59.479     6325.097    25002.678     3537.713        3.807        1.743      202.622       78.330        0.149      341.754       16.685      863.437
05/11/2014  16:53:00      230.010      184.254       21.029      170.685      135.994       76.399    29133.530    18494.383     5836.876        7.037        2.673      294.711       61.064        0.043      341.625       16.464      863.445
05/11/2014  16:54:00      145.689      292.001      -23.847      111.623      132.532       98.595    12459.730    17564.622     9720.951        7.339        1.987      326.328       85.209        0.068      341.384       16.056      863.479
05/11/2014  16:55:00       99.548      242.363      -24.676      113.151      147.183       94.284    12803.201    21662.851     8889.560        5.630        2.168      262.011       86.533        0.109      341.454       16.175      863.513
05/11/2014  16:56:00       -0.154      226.327      -20.261       96.580       78.709       53.198     9327.737     6195.051     2830.057        3.499        0.918      226.327       52.459        0.054      341.177       15.703      863.531
05/11/2014  16:57:00        0.796      296.103      -48.218       43.451       58.104       29.763     1888.025     3376.035      885.837        4.808        0.307      296.104       23.601        0.006      341.171       15.693      863.524
05/11/2014  16:58:00      157.291      138.954       15.523       77.898       89.572       60.287     6068.069     8023.151     3634.547        3.100        0.886      209.878       54.773        0.068      341.449       16.167      863.523
05/11/2014  16:59:00       75.635      215.191       -6.573       96.970      105.760       68.638     9403.196    11185.263     4711.115        3.868        1.265      228.097       69.454        0.093      341.268       15.860      863.545
05/11/2014  17:00:00       49.087      252.690      -35.078       94.259      107.988       67.166     8884.703    11661.466     4511.264        4.627        1.253      257.414       49.299        0.037      341.301       15.916      863.542
05/11/2014  17:01:00      240.522      109.237       19.829      127.390       75.014       65.424    16228.111     5627.109     4280.344        4.815        1.307      264.166       40.975        0.024      341.306       15.923      863.487
05/11/2014  17:02:00       43.254        2.223       12.243       82.083       75.631       47.689     6737.584     5720.072     2274.249        0.838        0.737       43.311       36.516        0.711      341.701       16.598      863.467
05/11/2014  17:03:00      -44.036       81.335      -11.930      100.388       75.121       35.080    10077.763     5643.145     1230.610        1.282        0.848       92.491       37.656        0.166      341.693       16.582      863.492
05/11/2014  17:04:00      157.311       96.643       23.884      140.834       86.269       69.210    19834.279     7442.368     4790.079        3.336        1.603      184.625       39.232        0.045      341.378       16.048      863.478
05/11/2014  17:05:00       78.182      154.371        1.580      111.986      131.736       68.755    12540.754    17354.312     4727.315        3.228        1.731      173.040       68.708        0.158      341.660       16.523      863.460
05/11/2014  17:06:00       40.057      344.972      -37.543      138.034      186.341       82.223    19053.481    34722.966     6760.622        9.127        3.027      347.290       90.842        0.068      341.562       16.357      863.499
05/11/2014  17:07:00      130.275      169.064        4.699      107.578      107.589       74.615    11572.999    11575.382     5567.369        3.714        1.436      213.434       70.209        0.108      341.406       16.094      863.492
05/11/2014  17:08:00      125.672      239.326      -19.358      103.042      113.866       69.578    10617.647    12965.385     4841.118        5.093        1.421      270.315       64.049        0.056      341.336       15.974      863.483
05/11/2014  17:09:00      110.799      180.984        5.438      132.570      149.350       89.775    17574.928    22305.332     8059.550        4.649        2.397      212.207       83.271        0.154      341.539       16.319      863.454
05/11/2014  17:10:00     -160.876      278.995      -29.481      141.443      195.399       79.902    20006.001    38180.674     6384.271        8.457        3.229      322.055       96.074        0.089      341.728       16.638      863.483
05/11/2014  17:11:00      -65.058      298.083      -38.219      109.810      138.291       62.955    12058.301    19124.354     3963.362        6.484        1.757      305.100       42.469        0.019      341.834       16.819      863.493
05/11/2014  17:12:00      -21.565      345.313      -38.073      117.291      178.720       76.451    13757.140    31940.838     5844.830        8.634        2.577      345.985       96.817        0.078      341.567       16.367      863.474
05/11/2014  17:13:00      -46.298      302.927      -24.835       67.569      154.569       59.738     4565.632    23891.600     3568.577        6.327        1.601      306.445       78.954        0.066      341.590       16.406      863.476
05/11/2014  17:14:00       99.941      256.050      -31.619      113.065      147.290       74.493    12783.596    21694.486     5549.259        5.828        2.001      274.864       78.084        0.081      341.755       16.685      863.459
05/11/2014  17:15:00      101.546      189.047        2.103      138.930      135.019       93.010    19301.636    18230.148     8650.784        4.611        2.309      214.594       80.229        0.140      341.481       16.221      863.456
05/11/2014  17:16:00      144.215      115.630       10.624      124.867      105.923       90.313    15591.820    11219.669     8156.383        3.462        1.748      184.847       66.220        0.128      341.460       16.184      863.461
05/11/2014  17:17:00      133.762      234.979      -11.900      111.574      160.681       88.780    12448.730    25818.338     7881.865        5.969        2.307      270.384       90.368        0.112      341.383       16.056      863.460
05/11/2014  17:18:00      122.772      245.383      -20.073      108.090      151.161       91.073    11683.545    22849.598     8294.323        5.925        2.141      274.383       90.376        0.108      341.428       16.130      863.450
05/11/2014  17:19:00       24.689      199.623      -14.366       82.784      145.235       63.048     6853.231    21093.104     3975.054        3.629        1.596      201.144       77.862        0.150      341.609       16.439      863.455
05/11/2014  17:20:00      -98.218      274.787      -27.500       92.676      117.242       59.647     8588.896    13745.686     3557.756        5.590        1.295      291.813       52.888        0.033      341.837       16.823      863.484
05/11/2014  17:21:00      -90.335      500.109      -69.395       80.121      148.312       49.950     6419.355    21996.496     2495.015       14.699        1.546      508.202       58.003        0.013      341.324       15.953      863.510
05/11/2014  17:22:00        1.572      331.170      -31.246      106.925      189.527       75.178    11432.899    35920.598     5651.706        8.182        2.650      331.174       98.735        0.089      341.412       16.103      863.490
05/11/2014  17:23:00      -17.842      372.289      -51.422      102.696      155.646       61.390    10546.477    24225.627     3768.750        9.004        1.927      372.716       75.747        0.041      341.482       16.220      863.476
05/11/2014  17:24:00       62.159      313.081      -23.954      113.077      181.985       93.857    12786.483    33118.638     8809.120        7.857        2.736      319.192      102.431        0.103      341.575       16.378      863.468
05/11/2014  17:25:00       57.762      322.534      -21.376      117.047      192.552      102.899    13699.945    37076.122    10588.280        8.458        3.068      327.666      115.219        0.124      341.593       16.410      863.479
05/11/2014  17:26:00      -28.384      487.418      -67.358      115.961      153.020       72.186    13446.971    23415.138     5210.748       14.249        2.104      488.244       77.839        0.025      341.385       16.058      863.482
05/11/2014  17:27:00        5.993      375.702      -42.583      112.114      187.131       79.945    12569.642    35017.933     6391.168        9.848        2.699      375.749       89.325        0.057      341.417       16.113      863.473
05/11/2014  17:28:00      -33.006      464.271      -42.460      101.889      158.043       74.132    10381.445    24977.569     5495.546       12.964        2.043      465.442       78.787        0.029      341.365       16.025      863.478
05/11/2014  17:29:00      -44.497      472.906      -83.445       87.982      144.943       51.356     7740.791    21008.613     2637.397       13.198        1.569      474.994       49.642        0.011      341.440       16.150      863.498
05/11/2014  17:30:00       10.457      429.662      -48.159       84.607      203.101       80.445     7158.322    41250.080     6471.340       12.095        2.744      429.790      104.306        0.059      341.434       16.140      863.493
05/11/2014  17:31:00      -39.072      171.349       13.599       98.819      150.478       73.382     9765.289    22643.748     5384.876        3.443        1.890      175.747       85.223        0.235      341.593       16.410      863.484
05/11/2014  17:32:00     -167.949      400.154      -64.548      130.662      125.779       82.014    17072.520    15820.482     6726.353       11.605        1.981      433.970       77.778        0.032      341.375       16.041      863.481
05/11/2014  17:33:00       43.829      445.294      -45.364       98.193      222.829       88.366     9641.951    49652.729     7808.538       13.467        3.355      447.445      121.349        0.074      341.266       15.854      863.478
05/11/2014  17:34:00        2.483      374.153      -37.305      107.410      130.089       67.489    11536.883    16923.267     4554.821        8.720        1.651      374.161       67.572        0.033      341.345       15.989      863.471
05/11/2014  17:35:00       33.738      356.508      -49.491      105.525      153.870       72.596    11135.558    23676.110     5270.111        8.538        2.004      358.101       85.489        0.057      341.464       16.191      863.464
05/11/2014  17:36:00       22.022      140.542        4.094       88.877      127.892       68.335     7899.096    16356.327     4669.710        2.458        1.446      142.257       70.945        0.249      341.654       16.516      863.471
05/11/2014  17:37:00      135.550      186.023       11.696      112.995      110.616       71.042    12767.859    12235.953     5046.917        4.158        1.503      230.170       58.711        0.065      341.421       16.119      863.470
05/11/2014  17:38:00       25.891      294.927      -27.362       90.532      147.585       67.709     8195.958    21781.368     4584.563        6.147        1.728      296.062       57.765        0.038      341.482       16.223      863.453
05/11/2014  17:39:00       71.435      274.833      -23.425      154.754      196.847       72.375    23948.698    38748.852     5238.165        7.455        3.397      283.965       94.429        0.111      341.512       16.274      863.449
05/11/2014  17:40:00      124.307      217.608      -10.623      116.930      146.338       84.504    13672.723    21414.880     7140.935        5.257        2.111      250.610       81.429        0.106      341.379       16.048      863.434
05/11/2014  17:41:00       93.896      117.386       -2.314      115.412       79.196       61.736    13319.846     6272.011     3811.350        2.300        1.170      150.320       51.806        0.119      341.451       16.170      863.423
05/11/2014  17:42:00       41.237      249.804      -28.495       83.291      158.401       70.340     6937.431    25090.916     4947.695        5.094        1.849      253.185       81.649        0.104      341.605       16.431      863.440
05/11/2014  17:43:00      -39.427      220.535      -19.811      105.501      135.040       65.924    11130.478    18235.917     4345.926        4.214        1.686      224.032       76.659        0.117      341.737       16.655      863.466
05/11/2014  17:44:00      -52.098      328.305      -40.741      120.685      170.613       73.883    14564.927    29108.902     5458.712        8.064        2.457      332.413       86.070        0.067      341.503       16.257      863.475
05/11/2014  17:45:00       33.211      170.401      -11.341       80.720      112.176       68.100     6515.771    12583.564     4637.588        2.700        1.187      173.607       65.271        0.141      341.718       16.622      863.457
05/11/2014  17:46:00       45.766      196.536      -17.233       84.800      158.298       57.789     7191.101    25058.205     3339.555        3.830        1.779      201.794       67.639        0.112      341.705       16.601      863.468
05/11/2014  17:47:00       23.238       69.164       29.160      111.117       94.922       82.205    12346.915     9010.102     6757.727        1.714        1.406       72.963       35.160        0.232      341.638       16.488      863.474
05/11/2014  17:48:00     -141.099      338.950      -56.821      158.928      144.497       63.163    25258.143    20879.438     3989.605        9.407        2.506      367.146       66.797        0.033      341.484       16.226      863.493
05/11/2014  17:49:00      -58.548      328.450      -35.073       88.601      120.567       52.247     7850.167    14536.429     2729.698        6.882        1.256      333.627       52.171        0.024      341.508       16.267      863.500
05/11/2014  17:50:00      -84.244      267.112      -28.234       94.994      116.234       54.082     9023.829    13510.334     2924.868        5.235        1.273      280.082       53.401        0.036      341.486       16.227      863.501
05/11/2014  17:51:00      -80.244      393.481      -56.450       84.134      114.605       43.722     7078.579    13134.324     1911.584        9.328        1.106      401.580       45.662        0.013      341.303       15.920      863.496
05/11/2014  17:52:00     -109.689      268.244      -30.278       95.698      117.682       52.952     9158.078    13849.156     2803.905        5.535        1.291      289.804       56.795        0.038      341.421       16.117      863.485
05/11/2014  17:53:00       18.173      277.975       -7.474      131.266      173.731       84.084    17230.836    30182.323     7070.065        6.606        2.724      278.569       80.815        0.084      341.516       16.280      863.493
05/11/2014  17:54:00      119.521      263.087      -21.354      123.140      177.506       82.907    15163.547    31508.480     6873.640        6.874        2.677      288.963       96.240        0.111      341.420       16.117      863.517
05/11/2014  17:55:00      112.131      283.939      -14.703      116.500      165.630       79.693    13572.136    27433.227     6350.924        7.037        2.368      305.278       92.122        0.091      341.349       15.995      863.527
05/11/2014  17:56:00       19.238      220.965      -32.031      134.990      110.067       50.450    18222.197    12114.788     2545.206        4.155        1.644      221.801       49.071        0.049      341.382       16.053      863.523
05/11/2014  17:57:00     -136.231      288.588      -44.718       91.496      101.117       53.987     8371.515    10224.602     2914.587        6.267        1.076      319.127       50.341        0.025      341.380       16.048      863.522
05/11/2014  17:58:00     -119.945      216.044      -21.676       70.197       96.595       48.891     4927.640     9330.561     2390.321        3.909        0.832      247.107       47.956        0.038      341.432       16.137      863.501
05/11/2014  17:59:00     -141.609      271.473      -38.716       89.250      115.728       57.468     7965.527    13392.980     3302.570        5.995        1.233      306.188       58.146        0.036      341.322       15.952      863.479
05/11/2014  18:00:00        4.362      261.735      -30.723      114.954      123.096       64.099    13214.442    15152.698     4108.684        5.097        1.624      261.771       65.770        0.063      341.435       16.142      863.494
05/11/2014  18:01:00       29.136      425.406      -65.527       78.332      110.641       44.481     6135.844    12241.420     1978.522       10.323        1.018      426.403       40.940        0.009      341.331       15.966      863.497
05/11/2014  18:02:00       57.238      261.572      -12.722      121.153      162.010       98.429    14678.094    26247.311     9688.350        6.123        2.531      267.761       99.560        0.138      341.341       15.984      863.501
05/11/2014  18:03:00        0.668      442.302      -63.035       85.403      156.102       56.088     7293.632    24367.860     3145.866       11.720        1.740      442.303       73.189        0.027      341.262       15.849      863.530
05/11/2014  18:04:00      -44.749      398.168      -53.127      102.288      110.679       47.224    10462.916    12249.846     2230.084        9.415        1.247      400.674       49.229        0.015      341.314       15.937      863.546
05/11/2014  18:05:00      -21.410      266.239      -27.689       58.150      109.534       45.405     3381.401    11997.765     2061.588        4.477        0.872      267.099       46.546        0.030      341.423       16.122      863.556
05/11/2014  18:06:00      -24.274      361.681      -33.325       92.850      119.905       65.550     8621.153    14377.100     4296.849        7.990        1.365      362.495       65.417        0.033      341.405       16.092      863.565
05/11/2014  18:07:00      -64.802      353.684      -50.498      105.791       89.414       52.791    11191.753     7994.876     2786.894        7.690        1.099      359.572       45.020        0.016      341.222       15.782      863.581
05/11/2014  18:08:00       28.571      311.724      -45.979       81.814      145.296       56.994     6693.537    21110.912     3248.260        6.557        1.553      313.031       64.253        0.042      341.074       15.531      863.573
05/11/2014  18:09:00       23.001      100.956        9.698      117.586       68.508       52.176    13826.579     4693.339     2722.289        1.602        1.062      103.543       50.941        0.242      341.261       15.850      863.523
05/11/2014  18:10:00        0.669      180.602      -18.231       56.492       70.647       39.492     3191.315     4991.009     1559.615        2.134        0.487      180.603       39.082        0.047      341.435       16.146      863.545
05/11/2014  18:11:00      144.101      190.710        8.223      114.445      105.293       71.311    13097.548    11086.593     5085.219        4.323        1.463      239.030       68.540        0.082      341.294       15.903      863.552
05/11/2014  18:12:00       13.913      276.064      -34.174      102.794      141.189       54.837    10566.643    19934.206     3007.107        5.553        1.675      276.414       58.211        0.044      341.259       15.845      863.546
05/11/2014  18:13:00        7.640      247.991      -22.345       65.438      177.385       71.566     4282.121    31465.361     5121.729        5.145        2.043      248.108       96.207        0.150      341.308       15.929      863.547
05/11/2014  18:14:00      -50.229      324.590      -47.100       56.856       83.998       45.118     3232.649     7055.597     2035.613        6.121        0.616      328.453       45.340        0.019      341.400       16.083      863.568
05/11/2014  18:15:00       22.971      240.977       -9.884       93.281      119.772       80.402     8701.323    14345.243     6464.551        4.410        1.476      242.069       77.932        0.104      341.346       15.992      863.575
05/11/2014  18:16:00      -30.068      430.475      -55.869       83.266      137.487       60.942     6933.271    18902.681     3713.959       10.944        1.477      431.524       73.703        0.029      341.237       15.807      863.577
05/11/2014  18:17:00      -81.191      252.204      -18.384       77.672      101.848       53.643     6033.005    10372.983     2877.585        4.491        0.964      264.950       54.279        0.042      341.332       15.969      863.559
05/11/2014  18:18:00       46.429      252.971      -14.907      112.771      119.217       61.194    12717.309    14212.736     3744.741        4.852        1.534      257.197       66.525        0.067      341.286       15.890      863.566
05/11/2014  18:19:00       50.735      284.169      -36.848       85.766      126.643       70.632     7355.829    16038.565     4988.811        5.653        1.419      288.663       63.408        0.048      341.303       15.920      863.546
05/11/2014  18:20:00       -8.517      233.195      -16.385       77.800      113.888       58.627     6052.879    12970.440     3437.080        3.859        1.123      233.351       60.959        0.068      341.419       16.116      863.564
05/11/2014  18:21:00       31.960      263.733      -22.129       91.643      155.490       72.179     8398.501    24177.289     5209.822        5.442        1.889      265.662       89.531        0.114      341.379       16.048      863.565
05/11/2014  18:22:00       -3.460      235.810      -28.553       75.905      103.073       53.224     5761.626    10623.983     2832.821        3.782        0.961      235.835       50.299        0.045      341.461       16.186      863.573
05/11/2014  18:23:00       70.368      246.022      -11.252      108.730      141.291       88.706    11822.277    19963.237     7868.797        5.262        1.983      255.888       87.807        0.118      341.261       15.849      863.565
05/11/2014  18:24:00      -25.636      268.585      -21.571      104.791      111.280       72.273    10981.091    12383.229     5223.431        5.092        1.429      269.805       67.185        0.062      341.227       15.789      863.569
05/11/2014  18:25:00       -5.347      385.582      -43.588       77.572      105.631       57.613     6017.388    11157.994     3319.277        8.554        1.025      385.619       59.243        0.024      341.161       15.679      863.565
05/11/2014  18:26:00       10.367      353.811      -45.634       86.158      116.401       58.954     7423.153    13549.174     3475.599        7.591        1.222      353.963       64.864        0.034      341.190       15.727      863.551
05/11/2014  18:27:00      -66.017      303.666      -39.533       93.213       70.271       49.847     8688.672     4938.034     2484.703        5.712        0.806      310.759       47.425        0.023      341.193       15.730      863.553
05/11/2014  18:28:00       21.945      170.860      -14.824       72.380      111.502       55.398     5238.922    12432.667     3068.993        2.531        1.037      172.264       64.639        0.141      341.234       15.804      863.532
05/11/2014  18:29:00        4.617      265.772      -39.545       90.090      108.848       62.866     8116.134    11847.979     3952.123        4.806        1.196      265.812       65.586        0.061      341.247       15.825      863.512
05/11/2014  18:30:00      -51.410      319.752      -42.561       68.272       93.069       50.685     4661.063     8661.799     2568.956        6.129        0.795      323.859       48.891        0.023      341.337       15.976      863.532
05/11/2014  18:31:00       36.914      235.242       -6.867       96.640      150.451       76.803     9339.266    22635.510     5898.697        4.730        1.894      238.121       83.335        0.122      341.245       15.821      863.521
05/11/2014  18:32:00        9.794      238.205      -18.976      106.589      159.952       59.484    11361.211    25584.550     3538.293        4.883        2.024      238.406       71.905        0.091      341.238       15.809      863.513
05/11/2014  18:33:00       -1.147      312.228      -41.588       78.648      164.907       47.734     6185.560    27194.206     2278.513        6.743        1.783      312.230       47.657        0.023      341.238       15.808      863.523
05/11/2014  18:34:00      -28.081      353.426      -49.891       66.234      168.295       50.128     4386.930    28323.246     2512.778        8.170        1.761      354.540       66.577        0.035      341.163       15.681      863.513
05/11/2014  18:35:00       37.901      348.791      -38.040       90.391      161.085       78.318     8170.621    25948.523     6133.642        8.239        2.013      350.844       91.629        0.068      341.159       15.674      863.497
05/11/2014  18:36:00       14.024      248.231      -18.530       79.733      128.457       55.074     6357.317    16501.159     3033.101        4.402        1.295      248.627       57.658        0.054      341.259       15.844      863.497
05/11/2014  18:37:00      -23.755      255.072      -22.326       69.670      103.969       53.818     4853.854    10809.457     2896.422        4.234        0.928      256.176       59.149        0.053      341.249       15.827      863.495
05/11/2014  18:38:00      -54.529      370.651      -45.591      100.052      106.915       50.089    10010.424    11430.714     2508.952        8.319        1.198      374.641       51.827        0.019      341.202       15.747      863.495
05/11/2014  18:39:00      -59.280      298.426      -35.322       83.182      123.392       53.035     6919.218    15225.513     2812.736        5.938        1.248      304.257       64.761        0.045      341.241       15.814      863.503
05/11/2014  18:40:00      -36.612      364.737      -49.378       78.070       99.689       48.774     6094.886     9937.949     2378.881        7.761        0.921      366.570       45.712        0.016      341.236       15.805      863.517
05/11/2014  18:41:00       23.435      354.706      -39.396       79.563       89.273       55.816     6330.210     7969.615     3115.400        7.266        0.871      355.480       48.766        0.019      341.206       15.755      863.534
05/11/2014  18:42:00       24.382      330.644      -37.620       71.536      114.251       61.782     5117.454    13053.208     3816.956        6.666        1.099      331.542       57.284        0.030      341.190       15.727      863.536
05/11/2014  18:43:00       -5.433      194.141      -16.607       69.808      107.536       56.357     4873.221    11563.993     3176.092        2.880        0.981      194.217       54.795        0.080      341.270       15.864      863.547
05/11/2014  18:44:00     -136.007      208.457      -29.400      106.735      108.001       61.758    11392.286    11664.152     3813.994        4.484        1.344      248.902       59.444        0.057      341.260       15.845      863.548
05/11/2014  18:45:00       69.562       60.911        0.827       74.420       73.165       45.335     5538.363     5353.175     2055.299        1.075        0.647       92.461       33.956        0.135      341.218       15.778      863.551
05/11/2014  18:46:00      -49.853      365.279      -57.238       69.174      104.532       42.495     4785.050    10926.895     1805.847        7.835        0.876      368.665       49.546        0.018      341.119       15.605      863.563
05/11/2014  18:47:00      -14.629      241.351      -25.303       60.539       88.431       34.912     3664.989     7820.040     1218.872        3.590        0.635      241.794       40.931        0.029      341.157       15.670      863.570
05/11/2014  18:48:00       93.834      233.169      -17.747      112.873      139.400       91.103    12740.207    19432.335     8299.675        5.197        2.024      251.341       84.027        0.112      341.135       15.635      863.584
05/11/2014  18:49:00       55.306      273.513      -29.786       84.844      134.489       68.122     7198.501    18087.387     4640.553        5.433        1.496      279.049       73.684        0.070      341.127       15.621      863.596
05/11/2014  18:50:00       26.370      386.467      -57.151       68.082      100.950       46.222     4635.107    10190.864     2136.473        8.514        0.848      387.366       39.323        0.010      341.106       15.583      863.609
05/11/2014  18:51:00      -23.195      428.859      -61.362       90.850       87.883       41.779     8253.683     7723.486     1745.470       10.297        0.886      429.486       41.611        0.009      341.113       15.596      863.618
05/11/2014  18:52:00       -8.331      274.237      -25.381       86.876      135.573       60.283     7547.397    18380.144     3634.069        5.273        1.478      274.364       67.461        0.060      341.139       15.642      863.643
05/11/2014  18:53:00       52.034      345.964      -42.681       68.628      111.251       56.885     4709.821    12376.780     3235.930        7.227        1.016      349.855       55.816        0.025      341.078       15.538      863.651
05/11/2014  18:54:00       11.919      266.893      -33.811       77.233      114.267       50.761     5964.910    13056.954     2576.713        4.705        1.080      267.159       55.874        0.044      341.102       15.578      863.672
05/11/2014  18:55:00       18.812      343.098      -58.763       63.306       67.543       36.884     4007.661     4562.075     1360.421        6.572        0.497      343.613       39.043        0.013      341.086       15.552      863.672
05/11/2014  18:56:00       45.316      218.971      -16.020       63.494      124.225       56.709     4031.447    15431.778     3215.964        3.646        1.134      223.611       71.037        0.101      341.087       15.555      863.669
05/11/2014  18:57:00       69.617      135.118       -0.372       98.125       91.133       70.538     9628.470     8305.271     4975.556        2.300        1.145      151.998       57.403        0.143      341.094       15.567      863.667
05/11/2014  18:58:00       25.825      227.929      -15.140       95.662      146.291       69.317     9151.286    21401.014     4804.810        4.410        1.768      229.388       87.581        0.146      341.082       15.546      863.661
05/11/2014  18:59:00       41.908      179.577      -11.320       77.402      124.007       58.559     5991.053    15377.650     3429.202        2.946        1.240      184.402       68.450        0.138      341.131       15.630      863.669
05/11/2014  19:00:00       52.296      198.857      -17.536       72.605       99.206       47.981     5271.445     9841.800     2302.161        3.000        0.871      205.618       48.394        0.055      341.127       15.621      863.679
05/11/2014  19:01:00       76.269      174.862       -9.917       82.319       84.658       73.874     6776.458     7166.921     5457.406        2.794        0.970      190.771       62.775        0.108      341.085       15.551      863.686
05/11/2014  19:02:00       51.801       96.579       -6.689       77.901       78.776       46.805     6068.533     6205.649     2190.663        1.326        0.723      109.594       37.808        0.119      341.061       15.511      863.686
05/11/2014  19:03:00      191.724      122.327       33.403      101.198       72.479       57.906    10241.015     5253.173     3353.133        3.584        0.942      227.424       32.966        0.021      340.996       15.399      863.670
05/11/2014  19:04:00       30.993      128.102      -10.191       65.264       84.968       46.422     4259.354     7219.632     2155.047        1.555        0.682      131.798       47.736        0.131      341.046       15.486      863.681
05/11/2014  19:05:00       34.837      143.334       -9.524       71.075       87.725       55.336     5051.586     7695.713     3062.040        1.883        0.790      147.507       46.828        0.101      341.045       15.484      863.679
05/11/2014  19:06:00       51.037      133.683       -5.153       53.935       91.825       47.760     2909.029     8431.744     2281.004        1.706        0.681      143.094       56.846        0.158      341.074       15.534      863.689
05/11/2014  19:07:00       86.911       88.206       10.794       73.207       61.472       42.148     5359.326     3778.786     1776.445        1.318        0.546      123.830       36.935        0.089      341.043       15.479      863.676
05/11/2014  19:08:00      104.085      115.610      -22.627       66.611       67.940       40.425     4436.976     4615.826     1634.193        1.770        0.534      155.561       39.563        0.065      341.032       15.464      863.672
05/11/2014  19:09:00       32.736      158.194      -17.804       59.626       89.135       40.567     3555.247     7945.065     1645.715        1.978        0.657      161.546       42.355        0.069      341.034       15.465      863.670
05/11/2014  19:10:00        6.792      162.631      -14.830       41.314       67.469       34.420     1706.833     4552.113     1184.755        1.708        0.372      162.773       37.178        0.052      341.041       15.476      863.669
05/11/2014  19:11:00        4.819      228.336      -34.757       37.397       75.577       29.987     1398.563     5711.919      899.248        3.069        0.400      228.387       26.576        0.014      341.054       15.497      863.681
05/11/2014  19:12:00       94.402       84.940       -0.137       48.541       51.766       33.635     2356.231     2679.687     1131.299        1.115        0.308      126.990       29.646        0.055      341.030       15.460      863.678
05/11/2014  19:13:00       64.509       43.465        2.053       57.438       32.877       29.613     3299.172     1080.869      876.958        0.565        0.263       77.785       18.428        0.056      341.054       15.501      863.685
05/11/2014  19:14:00       78.897       59.489       24.558       66.684       40.840       31.240     4446.736     1667.937      975.930        0.873        0.355       98.812       10.205        0.011      341.022       15.447      863.694
05/11/2014  19:15:00       82.131       89.887       -6.292       70.977       63.659       34.280     5037.771     4052.519     1175.113        1.256        0.513      121.759       24.688        0.041      341.013       15.431      863.726
05/11/2014  19:16:00       12.920      121.114      -22.092       30.134       55.909       20.313      908.065     3125.768      412.603        0.988        0.222      121.801       16.959        0.019      340.998       15.408      863.755
05/11/2014  19:17:00       50.894       77.052        0.952       70.540       74.635       43.345     4975.854     5570.315     1878.781        1.047        0.621       92.343       32.133        0.121      341.018       15.439      863.763
05/11/2014  19:18:00       11.686       84.058      -14.535       45.972       50.862       20.462     2113.382     2586.983      418.676        0.627        0.256       84.866       18.078        0.045      341.003       15.413      863.763
05/11/2014  19:19:00       16.575       85.991      -16.722       37.292       35.261       22.946     1390.664     1243.353      526.514        0.555        0.158       87.574       20.778        0.056      341.007       15.422      863.771
05/11/2014  19:20:00        8.587      121.149       -5.018       38.696       66.767       32.995     1497.347     4457.844     1088.643        1.091        0.352      121.453       35.544        0.086      341.097       15.573      863.755
05/11/2014  19:21:00       43.760      101.767       -3.434       73.634       59.770       31.625     5422.025     3572.406     1000.130        1.114        0.500      110.777       29.187        0.069      340.931       15.292      863.760
05/11/2014  19:22:00       45.145      170.319       -3.748       80.504      101.743       69.626     6480.831    10351.540     4847.766        2.637        1.084      176.200       66.730        0.143      340.912       15.258      863.770
05/11/2014  19:23:00       57.407      259.539      -32.470       66.716      104.676       61.221     4451.082    10957.108     3748.055        4.543        0.958      265.812       61.737        0.054      340.889       15.218      863.766
05/11/2014  19:24:00       18.064      100.483       -4.209       69.808      100.413       52.495     4873.095    10082.825     2755.682        1.407        0.886      102.094       58.090        0.324      340.896       15.233      863.755
05/11/2014  19:25:00       36.990      233.128      -27.936       65.769      140.754       59.130     4325.573    19811.761     3496.387        4.206        1.382      236.045       75.884        0.103      340.897       15.232      863.737
05/11/2014  19:26:00       26.517      254.408      -36.393       50.376      108.465       46.532     2537.785    11764.564     2165.181        4.161        0.823      255.786       56.457        0.049      340.895       15.228      863.725
05/11/2014  19:27:00       18.703      124.466       -8.792       37.335       72.353       33.333     1393.920     5235.005     1111.116        1.183        0.387      125.863       31.739        0.064      340.847       15.150      863.719
05/11/2014  19:28:00       44.344      139.448       -3.277       73.521       87.262       48.001     5405.324     7614.699     2304.101        1.837        0.766      146.329       48.676        0.111      340.840       15.138      863.719
05/11/2014  19:29:00       54.314      135.933       -8.525       68.840       74.276       49.287     4738.916     5516.994     2429.253        1.709        0.634      146.382       43.305        0.088      340.815       15.095      863.714
05/11/2014  19:30:00       22.084      201.032      -17.665       70.256       88.989       55.809     4935.844     7919.035     3114.609        2.859        0.798      202.241       56.471        0.078      340.849       15.152      863.720
05/11/2014  19:31:00       38.870      198.654      -30.060       64.489       93.720       52.418     4158.836     8783.524     2747.685        2.878        0.785      202.422       57.175        0.080      340.843       15.141      863.730
05/11/2014  19:32:00        1.655      140.553       -0.999       52.249       97.418       41.661     2729.947     9490.295     1735.648        1.685        0.698      140.563       47.277        0.113      340.812       15.090      863.751
05/11/2014  19:33:00       49.415      280.619      -33.724       70.567       87.667       54.196     4979.749     7685.550     2937.188        4.896        0.780      284.936       49.951        0.031      340.844       15.141      863.757
05/11/2014  19:34:00       43.542      154.412      -10.485       76.398       74.851       48.992     5836.701     5602.737     2400.216        1.984        0.692      160.434       41.829        0.068      340.804       15.076      863.779
05/11/2014  19:35:00       36.574      135.781       -7.416       58.346       69.411       41.585     3404.300     4817.927     1729.311        1.489        0.498      140.620       39.114        0.077      340.764       15.010      863.793
05/11/2014  19:36:00       25.186      105.833       -4.964       45.503       54.765       32.838     2070.500     2999.234     1078.330        0.900        0.307      108.789       32.861        0.091      340.765       15.012      863.793
05/11/2014  19:37:00       43.476       94.340       -2.351       56.173       69.804       41.356     3155.459     4872.535     1710.292        1.027        0.487      103.876       44.608        0.184      340.754       14.991      863.807
05/11/2014  19:38:00       16.214      178.961      -23.948       41.068       89.795       37.568     1686.609     8063.135     1411.323        2.201        0.558      179.694       48.578        0.073      340.758       14.999      863.812
05/11/2014  19:39:00       36.598      234.028      -42.872       57.216       91.245       35.828     3273.670     8325.617     1283.637        3.541        0.644      236.873       41.574        0.031      340.791       15.052      863.812
05/11/2014  19:40:00       34.146      143.435      -17.335       44.517       53.494       41.386     1981.741     2861.647     1712.816        1.430        0.328      147.443       35.330        0.057      340.718       14.931      863.823
05/11/2014  19:41:00       16.980      116.563      -17.177       38.129       60.095       35.911     1453.856     3611.350     1289.609        1.026        0.318      117.793       30.771        0.068      340.724       14.942      863.841
05/11/2014  19:42:00       64.323      167.729      -13.353       62.280       99.515       63.458     3878.791     9903.293     4026.972        2.513        0.890      179.640       57.307        0.102      340.755       14.993      863.853
05/11/2014  19:43:00      -12.425      158.418      -27.956       55.437       74.003       29.146     3073.210     5476.424      849.484        1.771        0.470      158.904       30.440        0.037      340.757       14.996      863.872
05/11/2014  19:44:00       39.424      195.654      -37.149       42.159       44.571       24.639     1777.420     1986.576      607.087        2.279        0.219      199.586       21.626        0.012      340.765       15.010      863.890
05/11/2014  19:45:00       28.273      170.183      -24.762       41.582       49.220       23.745     1729.096     2422.610      563.808        1.754        0.236      172.516       20.846        0.015      340.720       14.935      863.914
05/11/2014  19:46:00       40.401      156.465      -25.913       40.406       51.184       27.457     1632.624     2619.827      753.913        1.589        0.250      161.596       27.817        0.030      340.699       14.900      863.927
05/11/2014  19:47:00       10.672      138.330      -13.970       33.663       26.219       23.901     1133.210      687.430      571.266        1.092        0.120      138.741       17.429        0.016      340.685       14.878      863.949
05/11/2014  19:48:00       22.316      184.928      -26.930       46.586       69.451       31.329     2170.286     4823.496      981.528        2.170        0.399      186.269       35.273        0.036      340.756       14.995      863.965
05/11/2014  19:49:00       23.394      141.248      -21.325       27.056       38.308       23.522      732.004     1467.523      553.307        1.185        0.138      143.172       19.039        0.018      340.693       14.890      863.977
05/11/2014  19:50:00       19.449      157.889      -16.507       41.735       62.902       38.896     1741.816     3956.651     1512.912        1.639        0.361      159.083       38.014        0.057      340.702       14.905      863.988
05/11/2014  19:51:00        4.361      154.658      -15.810       34.309       57.267       29.660     1177.127     3279.540      879.711        1.476        0.267      154.719       29.465        0.036      340.656       14.826      864.007
05/11/2014  19:52:00        5.662      204.552      -36.578       25.888       50.995       19.463      670.210     2600.472      378.794        2.343        0.182      204.630       16.341        0.006      340.755       14.993      864.029
05/11/2014  19:53:00        2.378      129.814      -12.731       39.574       44.116       26.556     1566.118     1946.187      705.225        1.062        0.211      129.836       29.797        0.053      340.692       14.886      864.044
05/11/2014  19:54:00       16.134      192.865      -32.373       42.042       38.032       23.985     1767.568     1446.439      575.279        2.115        0.189      193.539       20.045        0.011      340.692       14.885      864.050
05/11/2014  19:55:00      -19.174      108.561      -14.677       25.939       27.983       17.725      672.815      783.045      314.185        0.707        0.089      110.241       12.299        0.012      340.665       14.842      864.044
05/11/2014  19:56:00      -11.748      128.932      -17.884       28.449       34.635       20.412      809.331     1199.602      416.665        0.975        0.121      129.466       17.618        0.019      340.744       14.975      864.039
05/11/2014  19:57:00      -14.980      101.943      -13.078       52.016       43.115       23.500     2705.680     1858.884      552.270        0.795        0.256      103.038       18.016        0.031      340.683       14.873      864.036
05/11/2014  19:58:00       16.477      124.694      -23.401       29.289       19.006       14.978      857.843      361.227      224.350        0.891        0.072      125.778        6.486        0.003      340.669       14.849      864.043
05/11/2014  19:59:00       19.974      131.091      -20.095       33.254       47.251       26.085     1105.860     2232.627      680.417        1.100        0.201      132.604       29.829        0.051      340.632       14.786      864.051
05/11/2014  20:00:00        4.273      121.669      -22.084       29.070       26.294       17.913      845.044      691.375      320.880        0.858        0.093      121.744       11.577        0.009      340.645       14.809      864.071
05/11/2014  20:01:00        2.806      146.732      -20.212       30.194       53.039       26.034      911.696     2813.108      677.774        1.317        0.220      146.759       32.304        0.048      340.622       14.770      864.074
05/11/2014  20:02:00        3.131      166.836      -26.793       24.826       24.350       13.562      616.323      592.940      183.924        1.498        0.070      166.865       11.009        0.004      340.654       14.826      864.089
05/11/2014  20:03:00       29.648       99.242      -19.347       23.839       43.760       17.421      568.321     1914.955      303.476        0.694        0.139      103.576       16.859        0.026      340.537       14.626      864.100
05/11/2014  20:04:00        8.226      127.794      -19.765       27.916       27.972       14.516      779.309      782.425      210.724        0.928        0.089      128.058       10.447        0.007      340.612       14.753      864.114
05/11/2014  20:05:00        9.791      124.469      -23.284       19.965       18.059       11.558      398.589      326.116      133.589        0.849        0.043      124.854        8.564        0.005      340.642       14.803      864.107
05/11/2014  20:06:00       -4.933      113.482      -19.546       25.214       26.266       14.843      635.746      689.901      220.329        0.741        0.077      113.589       12.164        0.011      340.600       14.732      864.111
05/11/2014  20:07:00       12.226      116.947      -23.707       24.698       26.576       15.831      609.972      706.276      250.627        0.798        0.078      117.585       13.950        0.014      340.627       14.779      864.116
05/11/2014  20:08:00        3.270      117.435      -21.164       46.463       32.173       18.414     2158.801     1035.102      339.062        0.889        0.177      117.481       16.006        0.019      340.596       14.725      864.118
05/11/2014  20:09:00      -12.043      125.715      -17.481       31.768       26.622       13.688     1009.215      708.754      187.360        0.908        0.095      126.290       15.657        0.015      340.647       14.812      864.111
05/11/2014  20:10:00      -23.154      127.426      -16.673       19.412       28.875       17.910      376.841      833.761      320.780        0.929        0.077      129.512       16.269        0.016      340.662       14.838      864.109
05/11/2014  20:11:00      -21.144      116.581      -20.692       16.696       14.593        9.592      278.748      212.958       92.013        0.752        0.029      118.483        5.693        0.002      340.686       14.877      864.110
05/11/2014  20:12:00      -16.078       97.235      -15.929       13.466       19.632        8.079      181.323      385.421       65.268        0.530        0.032       98.555        5.557        0.003      340.677       14.864      864.110
05/11/2014  20:13:00      -24.132      125.009      -19.537       22.064       23.647       11.632      486.804      559.160      135.296        0.889        0.059      127.317        9.592        0.006      340.664       14.841      864.110
05/11/2014  20:14:00      -19.831      102.109      -18.690       19.627       32.338       14.239      385.212     1045.716      202.752        0.640        0.082      104.017       16.190        0.024      340.661       14.835      864.114
05/11/2014  20:15:00      -21.637      121.036      -16.489       28.314       27.715       13.085      801.683      768.144      171.227        0.857        0.087      122.955       12.588        0.010      340.638       14.798      864.113
05/11/2014  20:16:00      -17.142      118.018      -21.833       17.707       27.856       12.378      313.539      775.980      153.206        0.797        0.062      119.256       12.644        0.011      340.643       14.806      864.112
05/11/2014  20:17:00      -19.266       96.916      -11.838       24.425       24.267       17.407      596.558      588.903      303.008        0.570        0.074       98.812       11.657        0.014      340.589       14.713      864.108
05/11/2014  20:18:00      -32.034      119.006      -20.097       31.718       47.266       20.137     1006.016     2234.058      405.489        0.962        0.182      123.242       22.810        0.034      340.669       14.850      864.105
05/11/2014  20:19:00      -26.279      153.208      -22.746       23.727       38.287       12.519      562.977     1465.927      156.715        1.343        0.109      155.445       14.733        0.009      340.641       14.802      864.118
05/11/2014  20:20:00      -21.399      162.187      -25.753       21.447       22.414       11.314      459.990      502.409      128.001        1.426        0.055      163.592        5.611        0.001      340.604       14.738      864.127
05/11/2014  20:21:00      -28.552      142.640      -19.668       30.916       26.990       17.305      955.784      728.470      299.479        1.177        0.099      145.469       12.812        0.008      340.588       14.713      864.129
05/11/2014  20:22:00      -19.611       94.031      -13.433       28.072       24.000       17.049      788.053      575.985      290.673        0.553        0.083       96.054       13.170        0.019      340.558       14.661      864.128
05/11/2014  20:23:00      -27.477      140.486      -22.510       20.863       35.129       14.545      435.245     1234.020      211.570        1.144        0.094      143.148       17.662        0.015      340.570       14.681      864.121
05/11/2014  20:24:00      -18.572      120.444      -22.376       25.851       26.550       13.151      668.255      704.906      172.958        0.845        0.077      121.867       13.445        0.012      340.558       14.660      864.113
05/11/2014  20:25:00       -7.173      108.580      -17.520       14.102       22.319       10.926      198.871      498.143      119.372        0.648        0.041      108.817        9.960        0.008      340.482       14.533      864.097
05/11/2014  20:26:00      -12.397      113.143      -19.492       20.369       24.055       14.837      414.901      578.663      220.123        0.727        0.061      113.820       11.365        0.010      340.506       14.573      864.091
05/11/2014  20:27:00      -25.048      143.478      -23.707       24.018       23.484       13.718      576.854      551.486      188.181        1.155        0.066      145.648       11.707        0.006      340.534       14.621      864.107
05/11/2014  20:28:00      -24.016      124.839      -17.438       18.858       21.927       13.324      355.612      480.798      177.519        0.874        0.051      127.128        7.575        0.004      340.523       14.603      864.116
05/11/2014  20:29:00        4.246      122.698      -15.043       13.682       18.792       11.546      187.202      353.157      133.305        0.799        0.034      122.772        5.697        0.002      340.476       14.522      864.120
05/11/2014  20:30:00        3.969      114.222      -17.891       14.008       19.285        8.827      196.210      371.920       77.912        0.701        0.032      114.291        9.509        0.007      340.461       14.499      864.130
05/11/2014  20:31:00       15.168      130.219      -20.466       22.217       19.440       10.160      493.607      377.913      103.216        0.929        0.049      131.099        6.902        0.003      340.469       14.512      864.136
05/11/2014  20:32:00        9.972      134.993      -24.548       21.465       16.486       11.027      460.750      271.778      121.604        0.989        0.043      135.361        7.662        0.003      340.500       14.563      864.168
05/11/2014  20:33:00       18.229      134.106      -23.582       18.405       19.802       11.620      338.730      392.106      135.025        0.987        0.043      135.339        9.882        0.005      340.422       14.432      864.179
05/11/2014  20:34:00       17.675      146.219      -26.038       16.687       20.733        9.074      278.454      429.867       82.329        1.158        0.040      147.283        7.381        0.003      340.468       14.509      864.202
05/11/2014  20:35:00       25.807      120.283      -22.732       27.685       26.217       14.768      766.455      687.356      218.083        0.866        0.084      123.020       14.690        0.014      340.394       14.385      864.209
05/11/2014  20:36:00       29.832      146.966      -25.161       27.457       35.844       15.343      753.906     1284.826      235.409        1.270        0.114      149.963       17.406        0.013      340.448       14.476      864.208
05/11/2014  20:37:00       21.247      132.512      -25.294       22.481       34.233       15.951      505.388     1171.928      254.435        1.029        0.097      134.205       18.300        0.019      340.398       14.392      864.205
05/11/2014  20:38:00       14.616      115.152      -18.266       25.146       48.806       16.750      632.308     2382.039      280.552        0.855        0.165      116.076       24.447        0.044      340.369       14.342      864.202
05/11/2014  20:39:00       21.899      129.189      -21.361       24.839       21.170       11.701      616.994      448.186      136.910        0.941        0.060      131.032        9.859        0.006      340.377       14.357      864.213
05/11/2014  20:40:00       17.714      119.488      -23.533       26.006       39.804       18.353      676.316     1584.373      336.842        0.887        0.130      120.794       20.593        0.029      340.317       14.255      864.228
05/11/2014  20:41:00       14.197      141.565      -26.208       19.033       21.979       10.278      362.237      483.071      105.638        1.094        0.048      142.275        8.445        0.004      340.349       14.306      864.235
05/11/2014  20:42:00        2.824      121.201      -24.302       24.489       22.467       11.303      599.706      504.766      127.756        0.826        0.062      121.234        9.850        0.007      340.370       14.344      864.250
05/11/2014  20:43:00       -5.001      112.992      -22.131       19.328       15.646        8.695      373.573      244.809       75.607        0.699        0.035      113.102        5.885        0.003      340.368       14.343      864.255
05/11/2014  20:44:00      -20.242       85.144      -18.237       24.922       21.204       12.225      621.117      449.608      149.452        0.461        0.061       87.517        5.240        0.004      340.364       14.333      864.269
05/11/2014  20:45:00      -13.210       50.592       -9.394       16.743       21.521       10.308      280.336      463.142      106.261        0.184        0.042       52.288       10.178        0.038      340.383       14.367      864.263
05/11/2014  20:46:00      -49.742       18.714       -8.222       20.625       21.006       19.556      425.400      441.241      382.421        0.207        0.062       53.145        5.002        0.009      340.434       14.452      864.255
05/11/2014  20:47:00      -56.544      -14.922       -6.801       36.921       30.620       17.139     1363.194      937.558      293.734        0.303        0.130       58.480       20.462        0.122      339.943       13.624      864.263
05/11/2014  20:48:00      -52.149       -2.280        0.879       33.747       22.960       16.273     1138.891      527.182      264.803        0.233        0.097       52.198       14.366        0.076      339.709       13.230      864.262
05/11/2014  20:49:00     -115.792        5.768      -12.110       34.532       24.683       17.582     1192.486      609.260      309.131        0.785        0.106      115.935       13.553        0.014      339.813       13.404      864.267
05/11/2014  20:50:00      -96.153        4.818      -10.840       40.818       27.402       24.274     1666.143      750.859      589.234        0.620        0.150       96.274       22.771        0.056      339.882       13.521      864.278
05/11/2014  20:51:00      -39.831        6.551       -1.132       37.460       30.381       18.594     1403.261      923.033      345.725        0.215        0.134       40.366       16.830        0.174      339.801       13.383      864.277
05/11/2014  20:52:00      -28.039      -17.053       12.282       30.216       26.227       24.435      913.032      687.842      597.091        0.171        0.110       32.817       17.026        0.269      339.720       13.247      864.289
05/11/2014  20:53:00      -80.747       -1.975        2.865       46.530       35.792       31.887     2165.010     1281.061     1016.807        0.550        0.223       80.771       30.380        0.141      339.626       13.090      864.306
05/11/2014  20:54:00     -106.892        8.476       -5.232       53.224       44.585       34.509     2832.779     1987.842     1190.868        0.877        0.301      107.228       32.908        0.094      339.622       13.082      864.322
05/11/2014  20:55:00     -133.972        5.705      -10.678       65.262       35.798       28.325     4259.149     1281.469      802.329        1.222        0.317      134.093       28.781        0.046      339.550       12.958      864.335
05/11/2014  20:56:00     -169.765       11.912      -12.456       40.558       35.120       22.449     1644.922     1233.396      503.970        1.625        0.169      170.183       16.559        0.009      339.572       12.997      864.367
05/11/2014  20:57:00     -176.311      -15.058      -13.306       56.673       35.246       28.079     3211.812     1242.272      788.457        1.836        0.262      176.953       32.631        0.034      339.388       12.687      864.385
05/11/2014  20:58:00     -160.488      -22.827      -15.472       69.485       37.038       35.746     4828.211     1371.810     1277.777        1.700        0.374      162.104       41.299        0.065      339.206       12.381      864.402
05/11/2014  20:59:00     -128.837      -24.334       -6.286       52.772       43.273       31.607     2784.917     1872.516      999.021        1.144        0.283      131.114       30.466        0.054      339.119       12.233      864.427
05/11/2014  21:00:00     -159.133      -46.526      -16.762       43.490       33.490       25.824     1891.422     1121.547      666.889        1.572        0.184      165.795       18.791        0.013      339.168       12.316      864.426
05/11/2014  21:01:00     -159.029       -6.781       -9.289       68.675       40.661       33.087     4716.317     1653.298     1094.728        1.644        0.373      159.173       31.662        0.040      339.255       12.463      864.444
05/11/2014  21:02:00     -156.109      -11.429       -4.679       57.682       47.311       28.757     3327.243     2238.378      826.987        1.546        0.320      156.526       30.550        0.038      339.307       12.551      864.454
05/11/2014  21:03:00     -169.851        0.545      -20.667       43.758       31.723       29.614     1914.779     1006.329      876.992        1.654        0.190      169.852       27.470        0.026      339.305       12.546      864.459
05/11/2014  21:04:00     -149.698       -3.821      -10.685       39.586       29.900       23.767     1567.045      894.003      564.887        1.278        0.151      149.747       21.001        0.020      339.185       12.345      864.474
05/11/2014  21:05:00     -146.067        6.622      -14.905       37.629       34.872       21.979     1415.950     1216.065      483.074        1.236        0.156      146.217       19.725        0.018      339.231       12.423      864.482
05/11/2014  21:06:00     -119.279      -23.346      -10.245       47.246       35.273       27.451     2232.227     1244.217      753.575        0.955        0.212      121.543       25.715        0.045      339.286       12.515      864.495
05/11/2014  21:07:00     -159.188       -9.207      -17.203       40.355       35.105       26.628     1628.510     1232.376      709.072        1.465        0.178      159.454       21.097        0.018      339.325       12.580      864.508
05/11/2014  21:08:00     -147.856      -18.212      -14.148       68.771       29.811       28.272     4729.441      888.713      799.289        1.440        0.321      148.973       32.469        0.048      339.162       12.306      864.509
05/11/2014  21:09:00     -128.989      -18.405       -6.671       53.944       32.617       29.264     2909.946     1063.880      856.392        1.092        0.242      130.295       30.624        0.055      339.174       12.325      864.527
05/11/2014  21:10:00     -171.922      -23.707      -15.739       37.504       29.052       23.561     1406.527      843.992      555.142        1.659        0.140      173.549       20.306        0.014      339.224       12.411      864.534
05/11/2014  21:11:00     -168.042      -11.565      -17.974       43.851       31.228       26.367     1922.878      975.180      695.238        1.614        0.180      168.439       26.682        0.025      338.999       12.032      864.552
05/11/2014  21:12:00     -130.612      -33.920        3.086       48.150       29.078       22.396     2318.470      845.545      501.590        1.094        0.183      134.944       21.378        0.025      338.973       11.988      864.563
05/11/2014  21:13:00     -127.978      -50.921       -2.857       44.871       29.354       19.363     2013.408      861.636      374.917        1.111        0.162      137.736       17.087        0.015      339.074       12.158      864.571
05/11/2014  21:14:00     -108.531      -37.402        0.316       44.393       35.439       24.001     1970.719     1255.932      576.065        0.849        0.190      114.795       25.154        0.048      339.135       12.261      864.576
05/11/2014  21:15:00     -104.886      -70.476        4.238       46.481       26.385       23.385     2160.497      696.180      546.875        0.969        0.170      126.364       25.329        0.040      339.073       12.158      864.576
05/11/2014  21:16:00     -102.129      -62.584       -0.768       47.690       35.102       22.250     2274.365     1232.154      495.043        0.917        0.200      119.780       21.890        0.033      339.020       12.067      864.591
05/11/2014  21:17:00     -102.621      -71.387        2.347       59.814       40.878       28.895     3577.666     1670.978      834.929        1.086        0.304      125.009       32.471        0.067      339.035       12.094      864.592
05/11/2014  21:18:00     -115.682      -79.038       -1.797       45.576       29.314       25.516     2077.187      859.321      651.063        1.161        0.179      140.105       28.782        0.042      339.073       12.155      864.610
05/11/2014  21:19:00      -81.451      -63.999        0.935       59.473       33.310       26.192     3536.989     1109.572      686.031        0.803        0.267      103.586       31.089        0.090      339.057       12.129      864.618
05/11/2014  21:20:00      -72.229      -53.867       10.231       55.321       37.413       29.712     3060.433     1399.768      882.801        0.678        0.267       90.104       25.907        0.083      339.008       12.047      864.622
05/11/2014  21:21:00     -101.474      -78.834        2.196       49.934       39.897       27.417     2493.362     1591.803      751.718        1.068        0.242      128.498       28.951        0.051      339.045       12.110      864.633
05/11/2014  21:22:00      -74.225      -57.703        6.527       56.395       39.018       28.196     3180.394     1522.407      795.002        0.719        0.275       94.016       29.322        0.097      339.022       12.072      864.636
05/11/2014  21:23:00      -97.505      -58.605       -1.664       44.921       36.239       24.138     2017.888     1313.257      582.628        0.843        0.196      113.762       18.384        0.026      339.040       12.102      864.665
05/11/2014  21:24:00      -79.828      -66.200       -0.966       47.046       28.006       23.505     2213.373      784.316      552.506        0.715        0.178      103.706       21.783        0.044      339.043       12.106      864.681
05/11/2014  21:25:00     -115.514      -60.333       -8.587       37.733       26.413       21.178     1423.805      697.628      448.511        0.981        0.128      130.320       17.277        0.018      339.050       12.119      864.708
05/11/2014  21:26:00     -117.576      -93.864        2.433       52.245       37.414       28.482     2729.584     1399.833      811.248        1.379        0.247      150.448       28.403        0.036      338.983       12.005      864.731
05/11/2014  21:27:00     -118.822      -68.236       -1.017       52.251       47.388       25.401     2730.130     2245.662      645.196        1.220        0.281      137.021       16.737        0.015      338.935       11.925      864.732
05/11/2014  21:28:00     -104.378      -91.202        7.110       41.941       38.183       26.473     1759.021     1457.960      700.813        1.159        0.196      138.609       25.392        0.034      338.957       11.963      864.744
05/11/2014  21:29:00      -61.734      -78.550        9.059       55.418       33.422       26.394     3071.127     1117.054      696.670        0.747        0.244       99.906       27.730        0.077      339.024       12.074      864.748
05/11/2014  21:30:00      -79.073      -34.999        4.795       53.863       31.601       21.588     2901.250      998.648      466.032        0.593        0.218       86.472       26.690        0.095      338.923       11.905      864.746
05/11/2014  21:31:00     -105.079      -59.889      -11.875       34.777       26.429       17.157     1209.440      698.477      294.372        0.849        0.110      120.947       12.009        0.010      338.950       11.949      864.759
05/11/2014  21:32:00     -125.181      -54.391       -6.266       36.438       36.432       22.360     1327.758     1327.260      499.971        1.091        0.158      136.487       17.856        0.017      338.903       11.871      864.762
05/11/2014  21:33:00     -121.221      -59.597       -4.234       37.505       27.627       19.516     1406.651      763.258      380.862        1.041        0.128      135.079       10.070        0.006      338.928       11.912      864.759
05/11/2014  21:34:00     -120.653      -45.440        1.073       50.391       31.302       19.315     2539.300      979.825      373.078        1.026        0.195      128.926       17.185        0.018      338.917       11.894      864.759
05/11/2014  21:35:00     -134.205      -41.961       -6.317       31.005       28.370       20.232      961.301      804.862      409.331        1.099        0.109      140.612       13.174        0.009      338.893       11.856      864.752
05/11/2014  21:36:00     -132.560      -40.448        0.579       39.897       26.657       20.179     1591.775      710.595      407.204        1.096        0.135      138.593       20.511        0.022      338.838       11.761      864.753
05/11/2014  21:37:00     -154.287      -44.139       -7.913       30.667       22.408       19.976      940.453      502.110      399.050        1.383        0.092      160.477       17.151        0.011      338.845       11.774      864.767
05/11/2014  21:38:00     -101.584      -46.328        4.730       60.523       34.513       18.920     3663.051     1191.168      357.959        0.885        0.261      111.650       20.886        0.035      338.790       11.680      864.765
05/11/2014  21:39:00     -114.500      -64.052        0.183       61.074       41.897       21.323     3730.057     1755.353      454.683        1.158        0.297      131.198       18.152        0.019      338.783       11.668      864.768
05/11/2014  21:40:00     -138.895      -50.716       -1.324       35.162       34.404       22.140     1236.398     1183.659      490.199        1.239        0.146      147.865       16.209        0.012      338.748       11.611      864.778
05/11/2014  21:41:00     -115.726      -62.461        3.479       38.448       35.900       26.342     1478.276     1288.817      693.915        1.038        0.173      131.507       21.565        0.027      338.749       11.613      864.789
05/11/2014  21:42:00     -108.907      -46.932       -2.254       42.101       34.575       18.977     1772.518     1195.417      360.137        0.870        0.166      118.589       14.543        0.015      338.751       11.615      864.780
05/11/2014  21:43:00      -88.793      -42.474        3.059       44.952       30.602       24.858     2020.706      936.504      617.905        0.664        0.179       98.429       26.832        0.074      338.669       11.477      864.787
05/11/2014  21:44:00      -91.921      -69.856        6.603       49.281       38.011       25.784     2428.641     1444.814      664.825        0.895        0.227      115.453       28.416        0.061      338.712       11.549      864.791
05/11/2014  21:45:00     -106.023      -87.702       -2.483       46.053       41.456       20.784     2120.847     1718.622      431.990        1.160        0.214      137.596       19.034        0.019      338.673       11.484      864.797
05/11/2014  21:46:00     -127.443      -79.193       -9.863       27.666       48.041       20.579      765.426     2307.926      423.507        1.305        0.175      150.045        8.280        0.003      338.653       11.452      864.826
05/11/2014  21:47:00     -111.445      -65.079        2.528       62.683       46.723       31.804     3929.167     2183.033     1011.517        1.189        0.356      129.055       35.280        0.075      338.574       11.318      864.838
05/11/2014  21:48:00     -130.164      -90.438      -11.690       35.712       34.576       19.624     1275.316     1195.511      385.108        1.406        0.143      158.498       14.253        0.008      338.600       11.362      864.844
05/11/2014  21:49:00     -104.773      -82.168       -2.611       48.457       47.681       23.263     2348.049     2273.433      541.149        1.145        0.258      133.150       12.898        0.009      338.638       11.423      864.856
05/11/2014  21:50:00     -120.113     -115.558       -2.659       58.386       52.084       30.404     3408.958     2712.788      924.405        1.742        0.352      166.676       30.336        0.033      338.603       11.366      864.866
05/11/2014  21:51:00     -143.907     -118.445       -4.630       47.583       48.959       27.762     2264.161     2396.981      770.708        2.009        0.272      186.382       24.456        0.017      338.597       11.356      864.859
05/11/2014  21:52:00     -122.799      -86.707       -2.373       71.233       46.407       33.365     5074.162     2153.584     1113.245        1.547        0.417      150.325       36.638        0.059      338.637       11.422      864.867
05/11/2014  21:53:00     -122.229      -72.093        5.827       63.013       45.695       30.780     3970.670     2088.025      947.407        1.359        0.350      141.906       27.175        0.037      338.630       11.412      864.879
05/11/2014  21:54:00     -115.776      -77.743        6.100       61.531       45.434       31.367     3786.025     2064.219      983.861        1.316        0.342      139.457       33.806        0.059      338.619       11.393      864.878
05/11/2014  21:55:00      -71.816      -78.964        8.179       52.216       54.262       25.880     2726.559     2944.359      669.790        0.890        0.317      106.737       28.508        0.071      338.652       11.449      864.897
05/11/2014  21:56:00      -48.018      -62.488        2.190       43.823       37.110       20.921     1920.422     1377.164      437.703        0.497        0.187       78.807       20.045        0.065      338.662       11.465      864.929
05/11/2014  21:57:00     -101.428      -99.764       -9.974       42.053       42.127       29.612     1768.478     1774.719      876.854        1.238        0.221      142.269       23.383        0.027      338.472       11.147      864.937
05/11/2014  21:58:00     -102.967      -94.745       -2.386       47.188       47.322       29.892     2226.685     2239.325      893.548        1.247        0.268      139.924       22.635        0.026      338.438       11.090      864.949
05/11/2014  21:59:00     -139.600      -94.162       -2.077       64.245       48.522       34.404     4127.481     2354.371     1183.660        1.801        0.383      168.388       28.142        0.028      338.399       11.022      864.959
05/11/2014  22:00:00     -132.194      -94.379       -5.778       66.433       39.551       27.071     4413.362     1564.283      732.827        1.656        0.336      162.427       26.106        0.026      338.396       11.019      864.954
05/11/2014  22:01:00      -97.336      -51.152        4.150       62.536       63.467       32.652     3910.778     4028.040     1066.172        1.055        0.450      109.959       33.549        0.093      338.415       11.050      864.964
05/11/2014  22:02:00     -126.255      -45.339       -3.240       51.886       37.684       27.477     2692.209     1420.099      754.986        1.144        0.243      134.148       30.594        0.052      338.477       11.154      864.989
05/11/2014  22:03:00     -119.735      -36.887        0.325       58.703       48.196       27.285     3446.021     2322.871      744.495        1.110        0.326      125.288       31.627        0.064      338.367       10.968      864.999
05/11/2014  22:04:00     -118.360      -55.383        9.488       46.227       42.033       26.393     2136.927     1766.767      696.572        1.088        0.230      130.677       24.930        0.036      338.333       10.913      865.006
05/11/2014  22:05:00     -116.239      -30.393        1.748       55.169       44.036       28.749     3043.615     1939.165      826.499        1.012        0.290      120.147       32.026        0.071      338.280       10.825      865.014
05/11/2014  22:06:00     -168.917      -28.047       -4.459       50.574       34.611       24.973     2557.776     1197.925      623.669        1.686        0.219      171.230       27.280        0.025      338.239       10.755      865.026
05/11/2014  22:07:00     -133.591      -25.120       -0.787       48.995       39.250       25.645     2400.558     1540.577      657.652        1.154        0.230      135.932       23.236        0.029      338.255       10.782      865.026
05/11/2014  22:08:00     -156.765      -48.675        6.609       42.885       42.943       27.940     1839.139     1844.093      780.652        1.573        0.223      164.148       26.156        0.025      338.132       10.576      865.023
05/11/2014  22:09:00     -149.723      -57.031        2.442       61.713       33.296       31.649     3808.551     1108.628     1001.630        1.580        0.296      160.217       33.998        0.045      338.162       10.624      865.037
05/11/2014  22:10:00     -150.816      -61.948        2.011       46.874       42.037       29.466     2197.177     1767.103      868.257        1.571        0.242      163.043       27.001        0.027      338.098       10.519      865.040
05/11/2014  22:11:00     -142.539      -51.781       -1.789       44.033       33.582       23.931     1938.913     1127.757      572.702        1.332        0.182      151.653       21.972        0.021      338.096       10.515      865.037
05/11/2014  22:12:00     -143.391      -49.749        1.000       45.922       42.332       23.221     2108.800     1792.023      539.192        1.374        0.222      151.776       23.748        0.024      338.070       10.472      865.038
05/11/2014  22:13:00     -164.992      -61.896      -14.324       43.986       26.321       25.092     1934.731      692.809      629.587        1.726        0.163      176.219       20.897        0.014      337.986       10.332      865.038
05/11/2014  22:14:00     -128.946      -65.523      -13.155       23.087       19.675       18.021      533.029      387.110      324.744        1.117        0.062      144.638        6.125        0.002      338.062       10.459      865.037
05/11/2014  22:15:00     -136.090      -59.572       -2.461       31.297       24.950       22.792      979.513      622.483      519.477        1.210        0.106      148.557       11.705        0.006      338.035       10.415      865.031
05/11/2014  22:16:00     -112.309      -55.027       -8.442       24.089       27.362       16.302      580.269      748.683      265.745        0.865        0.080      125.065        9.213        0.005      338.145       10.597      865.031
05/11/2014  22:17:00     -105.631      -23.765       -7.292       41.911       30.034       17.550     1756.560      902.041      308.011        0.737        0.148      108.272       21.102        0.038      338.160       10.622      865.033
05/11/2014  22:18:00      -42.506      -29.752        4.611       44.112       20.126       21.352     1945.912      405.056      455.902        0.276        0.140       51.884       25.832        0.248      338.174       10.646      865.022
05/11/2014  22:19:00      -42.156      -51.759        1.203       47.606       32.619       21.397     2266.363     1063.994      457.821        0.412        0.189       66.754       23.816        0.127      338.156       10.616      865.008
05/11/2014  22:20:00      -91.378      -69.766       -5.665       27.190       24.096       15.063      739.298      580.625      226.882        0.740        0.077      114.967       11.828        0.011      338.094       10.512      865.017
05/11/2014  22:21:00     -123.090      -50.749      -15.058       22.712       25.910       12.105      515.839      671.332      146.524        0.964        0.067      133.141        4.613        0.001      338.109       10.537      865.005
05/11/2014  22:22:00     -101.586      -60.570        1.970       44.405       28.877       21.725     1971.827      833.868      471.982        0.863        0.164      118.272       21.416        0.033      338.070       10.473      865.001
05/11/2014  22:23:00      -31.573      -33.993       11.561       52.299       37.765       18.616     2735.213     1426.220      346.562        0.340        0.225       46.394       25.021        0.291      338.070       10.472      865.005
05/11/2014  22:24:00     -113.547      -79.689       -4.154       36.343       24.198       22.823     1320.831      585.525      520.889        1.084        0.121      138.721       20.194        0.021      338.033       10.410      865.009
05/11/2014  22:25:00      -75.051      -52.490       11.218       59.345       38.849       28.925     3521.814     1509.278      836.630        0.719        0.293       91.585       31.281        0.117      338.021       10.389      865.012
05/11/2014  22:26:00      -66.580      -63.542       -5.199       42.210       27.732       20.910     1781.717      769.044      437.217        0.574        0.149       92.035       14.129        0.024      338.072       10.475      865.021
05/11/2014  22:27:00      -63.035      -58.177        3.134       45.717       43.094       26.919     2090.027     1857.127      724.652        0.602        0.234       85.779       26.025        0.092      337.946       10.264      865.035
05/11/2014  22:28:00     -131.915      -93.646      -11.604       51.680       39.247       28.980     2670.782     1540.323      839.838        1.568        0.253      161.775       23.209        0.021      337.930       10.236      865.050
05/11/2014  22:29:00     -106.656     -107.240       -2.735       48.778       40.721       28.617     2379.259     1658.160      818.950        1.387        0.243      151.248       22.247        0.022      337.919       10.219      865.061
05/11/2014  22:30:00      -64.791      -65.172        4.404       47.279       40.665       21.091     2235.344     1653.627      444.823        0.640        0.217       91.898       13.454        0.021      337.895       10.179      865.064
05/11/2014  22:31:00      -88.384      -81.922        6.565       57.264       53.691       36.800     3279.170     2882.702     1354.247        1.104        0.376      120.511       33.284        0.076      337.857       10.115      865.076
05/11/2014  22:32:00      -94.909      -95.339        0.634       53.610       40.976       26.065     2874.003     1679.068      679.391        1.166        0.262      134.526       25.384        0.036      337.893       10.175      865.088
05/11/2014  22:33:00     -110.871      -85.845        5.689       61.743       57.409       29.294     3812.184     3295.814      858.127        1.383        0.398      140.220       31.706        0.051      337.926       10.228      865.087
05/11/2014  22:34:00     -122.376      -75.290        3.095       50.242       47.192       29.244     2524.258     2227.087      855.221        1.313        0.280      143.682       28.099        0.038      337.883       10.156      865.079
05/11/2014  22:35:00     -110.068      -93.809       -6.915       38.239       34.163       23.684     1462.208     1167.130      560.922        1.208        0.160      144.621       21.991        0.023      337.955       10.280      865.088
05/11/2014  22:36:00      -91.151      -93.373      -10.083       52.225       38.779       26.858     2727.405     1503.787      721.328        1.104        0.248      130.488       29.130        0.050      338.004       10.362      865.095
05/11/2014  22:37:00      -87.954      -88.664        0.855       46.586       34.495       28.039     2170.236     1189.877      786.200        0.987        0.207      124.889       23.019        0.034      337.992       10.341      865.096
05/11/2014  22:38:00     -107.860     -118.015       -8.969       45.564       40.486       27.162     2076.112     1639.092      737.795        1.505        0.223      159.879       27.955        0.031      337.940       10.254      865.097
05/11/2014  22:39:00     -123.930     -131.004       -9.026       41.538       44.724       28.914     1725.385     2000.251      836.015        1.858        0.228      180.335       21.329        0.014      337.975       10.312      865.113
05/11/2014  22:40:00     -117.814     -111.746       -9.798       51.508       44.789       28.304     2653.053     2006.055      801.126        1.596        0.273      162.380       26.643        0.027      337.963       10.292      865.116
05/11/2014  22:41:00     -137.111     -108.917       -9.709       63.760       38.504       28.665     4065.275     1482.584      821.688        1.856        0.318      175.107       33.131        0.036      337.952       10.273      865.119
05/11/2014  22:42:00     -151.575      -61.002       -1.493       44.644       50.445       25.323     1993.106     2544.728      641.262        1.594        0.259      163.390       24.527        0.023      337.903       10.191      865.113
05/11/2014  22:43:00     -123.215      -59.732        6.151       57.548       41.530       26.632     3311.759     1724.776      709.273        1.227        0.287      136.930       30.554        0.050      337.891       10.171      865.125
05/11/2014  22:44:00     -112.965      -64.424        4.009       40.408       31.174       27.595     1632.843      971.814      761.505        1.015        0.168      130.044       21.446        0.027      337.922       10.224      865.127
05/11/2014  22:45:00     -130.624      -55.420       -6.603       32.543       27.455       15.092     1059.066      753.791      227.783        1.111        0.102      141.894       16.221        0.013      337.982       10.324      865.121
05/11/2014  22:46:00     -118.295      -22.891       -5.806       43.413       24.712       23.010     1884.667      610.659      529.445        0.879        0.151      120.489       19.146        0.025      337.985       10.328      865.123
05/11/2014  22:47:00      -97.127      -22.331        6.640       33.760       31.640       20.653     1139.705     1001.119      426.550        0.627        0.128       99.662       20.675        0.043      337.916       10.213      865.135
05/11/2014  22:48:00     -106.736      -44.552       -3.184       34.703       26.414       18.925     1204.293      697.709      358.145        0.782        0.113      115.661       19.601        0.029      337.995       10.347      865.147
05/11/2014  22:49:00     -114.832      -68.117       -3.919       62.718       33.201       23.086     3933.606     1102.289      532.949        1.170        0.278      133.515       25.596        0.037      338.004       10.361      865.155
05/11/2014  22:50:00      -97.822      -43.601        7.249       61.684       42.580       26.688     3804.896     1813.055      712.260        0.893        0.317      107.098       29.189        0.074      337.967       10.300      865.172
05/11/2014  22:51:00     -105.192      -77.184        4.876       64.617       49.148       30.798     4175.398     2415.480      948.531        1.229        0.377      130.471       36.379        0.078      337.942       10.257      865.191
05/11/2014  22:52:00     -122.697      -40.680      -10.053       29.012       27.098       17.520      841.672      734.306      306.949        0.935        0.094      129.265       12.875        0.010      337.852       10.107      865.202
05/11/2014  22:53:00     -132.156      -46.700       -3.517       42.899       42.862       29.484     1840.339     1837.175      869.293        1.210        0.227      140.164       21.237        0.023      337.803       10.024      865.219
05/11/2014  22:54:00     -103.870      -19.115       -3.439       60.726       32.503       24.422     3687.611     1056.444      596.456        0.825        0.267      105.615       28.179        0.071      337.870       10.137      865.229
05/11/2014  22:55:00      -88.298      -20.862       11.754       48.374       40.534       24.567     2340.049     1643.018      603.524        0.648        0.229       90.730       21.402        0.056      337.856       10.112      865.247
05/11/2014  22:56:00      -90.115        0.071       -5.461       38.580       30.739       25.545     1488.383      944.863      652.530        0.562        0.154       90.115       23.961        0.071      337.724        9.892      865.262
05/11/2014  22:57:00     -100.882       -7.394       -5.813       36.691       31.276       24.387     1346.243      978.179      594.740        0.659        0.146      101.152       22.396        0.049      337.842       10.087      865.282
05/11/2014  22:58:00     -106.291      -24.719       -4.323       38.784       29.541       17.743     1504.220      872.690      314.811        0.731        0.135      109.127       17.833        0.027      337.667        9.795      865.287
05/11/2014  22:59:00     -120.365      -45.936        0.369       32.436       32.912       20.083     1052.095     1083.216      403.315        0.957        0.127      128.832       12.459        0.009      337.646        9.761      865.296
05/11/2014  23:00:00     -100.677      -48.802        4.929       64.021       28.319       20.282     4098.671      801.977      411.380        0.893        0.266      111.882       25.301        0.051      337.530        9.567      865.322
05/11/2014  23:01:00     -117.387      -42.024       -4.489       27.933       29.592       18.596      780.264      875.693      345.812        0.878        0.100      124.682       16.801        0.018      337.522        9.552      865.332
05/11/2014  23:02:00     -129.605      -40.094      -10.516       19.183       15.455       11.151      367.983      238.867      124.342        0.962        0.037      135.665        6.494        0.002      337.548        9.597      865.349
05/11/2014  23:03:00     -114.401      -49.283       -9.311       18.785       14.902        9.713      352.859      222.061       94.336        0.814        0.033      124.565        8.692        0.005      337.549        9.600      865.352
05/11/2014  23:04:00      -85.145      -45.447       -0.786       18.750       23.626       13.773      351.549      558.174      189.704        0.521        0.055       96.515       13.736        0.020      337.519        9.548      865.348
05/11/2014  23:05:00      -97.009      -29.039      -13.450       13.511       16.510       12.895      182.542      272.579      166.293        0.553        0.031      101.262        7.125        0.005      337.539        9.581      865.352
05/11/2014  23:06:00      -85.263      -43.760       -6.412       11.603        7.497        6.395      134.626       56.209       40.898        0.473        0.012       95.837        4.228        0.002      337.506        9.527      865.360
05/11/2014  23:07:00      -69.668      -31.803       -8.905       14.129       12.157       12.355      199.641      147.782      152.653        0.322        0.025       76.584        8.690        0.013      337.530        9.566      865.375
05/11/2014  23:08:00      -55.372      -36.714       -7.151       14.972        9.957       10.093      224.171       99.146      101.876        0.245        0.021       66.438        5.616        0.007      337.540        9.581      865.391
05/11/2014  23:09:00      -59.197      -34.069       -8.486       15.859       16.723       13.213      251.499      279.665      174.570        0.272        0.035       68.300       10.496        0.024      337.608        9.698      865.395
05/11/2014  23:10:00      -50.463      -40.022      -11.664       12.171        9.754        9.114      148.136       95.138       83.072        0.231        0.016       64.408        4.894        0.006      337.614        9.707      865.411
05/11/2014  23:11:00      -80.092      -21.957      -11.717        8.848        8.850        7.720       78.279       78.324       59.597        0.363        0.011       83.047        4.864        0.003      337.529        9.564      865.415
05/11/2014  23:12:00      -70.269      -24.861      -11.379        7.785        9.369        9.023       60.610       87.772       81.410        0.296        0.011       74.537        5.406        0.005      337.521        9.549      865.413
05/11/2014  23:13:00      -73.410      -17.626      -14.557       11.159        9.307        8.553      124.525       86.625       73.156        0.310        0.014       75.497        4.405        0.003      337.482        9.485      865.416
05/11/2014  23:14:00      -62.709      -27.901      -11.583        7.881        9.480        5.932       62.104       89.873       35.187        0.252        0.009       68.636        3.290        0.002      337.397        9.345      865.422
05/11/2014  23:15:00      -55.703      -19.482       -8.508       11.843       16.209        9.186      140.265      262.746       84.375        0.202        0.024       59.011        4.048        0.005      337.397        9.342      865.428
05/11/2014  23:16:00      -47.910      -20.562       -6.044       17.341       18.789        9.934      300.710      353.010       98.675        0.175        0.038       52.136        7.566        0.021      337.402        9.352      865.427
05/11/2014  23:17:00      -62.059      -21.396       -6.320       14.849       12.440        7.551      220.486      154.763       57.012        0.239        0.022       65.644        5.157        0.006      337.469        9.463      865.422
05/11/2014  23:18:00      -55.786      -13.052       -9.684       28.781       24.661       12.668      828.344      608.174      160.489        0.249        0.080       57.293       14.586        0.065      337.456        9.442      865.428
05/11/2014  23:19:00      -88.056      -23.340      -12.890       15.265       14.039       10.277      233.018      197.093      105.613        0.450        0.027       91.096        8.994        0.010      337.422        9.386      865.436
05/11/2014  23:20:00     -101.961      -19.371      -14.735       12.666       14.651       11.064      160.437      214.647      122.410        0.574        0.025      103.785        7.192        0.005      337.396        9.342      865.446
05/11/2014  23:21:00     -106.845      -25.482      -16.856        9.152       11.176        6.012       83.764      124.907       36.142        0.630        0.012      109.842        1.034        0.000      337.306        9.191      865.444
05/11/2014  23:22:00      -99.978      -29.905      -15.229        9.227       12.069        6.988       85.128      145.654       48.837        0.570        0.014      104.355        2.146        0.000      337.368        9.293      865.434
05/11/2014  23:23:00     -102.219      -28.174      -11.446       11.446       18.342       11.099      131.018      336.412      123.195        0.598        0.030      106.031        7.262        0.005      337.412        9.367      865.426
05/11/2014  23:24:00     -115.900      -31.004      -16.706        9.747       12.118        9.207       95.012      146.838       84.774        0.750        0.016      119.975        5.698        0.002      337.339        9.247      865.415
05/11/2014  23:25:00     -120.332      -27.317      -19.427       15.256       12.602       11.825      232.753      158.809      139.841        0.807        0.027      123.393        8.777        0.005      337.374        9.304      865.424
05/11/2014  23:26:00     -118.716      -41.897      -18.991       15.566       10.477        8.422      242.314      109.776       70.933        0.832        0.021      125.892        3.796        0.001      337.323        9.218      865.434
05/11/2014  23:27:00      -79.064      -46.944      -15.485       16.605       15.619        9.625      275.726      243.944       92.649        0.465        0.031       91.951        7.197        0.006      337.374        9.305      865.451
05/11/2014  23:28:00      -66.559      -45.018       -5.402       25.016       13.149       12.818      625.784      172.902      164.301        0.372        0.048       80.353        8.402        0.011      337.346        9.258      865.461
05/11/2014  23:29:00      -59.358      -38.357       -9.190       17.956       10.770       10.842      322.419      115.995      117.560        0.282        0.028       70.673        2.865        0.002      337.411        9.365      865.472
05/11/2014  23:30:00      -47.417      -36.676       -2.028       19.461       12.796       12.864      378.715      163.735      165.474        0.215        0.035       59.946        9.938        0.027      337.431        9.400      865.484
05/11/2014  23:31:00      -67.636      -35.167      -10.164        7.414        8.202        6.714       54.962       67.277       45.081        0.304        0.008       76.232        4.622        0.004      337.499        9.515      865.500
05/11/2014  23:32:00      -75.128      -24.224       -9.456       10.743       11.484        9.975      115.410      131.893       99.506        0.333        0.017       78.937        4.551        0.003      337.521        9.551      865.507
05/11/2014  23:33:00      -86.889      -25.740      -13.866       10.598       12.126        8.568      112.328      147.048       73.411        0.437        0.017       90.622        5.661        0.004      337.384        9.320      865.515
05/11/2014  23:34:00      -93.845      -44.396      -10.905       12.311       10.177        8.847      151.551      103.569       78.267        0.562        0.017      103.817        4.567        0.002      337.257        9.110      865.515
05/11/2014  23:35:00      -62.339      -39.623       -5.790       28.310       18.164       16.710      801.473      329.929      279.226        0.345        0.071       73.865       15.544        0.044      337.255        9.107      865.514
05/11/2014  23:36:00      -54.138      -61.430       -2.973       25.177       21.749       19.591      633.904      473.027      383.790        0.410        0.075       81.881       16.057        0.038      337.173        8.969      865.517
05/11/2014  23:37:00      -51.903      -55.350        4.346       33.527       23.295       16.694     1124.060      542.644      278.692        0.386        0.097       75.878       10.637        0.020      337.190        8.997      865.529
05/11/2014  23:38:00      -89.037      -62.401       -8.170       16.934       22.408       12.731      286.765      502.105      162.082        0.642        0.048      108.727        7.611        0.005      337.265        9.121      865.528
05/11/2014  23:39:00      -96.388      -56.089       -5.862       24.666       19.477       12.089      608.388      379.355      146.145        0.680        0.057      111.520        8.749        0.006      337.168        8.961      865.531
05/11/2014  23:40:00      -39.414      -39.722        2.772       33.435       21.466       18.919     1117.922      460.803      357.926        0.254        0.097       55.959       18.327        0.107      337.101        8.848      865.527
05/11/2014  23:41:00      -71.724      -45.087        0.238       26.751       16.150       15.246      715.601      260.809      232.429        0.419        0.060       84.719       16.250        0.037      337.109        8.860      865.533
05/11/2014  23:42:00      -57.286      -45.550        2.509       26.500       15.285       18.424      702.253      233.643      339.443        0.332        0.064       73.188       16.703        0.052      337.149        8.929      865.548
05/11/2014  23:43:00      -48.960      -36.288       -2.088       20.837       16.268       13.989      434.193      264.661      195.680        0.231        0.045       60.942       11.473        0.035      337.195        9.006      865.545
05/11/2014  23:44:00      -12.700      -27.096        4.125       22.175       16.356       10.568      491.749      267.505      111.684        0.089        0.044       29.925        9.294        0.096      337.235        9.073      865.534
05/11/2014  23:45:00      -47.176      -26.473        0.788       30.270       14.646       16.176      916.252      214.491      261.669        0.216        0.070       54.096       14.351        0.070      337.106        8.855      865.533
05/11/2014  23:46:00      -32.899      -37.195       -2.522       31.792       15.352       15.528     1010.736      235.669      241.128        0.198        0.074       49.656       15.591        0.099      337.105        8.853      865.544
05/11/2014  23:47:00      -22.258      -38.388        6.980       20.299       16.744       16.018      412.048      280.361      256.591        0.148        0.047       44.374       14.120        0.101      337.106        8.856      865.563
05/11/2014  23:48:00      -48.182      -44.886       -0.328       16.294       28.767       12.991      265.487      827.550      168.773        0.280        0.063       65.850       11.143        0.029      337.075        8.802      865.583
05/11/2014  23:49:00      -32.149      -46.346        2.715       35.848       29.186       14.749     1285.059      851.833      217.527        0.277        0.118       56.405       11.135        0.039      337.154        8.935      865.603
05/11/2014  23:50:00      -32.835      -60.340        4.557       27.415       28.546       18.445      751.560      814.889      340.204        0.332        0.095       68.696       13.438        0.038      337.139        8.911      865.616
05/11/2014  23:51:00      -27.183      -54.695        5.225       29.589       20.680       20.295      875.488      427.644      411.891        0.274        0.086       61.077       20.196        0.109      337.213        9.037      865.632
05/11/2014  23:52:00      -57.272      -46.992       -2.928       32.380       20.586       16.276     1048.452      423.801      264.912        0.362        0.087       74.084       13.569        0.034      337.204        9.021      865.639
05/11/2014  23:53:00      -43.002      -49.153        2.478       31.404       23.619       17.923      986.202      557.864      321.239        0.307        0.093       65.308       11.576        0.031      337.133        8.901      865.660
05/11/2014  23:54:00      -65.142      -33.939        2.768       23.414       19.530       18.839      548.199      381.408      354.896        0.334        0.064       73.453        8.196        0.012      337.067        8.790      865.669
05/11/2014  23:55:00      -66.501      -53.970       -8.065       25.642       21.010       17.087      657.527      441.414      291.978        0.440        0.070       85.645       11.222        0.017      337.110        8.863      865.670
05/11/2014  23:56:00     -114.073      -46.743      -13.326       36.547       21.351       17.784     1335.694      455.884      316.286        0.874        0.105      123.278        7.582        0.004      337.056        8.771      865.677
05/11/2014  23:57:00     -123.940      -70.577       -5.035       35.546       20.750       19.233     1263.496      430.576      369.898        1.122        0.103      142.626       20.584        0.021      336.916        8.539      865.680
05/11/2014  23:58:00      -78.131      -50.105       -2.376       25.471       26.013       17.142      648.790      676.656      293.848        0.512        0.081       92.817       15.684        0.029      336.879        8.475      865.682
05/11/2014  23:59:00     -100.468      -46.215       -6.585       18.544       13.922       17.078      343.891      193.818      291.671        0.655        0.041      110.588        9.246        0.007      336.871        8.463      865.675
